[[{"header":{"parameterUnit":"m.s-1","parameterCategory":1,"la1":30.6,"la2":28.766,"lo1":-90.7593,"lo2":-88.6598,"dy":0.0162,"dx":0.0183,"nx":116,"ny":114,"refTime":"2023-09-18T00:00:00:Z","depth":0,"parameterNumber":2,"parameterNumberName":"U-component_of_WINDS"},"data":[0.0,0.0,0.0,0.0,0.0,0.0,0.0,0.0,0.0,0.0,0.0,0.0,0.0,0.0,0.0,0.0,0.0,0.0,0.0,0.0,0.0,0.0,0.0,0.0,0.0,0.0,0.0,0.0,0.0,0.0,0.0,0.0,0.0,0.0,0.0,0.0,0.0,0.0,0.0,0.0,0.0,0.0,0.0,0.0,0.0,0.0,0.0,0.0,0.0,0.0,0.0,0.0,0.0,0.0,0.0,0.0,0.0,0.0,0.0,0.0,0.0,0.0,0.0,0.0,0.0,0.0,0.0,0.0,0.0,0.0,0.0,0.0,0.0,0.0,0.0,0.0,0.0,0.0,0.0,0.0,0.0,0.0,0.0,0.0,0.0,0.0,0.0,0.0,0.0,0.0,0.0,0.0,0.0,0.0,0.0,0.0,0.0,0.0,0.0,0.0,0.0,0.0,0.0,0.0,0.0,0.0,0.0,0.0,0.0,0.0,0.0,0.0,0.0,0.0,0.0,0.0,0.0,0.0,0.0,0.0,0.0,0.0,0.0,0.0,0.0,0.0,0.0,0.0,0.0,0.0,0.0,0.0,0.0,0.0,0.0,0.0,0.0,0.0,0.0,0.0,0.0,0.0,0.0,0.0,0.0,0.0,0.0,0.0,0.0,0.0,0.0,0.0,0.0,0.0,0.0,0.0,0.0,0.0,0.0,0.0,0.0,0.0,0.0,0.0,0.0,0.0,0.0,0.0,0.0,0.0,0.0,0.0,0.0,0.0,0.0,0.0,0.0,0.0,0.0,0.0,0.0,0.0,0.0,0.0,0.0,0.0,0.0,0.0,0.0,0.0,0.0,0.0,0.0,0.0,0.0,0.0,0.0,0.0,0.0,0.0,0.0,0.0,0.0,0.0,0.0,0.0,0.0,0.0,0.0,0.0,0.0,0.0,0.0,0.0,0.0,0.0,0.0,0.0,0.0,0.0,0.0,0.0,0.0,0.0,0.0,0.0,0.0,0.0,0.0,0.0,0.0,0.0,0.0,0.0,0.0,0.0,0.0,0.0,0.0,0.0,0.0,0.0,0.0,0.0,0.0,0.0,0.0,0.0,0.0,0.0,0.0,0.0,0.0,0.0,0.0,0.0,0.0,0.0,0.0,0.0,0.0,0.0,0.0,0.0,0.0,0.0,0.0,0.0,0.0,0.0,0.0,0.0,0.0,0.0,0.0,0.0,0.0,0.0,0.0,0.0,0.0,0.0,0.0,0.0,0.0,0.0,0.0,0.0,0.0,0.0,0.0,0.0,0.0,0.0,0.0,0.0,0.0,0.0,0.0,0.0,0.0,0.0,0.0,0.0,0.0,0.0,0.0,0.0,0.0,0.0,0.0,0.0,0.0,0.0,0.0,0.0,0.0,0.0,0.0,0.0,0.0,0.0,0.0,0.0,0.0,0.0,0.0,0.0,0.0,0.0,0.0,0.0,0.0,0.0,0.0,0.0,0.0,0.0,0.0,0.0,0.0,0.0,0.0,0.0,0.0,0.0,0.0,0.0,0.0,0.0,0.0,0.0,0.0,0.0,0.0,0.0,0.0,0.0,0.0,0.0,0.0,0.0,0.0,0.0,0.0,0.0,0.0,0.0,0.0,0.0,0.0,0.0,0.0,0.0,0.0,0.0,0.0,0.0,0.0,0.0,0.0,0.0,0.0,0.0,0.0,0.0,0.0,0.0,0.0,0.0,0.0,0.0,0.0,0.0,0.0,0.0,0.0,0.0,0.0,0.0,0.0,0.0,0.0,0.0,0.0,0.0,0.0,0.0,0.0,0.0,0.0,0.0,0.0,0.0,0.0,0.0,0.0,0.0,0.0,0.0,0.0,0.0,0.0,0.0,0.0,0.0,0.0,0.0,0.0,0.0,0.0,0.0,0.0,0.0,0.0,0.0,0.0,0.0,0.0,0.0,0.0,0.0,0.0,0.0,0.0,0.0,0.0,0.0,0.0,0.0,0.0,0.0,0.0,0.0,0.0,0.0,0.0,0.0,0.0,0.0,0.0,0.0,0.0,0.0,0.0,0.0,0.0,0.0,0.0,0.0,0.0,0.0,0.0,0.0,0.0,0.0,0.0,0.0,0.0,0.0,0.0,0.0,0.0,0.0,0.0,0.0,0.0,0.0,0.0,0.0,0.0,0.0,0.0,0.0,0.0,0.0,0.0,0.0,0.0,0.0,0.0,0.0,0.0,0.0,0.0,0.0,0.0,0.0,0.0,0.0,0.0,0.0,0.0,0.0,0.0,0.0,0.0,0.0,0.0,0.0,0.0,0.0,0.0,0.0,0.0,0.0,0.0,0.0,0.0,0.0,0.0,0.0,0.0,0.0,0.0,0.0,0.0,0.0,0.0,0.0,0.0,0.0,0.0,0.0,0.0,0.0,0.0,0.0,0.0,0.0,0.0,0.0,0.0,0.0,0.0,0.0,0.0,0.0,0.0,0.0,0.0,0.0,0.0,0.0,0.0,0.0,0.0,0.0,0.0,0.0,0.0,0.0,0.0,0.0,0.0,0.0,0.0,0.0,0.0,0.0,0.0,0.0,0.0,0.0,0.0,0.0,0.0,0.0,0.0,0.0,0.0,0.0,0.0,0.0,0.0,0.0,0.0,0.0,0.0,0.0,0.0,0.0,0.0,0.0,0.0,0.0,0.0,0.0,0.0,0.0,0.0,0.0,0.0,0.0,0.0,0.0,0.0,0.0,0.0,0.0,0.0,0.0,0.0,0.0,0.0,0.0,0.0,0.0,0.0,0.0,0.0,0.0,0.0,0.0,0.0,0.0,0.0,0.0,0.0,0.0,0.0,0.0,0.0,0.0,0.0,0.0,0.0,0.0,0.0,0.0,0.0,0.0,0.0,0.0,0.0,0.0,0.0,0.0,0.0,0.0,0.0,0.0,0.0,0.0,0.0,0.0,0.0,0.0,0.0,0.0,0.0,0.0,0.0,0.0,0.0,0.0,0.0,0.0,0.0,0.0,0.0,0.0,0.0,0.0,0.0,0.0,0.0,0.0,0.0,0.0,0.0,0.0,0.0,0.0,0.0,0.0,0.0,0.0,0.0,0.0,0.0,0.0,0.0,0.0,0.0,0.0,0.0,0.0,0.0,0.0,0.0,0.0,0.0,0.0,0.0,0.0,0.0,0.0,0.0,0.0,0.0,0.0,0.0,0.0,0.0,0.0,0.0,0.0,0.0,0.0,0.0,0.0,0.0,0.0,0.0,0.0,0.0,0.0,0.0,0.0,0.0,0.0,0.0,0.0,0.0,0.0,0.0,0.0,0.0,0.0,0.0,0.0,0.0,0.0,0.0,0.0,0.0,0.0,0.0,0.0,0.0,0.0,0.0,0.0,0.0,0.0,0.0,0.0,0.0,0.0,0.0,0.0,0.0,0.0,0.0,0.0,0.0,0.0,0.0,0.0,0.0,0.0,0.0,0.0,0.0,0.0,0.0,0.0,0.0,0.0,0.0,0.0,0.0,0.0,0.0,0.0,0.0,0.0,0.0,0.0,0.0,0.0,0.0,0.0,0.0,0.0,0.0,0.0,0.0,0.0,0.0,0.0,0.0,0.0,0.0,0.0,0.0,0.0,0.0,0.0,0.0,0.0,0.0,0.0,0.0,0.0,0.0,0.0,0.0,0.0,0.0,0.0,0.0,0.0,0.0,0.0,0.0,0.0,0.0,0.0,0.0,0.0,0.0,0.0,0.0,0.0,0.0,0.0,0.0,0.0,0.0,0.0,0.0,0.0,0.0,0.0,0.0,0.0,0.0,0.0,0.0,0.0,0.0,0.0,0.0,0.0,0.0,0.0,0.0,0.0,0.0,0.0,0.0,0.0,0.0,0.0,0.0,0.0,0.0,0.0,0.0,0.0,0.0,0.0,0.0,0.0,0.0,0.0,0.0,0.0,0.0,0.0,0.0,0.0,0.0,0.0,0.0,0.0,0.0,0.0,0.0,0.0,0.0,0.0,0.0,0.0,0.0,0.0,0.0,0.0,0.0,0.0,0.0,0.0,0.0,0.0,0.0,0.0,0.0,0.0,0.0,0.0,0.0,0.0,0.0,0.0,0.0,0.0,0.0,0.0,0.0,0.0,0.0,0.0,0.0,0.0,0.0,0.0,0.0,0.0,0.0,0.0,0.0,0.0,0.0,0.0,0.0,0.0,0.0,0.0,0.0,0.0,0.0,0.0,0.0,0.0,0.0,0.0,0.0,0.0,0.0,0.0,0.0,0.0,0.0,0.0,0.0,0.0,0.0,0.0,0.0,0.0,0.0,0.0,0.0,0.0,0.0,0.0,0.0,0.0,0.0,0.0,0.0,0.0,0.0,0.0,0.0,0.0,0.0,0.0,0.0,0.0,0.0,0.0,0.0,0.0,0.0,0.0,0.0,0.0,0.0,0.0,0.0,0.0,0.0,0.0,0.0,0.0,0.0,0.0,0.0,0.0,0.0,0.0,0.0,0.0,0.0,0.0,0.0,0.0,0.0,0.0,0.0,0.0,0.0,0.0,0.0,0.0,0.0,0.0,0.0,0.0,0.0,0.0,0.0,0.0,0.0,0.0,0.0,0.0,0.0,0.0,0.0,0.0,0.0,0.0,0.0,0.0,0.0,0.0,0.0,0.0,0.0,0.0,0.0,0.0,0.0,0.0,0.0,0.0,0.0,0.0,0.0,0.0,0.0,0.0,0.0,0.0,0.0,0.0,0.0,0.0,0.0,0.0,0.0,0.0,0.0,0.0,0.0,0.0,0.0,0.0,0.0,0.0,0.0,0.0,0.0,0.0,0.0,0.0,0.0,0.0,0.0,0.0,0.0,0.0,0.0,0.0,0.0,0.0,0.0,0.0,0.0,0.0,0.0,0.0,0.0,0.0,0.0,0.0,0.0,0.0,0.0,0.0,0.0,0.0,0.0,0.0,0.0,0.0,0.0,0.0,0.0,0.0,0.0,0.0,0.0,0.0,0.0,0.0,0.0,0.0,0.0,0.0,0.0,0.0,0.0,0.0,0.0,0.0,0.0,0.0,0.0,0.0,0.0,0.0,0.0,0.0,0.0,0.0,0.0,0.0,0.0,0.0,0.0,0.0,0.0,0.0,0.0,0.0,0.0,0.0,0.0,0.0,0.0,0.0,0.0,0.0,0.0,0.0,0.0,0.0,0.0,0.0,0.0,0.0,0.0,0.0,0.0,0.0,0.0,0.0,0.0,0.0,0.0,0.0,0.0,0.0,0.0,0.0,0.0,0.0,0.0,0.0,0.0,0.0,0.0,0.0,0.0,0.0,0.0,0.0,0.0,0.0,0.0,0.0,0.0,0.0,0.0,0.0,0.0,0.0,0.0,0.0,0.0,0.0,0.0,0.0,0.0,0.0,0.0,0.0,0.0,0.0,0.0,0.0,0.0,0.0,0.0,0.0,0.0,0.0,0.0,0.0,0.0,0.0,0.0,0.0,0.0,0.0,0.0,0.0,0.0,0.0,0.0,0.0,0.0,0.0,0.0,0.0,0.0,0.0,0.0,0.0,0.0,0.0,0.0,0.0,0.0,0.0,0.0,0.0,0.0,0.0,0.0,0.0,0.0,0.0,0.0,0.0,0.0,0.0,0.0,0.0,0.0,0.0,0.0,0.0,0.0,0.0,0.0,0.0,0.0,0.0,0.0,0.0,0.0,0.0,0.0,0.0,0.0,0.0,0.0,0.0,0.0,0.0,0.0,0.0,0.0,0.0,0.0,0.0,0.0,0.0,0.0,0.0,0.0,0.0,0.0,0.0,0.0,0.0,0.0,0.0,0.0,0.0,0.0,0.0,0.0,0.0,0.0,0.0,0.0,0.0,0.0,0.0,0.0,0.0,0.0,0.0,0.0,0.0,0.0,0.0,0.0,0.0,0.0,0.0,0.0,0.0,0.0,0.0,0.0,0.0,0.0,0.0,0.0,0.0,0.0,0.0,0.0,0.0,0.0,0.0,0.0,0.0,0.0,0.0,0.0,0.0,0.0,0.0,0.0,0.0,0.0,0.0,0.0,0.0,0.0,0.0,0.0,0.0,0.0,0.0,0.0,0.0,0.0,0.0,0.0,0.0,-0.271,-0.2282,0.0,0.0,0.0,0.0,0.0,0.0,0.0,0.0,0.0,0.0,0.0,0.0,0.0,0.0,0.0,0.0,0.0,0.0,0.0,0.0,0.0,0.0,0.0,0.0,0.0,0.0,0.0,0.0,0.0,0.0,0.0,0.0,0.0,0.0,0.0,0.0,0.0,0.0,0.0,0.0,0.0,0.0,0.0,0.0,0.0,0.0,0.0,0.0,0.0,0.0,0.0,0.0,0.0,0.0,0.0,0.0,0.0,0.0,0.0,0.0,0.0,0.0,0.0,0.0,0.0,0.0,0.0,0.0,0.0,0.0,0.0,0.0,0.0,0.0,0.0,0.0,0.0,0.0,0.0,0.0,0.0,0.0,0.0,0.0,0.0,0.0,0.0,0.0,0.0,0.0,0.0,0.0,0.0,0.0,0.0,0.0,0.0,0.0,0.0,0.0,0.0,0.0,0.0,0.0,0.0,0.0,0.0,0.0,0.0,0.0,0.0,0.0,0.0,0.0,-0.1276,-0.1123,0.0,0.0,0.0,0.0,0.0,0.0,0.0,0.0,0.0,0.0,0.0,0.0,0.0,0.0,0.0,0.0,0.0,0.0,0.0,0.0,0.0,0.0,0.0,0.0,0.0,0.0,0.0,0.0,0.0,0.0,0.0,0.0,0.0,0.0,0.0,0.0,0.0,0.0,0.0,0.0,0.0,0.0,0.0,0.0,0.0,0.0,0.0,0.0,0.0,0.0,0.0,0.0,0.0,0.0,0.0,0.0,0.0,0.0,0.0,0.0,0.0,0.0,0.0,0.0,0.0,0.0,0.0,0.0,0.0,0.0,0.0,0.0,0.0,0.0,0.0,0.0,0.0,0.0,0.0,0.0,0.0,0.0,0.0,0.0,0.0,0.0,0.0,0.0,0.0,0.0,0.0,0.0,0.0,0.0,0.0,0.0,0.0,0.0,0.0,0.0,0.0,0.0,0.0,0.0,0.0,0.0,0.0,0.0,-0.3324,-0.2252,-0.0034,-0.0627,-0.0096,0.1307,0.0199,0.0425,0.1588,0.2164,0.0,0.0,0.0,0.0,0.0,0.0,0.0,0.0,0.0,0.0,0.0,0.0,0.0,0.0,0.0,0.0,0.0,0.0,0.0,0.0,0.0,0.0,0.0,0.0,0.0,0.0,0.0,0.0,0.0,0.0,0.0,0.0,0.0,0.0,0.0,0.0,0.0,0.0,-0.5315,-0.9762,-1.4252,-1.8106,-0.6141,0.0,0.0,0.0,0.0,0.0,0.0,0.0,0.0,0.0,0.0,0.0,0.0,0.0,0.0,0.0,0.0,0.0,0.0,0.0,0.0,0.0,0.0,0.0,0.0,0.0,0.0,0.0,0.0,0.0,0.0,0.0,0.0,0.0,0.0,0.0,0.0,0.0,0.0,0.0,0.0,0.0,0.0,0.0,-1.871,-1.762,0.0,0.0,0.0,0.0,0.0,0.0,0.0,0.0,0.0,0.0,0.0,0.0,0.0,-1.0517,-0.9225,-0.8448,-0.6276,-0.2748,-0.2931,-0.1925,0.0,-0.0103,0.0478,0.1555,0.1212,0.0,0.3266,0.3198,0.0,0.0,0.0,0.0,0.0,0.0,0.0,0.0,0.0,0.0,0.0,0.0,0.0,0.0,0.0,0.0,0.0,0.0,0.0,0.0,0.0,0.0,0.0,0.0,0.0,0.0,0.0,0.0,0.0,0.0,0.0,0.0,0.0,0.0,0.0,0.0,-0.8386,-1.0756,-1.1931,-1.6176,-1.9815,-2.2504,-1.6574,-1.4207,-1.4766,-1.5994,0.0,0.0,0.0,0.0,0.0,0.0,0.0,0.0,0.0,0.0,0.0,0.0,0.0,0.0,0.0,0.0,0.0,0.0,0.0,0.0,0.0,0.0,0.0,0.0,0.0,0.0,0.0,0.0,0.0,0.0,0.0,0.0,0.0,0.0,0.0,0.0,0.0,0.0,0.0,-2.0149,-2.0235,-1.836,-1.9171,-1.9372,0.0,0.0,0.0,0.0,0.0,0.0,0.0,0.0,0.0,-1.2505,-1.2,-1.1086,-0.9755,-0.8716,-0.6979,-0.4528,-0.3443,-0.2182,-0.0883,-0.0257,0.0509,0.147,0.1989,0.2811,0.3793,0.3579,0.4052,0.4968,0.0,0.0,0.0,0.0,0.7773,0.8599,0.0,0.0,0.0,0.0,0.0,0.0,0.0,0.0,0.0,0.0,0.0,0.0,0.0,0.0,0.0,-1.345,0.0,0.0,0.0,0.0,0.0,0.0,0.0,0.0,0.0,0.0,0.0,0.0,-1.4063,-1.661,-1.7452,-2.096,-2.3188,-2.4271,-2.4632,-2.3761,-2.2041,-2.1868,-2.1841,0.0,0.0,0.0,0.0,0.0,0.0,0.0,0.0,0.0,0.0,0.0,0.0,0.0,0.0,0.0,0.0,0.0,0.0,0.0,0.0,0.0,0.0,0.0,0.0,0.0,0.0,0.0,0.0,0.0,0.0,0.0,0.0,0.0,0.0,0.0,0.0,0.0,0.0,-2.0832,-2.0796,-1.8769,-1.9601,-1.9807,0.0,0.0,0.0,0.0,0.0,0.0,-1.3865,-1.4506,-1.4335,-1.3062,-1.268,-1.1938,-1.0841,-0.9371,-0.7789,-0.6132,-0.4006,-0.2491,-0.1567,-0.0504,0.0499,0.1446,0.2447,0.337,0.4129,0.4037,0.4259,0.4708,0.5322,0.5727,0.6128,0.7411,0.8493,0.9368,0.0,0.0,0.0,0.0,0.0,0.0,0.0,0.0,0.0,0.0,0.0,0.0,0.0,0.0,-1.1503,-1.3872,-1.3588,-1.3533,0.0,0.0,0.0,0.0,0.0,0.0,0.0,0.0,0.0,-1.324,-1.5989,-1.8715,-2.1463,-2.44,-2.6546,-2.7927,-2.7833,-2.6506,-2.4247,-2.2931,-2.2579,-2.2986,0.0,0.0,0.0,0.0,0.0,0.0,0.0,0.0,0.0,0.0,0.0,0.0,0.0,0.0,0.0,0.0,0.0,0.0,0.0,0.0,0.0,0.0,0.0,0.0,0.0,0.0,0.0,0.0,0.0,0.0,0.0,0.0,0.0,0.0,0.0,0.0,0.0,0.0,0.0,-1.8968,-1.95,0.0,0.0,0.0,0.0,-1.5485,-1.6207,-1.5945,-1.4088,-1.4438,-1.478,-1.495,-1.4194,-1.3455,-1.278,-1.0802,-0.8706,-0.6562,-0.4317,-0.2692,-0.1568,-0.0481,0.056,0.1641,0.2512,0.3495,0.4501,0.4885,0.5041,0.513,0.56,0.6379,0.7313,0.8083,0.8924,0.9775,0.0,0.0,0.0,0.0,0.0,0.0,0.0,0.0,0.0,0.0,0.0,0.0,0.0,-1.1568,-1.327,-1.5037,-1.5505,-1.5671,-1.5577,0.0,0.0,0.0,0.0,0.0,0.0,0.0,-1.5067,-1.5819,-1.9657,-2.2853,-2.5416,-2.7402,-2.893,-2.9987,-2.9556,-2.8541,-2.7059,-2.4843,-2.398,-2.4093,-2.3343,-2.3501,0.0,0.0,0.0,0.0,0.0,0.0,0.0,0.0,0.0,0.0,0.0,0.0,0.0,0.0,0.0,0.0,0.0,0.0,0.0,0.0,0.0,0.0,0.0,0.0,0.0,0.0,0.0,0.0,0.0,0.0,0.0,0.0,0.0,0.0,0.0,0.0,0.0,-2.2754,-2.3299,0.0,-2.1899,-2.1336,-2.0174,-1.8094,-1.8034,-1.7277,-1.5465,-1.6517,-1.6816,-1.5962,-1.6306,-1.5804,-1.4445,-1.2144,-1.0195,-0.858,-0.5693,-0.3708,-0.2542,-0.1502,-0.0435,0.0627,0.1631,0.2663,0.3647,0.4408,0.5001,0.5473,0.599,0.6701,0.7507,0.8268,0.9131,0.999,0.0,0.0,0.0,0.0,0.0,0.0,0.0,0.0,0.0,0.0,0.0,-0.9879,-1.1593,-1.3343,-1.512,-1.6923,-1.7181,-1.7235,-1.7234,0.0,0.0,0.0,0.0,0.0,0.0,-1.689,-1.8491,-1.9601,-2.3104,-2.6018,-2.8363,-2.9486,-3.0618,-3.1685,-3.0937,-3.0503,-3.0154,-2.7914,-2.6398,-2.5425,-2.4468,-2.4809,-2.5714,0.0,0.0,0.0,0.0,0.0,0.0,0.0,0.0,0.0,0.0,0.0,0.0,0.0,0.0,0.0,0.0,0.0,0.0,0.0,0.0,0.0,0.0,0.0,0.0,0.0,0.0,0.0,0.0,0.0,0.0,0.0,0.0,0.0,0.0,0.0,-2.6047,-2.5869,-2.6011,-2.5654,-2.4456,-2.356,-2.239,-2.0757,-2.0166,-1.9288,-1.7963,-1.876,-1.8833,-1.7861,-1.8125,-1.7519,-1.598,-1.3507,-1.1438,-0.9815,-0.6827,-0.4589,-0.3085,-0.2074,-0.102,0.0079,0.1137,0.1996,0.2655,0.3645,0.4298,0.4847,0.5817,0.6672,0.7414,0.7897,0.8655,0.9505,0.0,0.0,0.0,0.0,0.0,0.0,0.0,0.0,0.0,0.0,-1.0622,-1.2411,-1.3899,-1.5105,-1.6803,-1.9346,-1.831,-1.7949,-1.8979,-1.7246,0.0,0.0,0.0,0.0,-1.874,-2.0719,-2.2701,-2.4591,-2.6131,-2.8053,-3.0294,-3.0708,-3.1738,-3.3192,-3.221,-3.246,-3.3527,-3.2175,-2.9889,-2.7196,-2.7214,-2.7546,-2.7831,0.0,0.0,0.0,0.0,0.0,0.0,0.0,0.0,0.0,0.0,0.0,0.0,0.0,0.0,0.0,0.0,0.0,0.0,0.0,0.0,0.0,0.0,0.0,0.0,0.0,0.0,0.0,0.0,0.0,0.0,0.0,0.0,0.0,-2.6773,-2.7141,-2.7605,-2.7936,-2.7371,-2.6599,-2.5649,-2.4994,-2.4264,-2.3271,-2.2501,-2.1882,-2.1455,-2.0895,-2.0605,-2.0605,-1.9599,-1.847,-1.7293,-1.4803,-1.2444,-1.0166,-0.7685,-0.53,-0.3127,-0.2116,-0.1059,0.0,0.1099,0.1569,0.1687,0.266,0.3086,0.3263,0.5069,0.6301,0.7043,0.7074,0.7581,0.8327,0.0,0.0,0.0,0.0,0.0,0.0,0.0,0.0,0.0,0.0,-1.1215,-1.3162,-1.3475,-1.6121,-1.8108,-1.8683,-1.8238,-1.8003,-1.8155,0.0,0.0,0.0,0.0,0.0,-2.1906,-2.4138,-2.5678,-2.6444,-2.799,-3.0002,-3.2379,-3.2691,-3.4026,-3.6133,-3.5817,-3.5853,-3.6177,-3.5978,-3.5087,-3.3431,-2.9518,-2.8187,-2.8344,0.0,0.0,0.0,0.0,0.0,0.0,0.0,0.0,0.0,0.0,0.0,0.0,0.0,0.0,0.0,0.0,0.0,0.0,0.0,0.0,0.0,0.0,0.0,0.0,0.0,0.0,0.0,0.0,0.0,0.0,0.0,-2.8893,-2.9286,-2.7702,-2.9833,-3.1053,-2.9652,-3.0214,-3.0255,-2.9081,-2.8334,-2.7256,-2.5697,-2.4616,-2.339,-2.1902,-2.1056,-2.0605,-2.0605,-2.0323,-1.9234,-1.7334,-1.5777,-1.3469,-1.0352,-0.8796,-0.6801,-0.4369,-0.3369,-0.2249,-0.1086,-0.004,0.0885,0.1608,0.1889,0.2423,0.323,0.4413,0.5292,0.604,0.6708,0.7808,0.9037,0.0,0.0,0.0,0.0,0.0,0.0,0.0,0.0,0.0,0.0,-1.2301,-1.4059,-1.3564,-1.6023,-1.7769,-1.7959,-1.7939,-1.7753,-1.7441,0.0,0.0,0.0,0.0,-2.2852,-2.4181,-2.6487,-2.7904,-2.8423,-3.0024,-3.1758,-3.3606,-3.4854,-3.6143,-3.742,-3.8015,-3.8231,-3.8142,-3.85,-3.8469,-3.7862,-3.3906,-3.2065,-3.1385,-2.8544,-2.8162,-2.8942,-2.7307,-2.6828,-2.6877,-2.6019,0.0,0.0,0.0,0.0,0.0,0.0,0.0,0.0,0.0,0.0,0.0,0.0,0.0,0.0,0.0,0.0,0.0,0.0,0.0,0.0,0.0,0.0,0.0,0.0,-3.1148,-3.1879,-3.095,-3.2338,-3.3071,-3.2023,-3.2144,-3.197,-3.1049,-3.0458,-2.9397,-2.7632,-2.6518,-2.4966,-2.2765,-2.1707,-2.1011,-2.0605,-2.0033,-1.89,-1.7143,-1.591,-1.3541,-1.0172,-0.9515,-0.7708,-0.4859,-0.3842,-0.274,-0.1543,-0.0452,0.0371,0.0948,0.0938,0.1288,0.1941,0.0,0.0,0.0,0.0,0.7178,0.8356,0.0,0.0,0.0,0.0,0.0,0.0,0.0,0.0,0.0,0.0,0.0,-1.4719,-1.359,-1.5081,-1.6471,-1.7228,-1.739,-1.7324,0.0,0.0,0.0,-2.0339,-2.319,-2.5151,-2.5981,-2.8147,-2.9619,-3.0362,-3.19,-3.3228,-3.438,-3.693,-3.8032,-3.7951,-3.9492,-4.0043,-3.9848,-4.0255,-4.0638,-4.0829,-3.9112,-3.7454,-3.5605,-3.2113,-3.1699,-3.2618,-3.0036,-2.869,-2.7997,-2.7075,0.0,0.0,0.0,0.0,0.0,0.0,0.0,0.0,0.0,0.0,0.0,0.0,0.0,0.0,0.0,0.0,0.0,0.0,0.0,0.0,0.0,0.0,0.0,0.0,-3.3647,-3.5045,-3.5462,-3.4802,-3.4293,-3.4398,-3.3507,-3.2669,-3.2083,-3.172,-3.0835,-2.9132,-2.8079,-2.6333,-2.3649,-2.2553,0.0,0.0,0.0,-1.8029,-1.6948,-1.5592,-1.3259,-0.9973,-0.9973,-0.8273,-0.5103,-0.4082,-0.3037,-0.1925,-0.0879,-0.0422,-0.0379,-0.0247,-0.0122,0.0202,0.2155,0.3547,0.4527,0.5167,0.6032,0.6979,0.0,0.0,0.0,0.0,0.0,0.0,0.0,0.0,0.0,-1.0152,-1.2358,-1.3431,-1.1729,-1.3806,-1.5669,-1.6514,-1.6463,-1.6803,0.0,0.0,-2.0044,-2.2632,-2.5,-2.6928,-2.8316,-2.9941,-3.1142,-3.187,-3.2634,-3.3916,-3.5687,-3.7802,-3.9317,-4.03,-4.1807,-4.2433,-4.2396,-4.2483,-4.2555,-4.2537,-4.1477,-3.9714,-3.7342,-3.3906,-3.2361,-3.1816,-2.9926,-2.9096,-2.8786,-2.8043,-2.7561,-2.7179,-2.6603,0.0,0.0,0.0,0.0,0.0,0.0,0.0,0.0,0.0,0.0,0.0,0.0,0.0,0.0,0.0,0.0,0.0,0.0,0.0,0.0,-3.3732,-3.552,-3.7184,-3.8524,-3.7785,-3.6417,-3.4609,-3.4953,-3.4674,-3.2942,-3.2484,-3.1565,-2.9839,-2.8353,-2.6333,-2.3649,-2.2553,-2.1555,-2.0644,-1.9485,-1.8356,-1.7227,-1.6102,-1.3828,-1.0479,-1.0479,0.0,-0.6499,-0.5491,-0.4801,-0.4357,-0.3349,-0.2885,-0.2837,-0.1851,-0.0898,0.0118,0.1202,0.2646,0.4127,0.4269,0.5349,0.6869,0.0,0.0,0.0,0.0,0.0,0.0,0.0,0.0,0.0,0.0,-1.3925,-1.4943,-1.3501,-1.4848,-1.6001,-1.6399,-1.6264,0.0,0.0,-1.9546,-2.1224,-2.3848,-2.6471,-2.8383,-2.9533,-3.136,-3.229,-3.2293,-3.3807,-3.5044,-3.6059,-3.8781,-4.0341,-4.0986,-4.2768,-4.3515,-4.3474,-4.3915,-4.4087,-4.4049,-4.3323,-4.2104,-4.0368,-3.7351,-3.5396,-3.403,-3.235,-3.0888,-2.9572,-2.8423,-2.7442,-2.6562,-2.5825,-2.5285,-2.4906,0.0,0.0,0.0,0.0,0.0,0.0,0.0,0.0,0.0,0.0,0.0,0.0,0.0,0.0,-2.9248,0.0,0.0,-3.3912,-3.5911,-3.7257,-3.8417,-3.9464,-3.8766,-3.7492,-3.5759,-3.5468,-3.4835,-3.344,-3.2807,-3.1943,-3.0651,-2.8873,-2.6758,-2.4281,-2.3028,-2.1796,-2.0634,-1.9403,-1.8464,-1.7904,-1.63,-1.4323,-1.2021,-1.1059,-0.9599,-0.7727,-0.6118,-0.5285,-0.5059,-0.4025,-0.354,-0.3412,-0.2715,-0.1818,-0.0742,-0.0334,0.1295,0.3399,0.384,0.4878,0.6235,0.0,0.0,0.0,0.0,0.0,0.0,0.0,0.0,0.0,0.0,-1.536,-1.6215,-1.5468,-1.5797,-1.6161,0.0,0.0,0.0,0.0,-2.0539,-2.2307,-2.4812,-2.7537,-2.9484,-3.0514,-3.2273,-3.3102,-3.2953,-3.517,-3.6395,-3.6751,-3.9935,-4.1415,-4.1453,-4.3356,-4.4139,-4.4094,-4.4864,-4.5169,-4.5061,-4.4699,-4.3991,-4.293,-4.0646,-3.851,-3.6466,-3.4468,-3.2191,-2.9932,-2.8498,-2.6853,-2.5344,-2.4868,-2.4973,-2.5155,-2.4615,-2.4726,0.0,0.0,0.0,0.0,0.0,0.0,0.0,0.0,0.0,-2.8206,-2.9683,-3.0812,-3.2065,-3.3726,-3.4562,-3.5657,-3.7667,-3.8645,-3.9271,-3.9705,-3.8972,-3.8003,-3.6912,-3.5735,-3.4695,-3.3899,-3.3017,-3.2152,-3.1285,-2.9218,-2.704,-2.4828,-2.3362,-2.2002,-2.0756,-1.9267,-1.8398,-1.8276,-1.6341,-1.4679,-1.3259,-1.1702,-1.0172,-0.8666,-0.6893,-0.5879,-0.544,-0.4586,-0.398,-0.3581,-0.3492,-0.2717,-0.16,-0.1604,0.0146,0.2777,0.3483,0.4317,0.5418,0.0,0.0,0.0,0.0,0.0,0.0,0.0,0.0,0.0,0.0,0.0,0.0,0.0,0.0,0.0,0.0,0.0,0.0,0.0,-2.0729,-2.2764,-2.6302,-2.8096,-2.9958,-3.2005,-3.231,-3.3339,-3.5228,-3.6516,-3.7833,-3.916,-4.1511,-4.2749,-4.3089,-4.4391,-4.4973,-4.4974,-4.5381,-4.5362,-4.5118,-4.5361,-4.4506,-4.2983,-4.1939,-3.9597,-3.6457,-3.3229,-3.0849,-2.9126,-2.8355,-2.6935,-2.563,-2.6362,-2.5594,-2.4555,-2.5163,0.0,-2.4648,-2.6188,-2.7249,-2.8201,-2.9397,-2.9908,-3.0766,0.0,0.0,-3.3278,-3.3762,-3.4449,-3.4921,-3.4871,-3.6308,-3.7667,-3.8248,-3.9254,-4.0081,-4.0362,-3.9241,-3.8093,-3.7233,-3.6325,-3.5472,-3.4659,-3.3367,-3.2228,-3.1353,-2.8813,-2.6478,-2.4556,-2.2955,-2.1789,-2.1161,-1.9288,-1.8057,-1.7438,-1.6259,-1.4587,-1.2445,-1.2225,-1.0983,-0.886,-0.8615,-0.7914,-0.6841,-0.6647,-0.5855,-0.473,-0.4705,-0.3476,-0.1602,-0.1597,0.0148,0.2705,0.28,0.3413,0.4511,0.0,0.0,0.0,0.0,0.0,0.0,0.0,0.0,0.0,0.0,0.0,0.0,0.0,0.0,0.0,0.0,0.0,0.0,-1.9887,-2.0754,-2.2849,-2.6539,-2.8586,-3.026,-3.1633,-3.2936,-3.3981,-3.4792,-3.6426,-3.7948,-3.9298,-4.1011,-4.2354,-4.3341,-4.4366,-4.4919,-4.5118,-4.5467,-4.541,-4.508,-4.491,-4.3835,-4.2085,-3.9731,-3.7056,-3.4374,-3.2946,-3.0703,0.0,0.0,-2.5673,-2.5325,-2.4261,-2.4414,-2.4955,-2.4793,-2.5192,0.0,-2.7897,-2.8945,0.0,0.0,-3.2737,-3.4054,-3.5748,-3.5868,-3.5903,-3.6922,-3.7126,-3.7251,-3.7605,-3.8182,-3.8771,0.0,-3.9784,-4.0033,-3.9831,-3.8194,-3.6512,-3.5209,-3.4165,-3.3694,-3.404,-3.2993,-3.2055,-3.1462,-2.8907,-2.6736,-2.5239,-2.374,-2.2284,-2.09,-2.0283,-1.9601,-1.8839,-1.8028,-1.6822,-1.5204,-1.3904,-1.2432,-1.0826,-0.9492,-0.8237,-0.7085,-0.6895,-0.6472,-0.5933,-0.5781,-0.4418,-0.2457,-0.2477,-0.0705,0.1952,0.2505,0.3596,0.5104,0.0,0.0,0.0,0.0,0.0,0.0,0.0,0.0,0.0,0.0,0.0,0.0,0.0,0.0,0.0,0.0,0.0,0.0,0.0,-2.0517,-2.2578,-2.5659,-2.8163,0.0,-3.1173,-3.2987,-3.4023,-3.4278,-3.6099,-3.7563,-3.8723,-4.018,-4.1517,-4.2667,-4.3423,-4.3913,-4.417,-4.4594,-4.445,-4.3874,-4.3378,-4.2044,-4.0038,-3.6803,-3.4024,-3.1814,-3.1602,-2.964,0.0,0.0,-2.4819,-2.4892,-2.3307,-2.4042,-2.5425,-2.4984,-2.5948,-2.7468,-2.902,0.0,0.0,-3.3647,-3.5644,-3.7313,-3.7909,-3.8163,-3.8449,-3.9103,-3.8756,-3.8422,-3.8717,-3.8583,-3.8646,-3.9288,-3.9576,-3.9651,-3.935,-3.7247,-3.5296,-3.4092,-3.2569,-3.1926,-3.2663,-3.1987,-3.143,-3.1237,-2.874,-2.6764,-2.5664,-2.4226,-2.2715,-2.1183,-2.0931,-2.0451,-1.967,-1.9092,-1.8113,-1.6669,-1.5168,-1.3701,-1.2237,-0.9923,-0.8209,-0.7024,-0.6858,-0.6715,-0.662,-0.6126,-0.4794,-0.308,-0.2801,-0.0862,0.183,0.2459,0.3691,0.5233,0.0,0.0,0.0,0.0,0.0,0.0,0.0,0.0,0.0,0.0,0.0,0.0,0.0,0.0,0.0,0.0,0.0,0.0,0.0,-1.9959,-2.1884,-2.3427,-2.6302,-2.8906,-3.114,-3.1972,-3.3055,-3.4498,-3.5835,-3.6925,-3.769,-3.9472,-4.0558,-4.098,-4.1475,-4.1707,-4.1745,-4.2424,-4.2023,-4.0894,-4.049,-3.8922,-3.6543,-3.3785,-3.1256,-2.9107,-2.8338,0.0,0.0,0.0,-2.4913,-2.4455,-2.5088,-2.5392,0.0,-2.6336,-2.7208,-2.8167,-2.9065,0.0,-3.3697,-3.6088,-3.877,-4.0813,-4.0707,-4.1347,-4.1548,-4.0162,-3.908,-3.8056,-3.6888,-3.6738,-3.6955,-3.7481,-3.8289,-3.8954,-3.9254,-3.6889,-3.5115,-3.5058,-3.2618,-3.0833,0.0,-3.0267,-3.0185,-3.0514,-2.8037,-2.6204,-2.5439,-2.3894,-2.2831,-2.2445,-2.0806,-1.9655,-1.9044,-1.8571,-1.7276,-1.516,-1.5506,-1.4476,-1.2237,-0.9923,-0.819,-0.6893,-0.6883,-0.6753,-0.6438,-0.5379,-0.4227,-0.3007,-0.2034,0.0192,0.2855,0.2745,0.326,0.4262,0.0,0.0,0.0,0.0,0.0,0.0,0.0,0.0,0.0,0.0,0.0,0.0,0.0,0.0,0.0,0.0,0.0,0.0,0.0,-1.9449,-2.0788,-2.26,-2.4777,-2.6435,-2.7452,-2.9213,-3.0502,-3.1315,-3.2762,-3.4275,-3.5876,-3.6506,-3.7688,-3.9307,-3.9475,-3.9839,-4.032,-4.0014,-3.9648,-3.9077,-3.6758,-3.5024,-3.3511,-3.0457,-2.8012,-2.6219,0.0,0.0,0.0,0.0,0.0,-2.391,-2.3188,-2.3688,-2.4852,-2.625,-2.7681,-2.9236,-3.1218,0.0,-3.6332,-3.9472,-4.1352,-4.2639,-4.3305,-4.3125,-4.2188,-3.9901,-3.8024,-3.6348,-3.4877,-3.4413,-3.4626,-3.5793,-3.7086,-3.7846,-3.7613,-3.6951,-3.5477,-3.2707,-3.1694,0.0,0.0,0.0,0.0,-2.9644,-2.8054,-2.6767,-2.6046,-2.5107,-2.3826,-2.2158,-2.1804,-2.0973,-1.9624,-1.9761,-1.8834,-1.6826,-1.5777,-1.3803,-1.1016,-1.0261,-0.8763,-0.6773,-0.6671,-0.6566,-0.6424,-0.5252,-0.409,-0.3007,-0.1996,0.0191,0.2755,0.2731,0.365,0.5067,0.0,0.0,0.0,0.0,0.0,0.0,0.0,0.0,0.0,0.0,0.0,0.0,0.0,0.0,0.0,0.0,0.0,0.0,0.0,0.0,-1.9903,-2.1404,-2.312,-2.4392,-2.5186,-2.664,-2.7657,-2.8246,-2.9455,-3.0872,-3.2441,-3.3014,-3.4098,-3.5563,-3.5844,-3.6244,-3.6693,-3.5999,-3.5524,-3.5034,-3.2657,-3.112,-2.9973,-2.7433,-2.5794,0.0,0.0,0.0,0.0,0.0,0.0,-2.4052,-2.3168,-2.4069,-2.5721,-2.7129,-2.898,-3.1148,-3.4005,-3.642,-3.8885,-4.2085,-4.3527,-4.4118,-4.3882,-4.3003,-4.1289,-3.7926,-3.5788,-3.3957,-3.2089,-3.1484,-3.1839,-3.3533,-3.4658,-3.5575,-3.6304,-3.5911,-3.4709,-3.2543,-3.1651,-3.0726,0.0,0.0,0.0,-2.9105,-2.863,-2.788,-2.6789,-2.6118,-2.492,-2.315,-2.227,-2.1533,-2.0907,-2.024,-1.9154,-1.7673,-1.5794,-1.3709,-1.1415,-1.0595,-0.9216,-0.7389,-0.6822,-0.6562,-0.6384,-0.4857,-0.3777,-0.2965,-0.159,0.053,0.2755,0.2704,0.3885,0.5513,0.0,0.0,0.0,0.0,0.0,0.0,0.0,0.0,0.0,0.0,0.0,0.0,0.0,0.0,0.0,0.0,0.0,0.0,0.0,0.0,0.0,-1.9866,-2.1339,-2.2803,-2.4186,-2.4288,-2.4677,-2.5356,-2.615,-2.6911,-2.7672,-2.9263,-3.0008,-3.0123,-3.0898,-3.1243,-3.1256,-3.0764,-3.0061,-2.9248,-2.8428,-2.7382,-2.6155,-2.4848,0.0,0.0,0.0,0.0,0.0,0.0,0.0,0.0,-2.5069,-2.6418,-2.8099,-2.9014,-3.1071,-3.3801,-3.7219,-3.9373,-4.132,-4.3918,-4.5209,-4.5168,-4.2626,-4.1159,-3.9048,-3.4517,-3.255,-3.0974,0.0,0.0,-2.8762,-3.0887,-3.1389,-3.2538,-3.5482,-3.4121,-3.3294,0.0,0.0,0.0,0.0,0.0,0.0,-2.8982,-2.9597,-2.9337,-2.7773,-2.6849,-2.5995,-2.5216,-2.2299,-2.1362,-2.2647,-1.9973,-1.8309,-1.7637,-1.5618,-1.417,-1.3204,-1.0948,-0.943,-0.8598,-0.728,-0.6603,-0.6338,-0.4322,-0.3308,-0.2882,-0.0878,0.1132,0.2882,0.2738,0.3938,0.5538,0.0,0.0,0.0,0.0,0.0,0.0,0.0,0.0,0.0,0.0,0.0,0.0,0.0,0.0,0.0,0.0,0.0,0.0,0.0,0.0,0.0,0.0,0.0,0.0,0.0,0.0,0.0,0.0,0.0,-2.4611,-2.5371,-2.659,-2.7627,0.0,-2.891,-2.9282,-2.9567,-2.8835,-2.8418,-2.8059,0.0,-2.5193,-2.4693,0.0,0.0,0.0,0.0,0.0,0.0,0.0,0.0,0.0,0.0,-2.7399,-2.8711,-3.0974,-3.344,-3.6069,-3.9054,-4.1554,-4.3682,-4.5174,-4.5273,-4.4389,-4.1986,-3.9637,-3.6822,-3.2745,-3.0078,-2.8053,0.0,0.0,0.0,-2.9725,-3.1808,0.0,-3.5649,-3.6784,0.0,-3.5444,0.0,-3.4306,-3.2756,-3.2545,0.0,0.0,-2.9376,-2.9164,-3.012,-2.7309,-2.5514,-2.5203,-2.3424,-2.2352,-2.2111,-2.0129,-1.8478,-1.7152,-1.5914,-1.4471,-1.2783,-1.0794,-0.9197,-0.7959,-0.6976,-0.6491,-0.6234,-0.4928,-0.3849,-0.2961,-0.1676,0.041,0.2739,0.272,0.3856,0.5457,0.0,0.0,0.0,0.0,0.0,0.0,0.0,0.0,0.0,0.0,0.0,0.0,0.0,0.0,0.0,0.0,0.0,0.0,0.0,0.0,0.0,0.0,0.0,0.0,0.0,0.0,0.0,0.0,0.0,0.0,0.0,-2.3784,-2.4745,-2.5839,-2.6145,-2.6504,-2.684,0.0,0.0,0.0,0.0,0.0,0.0,0.0,0.0,0.0,0.0,0.0,0.0,0.0,0.0,-2.7125,-2.8287,-2.9514,-3.1092,-3.3887,0.0,-3.8582,-4.1402,-4.3524,-4.5114,-4.5736,-4.5056,-4.3451,-4.0582,-3.7805,-3.4536,-2.9954,-2.7728,0.0,-2.4884,-2.4555,-2.5334,0.0,0.0,0.0,-3.4561,-3.6112,-3.6805,0.0,-3.6109,0.0,-3.3815,-3.3824,-3.3541,-3.267,-3.0905,-3.0032,-3.0378,-2.8066,-2.6412,-2.5747,-2.3983,-2.2335,-2.0782,-2.0413,-1.9276,-1.7432,-1.6081,-1.4906,-1.3879,-1.1408,-0.9737,-0.8679,-0.7568,-0.6795,-0.6306,-0.5179,-0.4062,-0.3,-0.1981,-0.0075,0.2135,0.2618,0.3628,0.486,0.0,0.0,0.0,0.0,0.0,0.0,0.0,0.0,0.0,0.0,0.0,0.0,0.0,0.0,0.0,0.0,0.0,0.0,0.0,0.0,0.0,0.0,0.0,0.0,0.0,0.0,0.0,0.0,0.0,0.0,0.0,0.0,0.0,0.0,0.0,0.0,0.0,0.0,0.0,0.0,0.0,0.0,0.0,0.0,0.0,0.0,0.0,0.0,0.0,0.0,-2.7308,-2.847,-3.028,-3.2091,-3.4113,-3.7081,-3.9013,-4.0826,-4.3698,-4.5113,-4.5783,-4.575,-4.4397,-4.2174,-3.8721,-3.556,-3.1985,-2.7075,0.0,-2.5015,-2.371,-2.3088,-2.3669,-2.647,0.0,-2.8359,-3.3028,-3.4061,-3.513,-3.7246,-3.6508,-3.5535,-3.4853,-3.4884,-3.4907,-3.4763,-3.3169,-3.157,-3.0096,-2.8992,-2.772,-2.6185,-2.4099,-2.1875,-1.9497,-2.0688,-2.019,-1.7974,-1.6228,-1.5436,-1.5426,-1.2392,-1.0588,-0.9752,-0.8407,-0.7325,-0.6421,-0.5364,-0.4224,-0.3052,-0.2136,-0.0528,0.143,0.2494,0.3363,0.4189,0.0,0.0,0.0,0.0,0.0,0.0,0.0,0.0,0.0,0.0,0.0,0.0,0.0,0.0,0.0,0.0,0.0,0.0,0.0,0.0,0.0,0.0,0.0,0.0,0.0,0.0,0.0,0.0,0.0,0.0,0.0,0.0,0.0,0.0,0.0,0.0,0.0,0.0,0.0,0.0,0.0,0.0,0.0,0.0,0.0,0.0,0.0,0.0,0.0,0.0,-2.7502,-2.8912,-3.1773,-3.3592,-3.5443,-3.9218,-4.0522,-4.144,-4.4526,-4.5576,-4.5666,-4.5065,-4.2582,-3.9547,-3.6715,-3.2441,0.0,0.0,-2.4801,-2.3968,-2.423,-2.4212,-2.4814,-2.682,-2.7675,-2.924,-3.2597,-3.4235,-3.5708,0.0,-3.7489,-3.727,-3.6754,-3.6148,0.0,0.0,-3.4077,-3.3492,-3.2744,-3.0021,-2.7312,-2.4756,-2.3628,-2.2194,-2.0398,-2.0616,-1.9834,-1.7974,-1.6888,-1.5965,-1.5191,-1.3082,-1.1115,-0.9336,-0.839,-0.7391,-0.6461,-0.6159,-0.4941,-0.3244,-0.2956,-0.1131,0.143,0.2494,0.3439,0.4342,0.0,0.0,0.0,0.0,0.0,0.0,0.0,0.0,0.0,0.0,0.0,0.0,0.0,0.0,0.0,0.0,0.0,0.0,0.0,0.0,0.0,0.0,0.0,0.0,0.0,0.0,0.0,0.0,0.0,0.0,0.0,0.0,0.0,0.0,0.0,0.0,0.0,0.0,0.0,0.0,0.0,0.0,0.0,0.0,0.0,0.0,0.0,0.0,0.0,0.0,-2.6371,-2.7653,-3.1405,-3.3684,-3.5611,-3.874,-3.9955,-4.0973,-4.4155,-4.5435,-4.5662,-4.4938,-4.187,-3.8336,-3.5635,0.0,0.0,0.0,-2.4467,-2.3725,-2.3938,-2.3473,0.0,-2.56,-2.5702,-2.6972,-3.1076,-3.2659,0.0,-3.6589,-3.7471,-3.7558,-3.6663,-3.6236,-3.5575,-3.4575,-3.4301,-3.3662,-3.2436,-2.9178,-2.6574,-2.4936,-2.3327,-2.1865,-2.0623,-2.0139,-1.9276,-1.7974,-1.7035,-1.6114,-1.5163,-1.3719,-1.174,-0.9386,-0.8874,-0.7843,-0.6501,-0.6358,-0.5076,-0.3171,-0.314,-0.1576,0.0808,0.2426,0.322,0.3791,0.0,0.0,0.0,0.0,0.0,0.0,0.0,0.0,-1.524,-1.5967,-1.5933,-1.5544,-1.4825,-1.3939,0.0,0.0,0.0,0.0,0.0,0.0,0.0,0.0,0.0,0.0,0.0,0.0,0.0,-1.78,0.0,0.0,0.0,0.0,0.0,0.0,-2.2014,0.0,0.0,0.0,0.0,0.0,0.0,0.0,0.0,0.0,0.0,0.0,0.0,0.0,0.0,0.0,-2.4897,-2.6285,-2.953,-3.2111,-3.445,-3.6961,-3.8518,-4.0095,-4.3146,-4.4913,-4.5632,-4.4548,-4.1073,-3.7214,-3.4516,-3.0532,0.0,0.0,-2.4479,-2.3934,-2.3577,-2.2734,-2.2619,0.0,-2.3705,-2.4664,-2.9152,-3.0788,-3.2578,0.0,-3.6934,0.0,-3.6362,-3.6271,0.0,-3.4813,-3.4298,-3.3189,-3.1314,-2.8238,-2.6208,-2.5425,-2.3276,-2.1624,-2.0623,-1.9759,-1.8844,-1.7974,-1.7035,-1.6114,-1.5163,-1.4171,-1.2155,-0.9456,-0.9329,-0.8228,-0.6501,-0.6358,-0.5057,-0.3146,-0.3129,-0.1838,0.0235,0.2344,0.3049,0.3277,0.0,0.0,0.0,0.0,0.0,0.0,0.0,0.0,-1.6756,-1.7495,-1.6999,-1.6316,-1.5578,-1.4974,0.0,0.0,0.0,0.0,0.0,0.0,0.0,0.0,0.0,0.0,0.0,0.0,0.0,-1.78,-1.78,0.0,0.0,0.0,0.0,0.0,0.0,-2.1403,-2.1959,0.0,0.0,0.0,0.0,0.0,0.0,0.0,0.0,0.0,0.0,0.0,0.0,0.0,0.0,-2.599,-2.5583,-2.7852,-3.1218,-3.4177,0.0,0.0,-4.1569,-4.4024,-4.536,-4.308,-3.9258,-3.5337,-3.2574,0.0,0.0,-2.4921,-2.486,-2.4607,-2.3671,-2.3408,-2.3438,-2.3814,0.0,-2.4599,-2.714,-2.9649,-3.193,-3.3808,0.0,0.0,-3.7089,-3.7085,-3.6641,-3.557,-3.4244,-3.2637,-3.0693,-2.8501,-2.6721,-2.5453,-2.3781,-2.2164,-2.0623,-1.9759,-1.8844,-1.7974,-1.7035,-1.6114,-1.5163,-1.4171,-1.2094,-0.9327,-0.9306,-0.8228,-0.6501,-0.6358,-0.5145,-0.3341,-0.319,-0.1838,0.0235,0.2344,0.308,0.3387,0.0,0.0,0.0,0.0,0.0,0.0,0.0,-1.5189,-1.5646,-1.6373,-1.6325,-1.6057,-1.5649,-1.5297,0.0,0.0,0.0,0.0,0.0,0.0,0.0,0.0,0.0,0.0,0.0,0.0,0.0,-1.78,-1.78,0.0,0.0,0.0,0.0,0.0,0.0,-2.17,-2.1849,0.0,0.0,0.0,0.0,0.0,0.0,0.0,0.0,0.0,0.0,0.0,0.0,0.0,0.0,0.0,-2.2897,-2.3721,0.0,0.0,-3.3554,-3.6175,-3.9004,-4.1641,-4.3166,-4.1265,-3.7874,-3.4328,-3.1646,0.0,-2.4538,-2.4405,-2.3579,-2.2771,-2.2366,-2.1906,-2.1684,0.0,0.0,0.0,-2.5139,-2.6922,-2.927,-3.2852,-3.4651,0.0,0.0,0.0,-3.5382,-3.374,-3.2722,-3.1501,-2.9922,-2.863,-2.7164,-2.5439,-2.3839,-2.2244,-2.0623,-1.9759,-1.8844,-1.7974,-1.7035,-1.6114,-1.5163,-1.4171,-1.2081,-0.9296,-0.9296,-0.8205,-0.6378,-0.6323,-0.5068,-0.3206,-0.3136,-0.1838,0.0235,0.2344,0.3085,0.3396,0.0,0.0,0.0,0.0,0.0,0.0,-1.4428,-1.4689,-1.5039,-1.5615,-1.5761,-1.578,-1.5702,-1.5364,-1.4896,-1.427,0.0,0.0,0.0,0.0,0.0,0.0,0.0,0.0,0.0,0.0,0.0,-1.78,-1.78,-1.78,0.0,0.0,-1.857,-1.8683,0.0,0.0,0.0,0.0,0.0,0.0,0.0,0.0,0.0,0.0,0.0,0.0,0.0,0.0,0.0,0.0,0.0,0.0,0.0,0.0,0.0,0.0,-2.9953,-3.2756,-3.5345,-3.8098,-3.9847,-3.8281,-3.5435,-3.2379,0.0,0.0,-2.3725,-2.3725,-2.274,-2.1812,-2.1543,-2.1038,-2.077,0.0,0.0,-2.145,-2.3917,-2.5533,-2.7765,0.0,0.0,-3.4875,-3.6307,-3.5454,-3.4129,-3.2492,-3.1588,-3.0535,-2.9205,-2.8639,-2.7555,-2.5783,-2.4173,-2.2554,-2.0928,-1.9835,-1.8844,-1.7974,-1.6749,-1.5825,-1.5163,-1.3882,-1.1977,-0.9744,-0.941,-0.8313,-0.6718,-0.6416,-0.504,-0.3085,-0.3085,-0.1838,0.0235,0.2344,0.3085,0.3396,0.0,0.0,0.0,0.0,0.0,0.0,0.0,-1.5122,-1.5656,-1.5873,-1.574,-1.5683,-1.5883,-1.5237,-1.4845,-1.4992,0.0,0.0,0.0,0.0,0.0,0.0,0.0,0.0,0.0,0.0,0.0,0.0,0.0,-1.78,-1.78,-1.78,-1.81,-1.863,0.0,0.0,0.0,0.0,0.0,0.0,0.0,0.0,0.0,0.0,0.0,0.0,0.0,0.0,0.0,0.0,0.0,0.0,0.0,0.0,0.0,0.0,-2.6063,-2.9129,-3.0426,-3.3215,-3.5393,-3.3844,-3.1448,-2.8994,0.0,0.0,-2.2816,-2.2816,-2.2797,-2.2528,-2.1658,-2.1485,-2.1608,-2.1928,-2.1983,0.0,-2.3805,-2.6293,-2.8247,0.0,0.0,-3.3906,-3.4641,-3.4045,-3.33,-3.2568,-3.1271,-2.9918,-2.8566,-2.8511,-2.7889,-2.6537,-2.494,-2.3326,-2.1711,-2.0084,-1.8844,-1.7974,-1.6123,-1.5199,-1.5128,-1.32,-1.1768,-1.0746,-0.9744,-0.8727,-0.7706,-0.6718,-0.504,-0.3085,-0.3085,-0.1838,0.0235,0.2344,0.3085,0.3396,0.0,0.0,0.0,0.0,0.0,0.0,0.0,0.0,-1.4263,-1.4312,-1.4512,-1.4816,-1.5239,-1.4866,-1.4767,-1.5167,0.0,0.0,0.0,0.0,0.0,0.0,0.0,0.0,0.0,0.0,0.0,0.0,0.0,0.0,0.0,0.0,-1.8358,-1.9353,-1.9678,-2.0217,0.0,0.0,0.0,0.0,0.0,0.0,0.0,0.0,0.0,0.0,0.0,0.0,0.0,0.0,0.0,0.0,0.0,0.0,0.0,0.0,0.0,0.0,-2.8432,-3.0521,-3.1963,-3.0939,-2.9552,-2.779,-2.5303,0.0,-2.1771,-2.1771,-2.1297,-2.0842,-2.0699,-2.0673,-2.0808,-2.1178,-2.187,0.0,0.0,0.0,0.0,-3.0568,-3.3941,-3.5864,0.0,0.0,-3.2743,-3.2512,-3.0398,-2.8967,-2.8527,-2.8116,-2.7469,-2.6537,-2.5522,-2.4019,-2.1992,-2.0465,-1.9233,-1.8296,-1.5881,-1.4889,-1.5128,-1.32,-1.1731,-1.0746,-0.9744,-0.8727,-0.7706,-0.6718,-0.504,-0.3085,-0.3085,-0.1838,0.0235,0.2344,0.3085,0.3511,0.0,0.0,0.0,0.0,0.0,0.0,0.0,0.0,-1.3736,-1.3827,-1.3983,-1.4355,-1.5033,-1.4617,-1.4552,-1.5235,0.0,0.0,0.0,0.0,0.0,0.0,0.0,0.0,0.0,0.0,0.0,0.0,0.0,0.0,0.0,0.0,0.0,0.0,-1.9934,0.0,0.0,0.0,0.0,0.0,0.0,0.0,-1.9297,0.0,0.0,0.0,0.0,0.0,0.0,0.0,0.0,0.0,0.0,0.0,0.0,0.0,-2.1678,-2.3678,0.0,-2.6688,-2.7617,-2.7117,-2.6287,0.0,0.0,-2.1818,-2.0793,-2.0741,-2.0294,-1.9973,-2.0152,-2.0398,-2.0726,-2.123,-2.2086,-2.2907,0.0,0.0,0.0,-3.1597,0.0,0.0,0.0,-3.3768,-3.2659,-3.2177,-2.9917,-2.8415,-2.8165,-2.7545,-2.6982,-2.651,-2.5783,-2.4351,-2.2186,-2.1164,-1.9948,-1.8457,-1.6282,-1.5229,-1.5128,-1.32,-1.1959,-1.1279,-0.9895,-0.8955,0.0,-0.6872,-0.504,-0.3085,-0.3085,-0.1563,0.0824,0.25,0.3357,0.4096,0.0,0.0,0.0,0.0,0.0,0.0,0.0,0.0,0.0,0.0,0.0,-1.4271,-1.5145,-1.446,0.0,0.0,0.0,0.0,0.0,0.0,0.0,0.0,0.0,0.0,0.0,0.0,0.0,-1.78,-1.7111,-1.7179,-1.7969,0.0,0.0,0.0,0.0,0.0,0.0,0.0,0.0,0.0,0.0,0.0,0.0,0.0,0.0,0.0,0.0,0.0,0.0,0.0,0.0,0.0,0.0,0.0,0.0,0.0,0.0,0.0,0.0,-2.2246,0.0,0.0,0.0,0.0,0.0,0.0,0.0,-1.9824,-1.979,-1.986,-2.0059,-2.0592,-2.1255,-2.2029,-2.2704,-2.3449,0.0,-2.6463,0.0,0.0,-3.4376,0.0,-3.4551,-3.3728,-3.2803,-3.1678,-2.9699,-2.8248,-2.763,-2.6904,-2.6481,-2.6438,-2.5672,-2.4313,-2.2352,-2.192,-2.0679,-1.8554,-1.704,-1.5922,-1.5149,-1.3186,-1.2305,-1.2187,-1.0233,-0.9372,-0.9145,-0.7134,-0.5038,-0.3085,-0.3007,-0.1093,0.1723,0.2735,0.3787,0.4996,0.0,0.0,0.0,0.0,0.0,0.0,0.0,0.0,0.0,0.0,0.0,-1.4447,-1.4654,-1.449,0.0,0.0,0.0,0.0,0.0,0.0,0.0,0.0,0.0,0.0,0.0,0.0,0.0,-1.78,-1.7642,-1.8205,-1.949,-1.9344,0.0,0.0,0.0,0.0,0.0,0.0,0.0,0.0,0.0,0.0,0.0,0.0,0.0,0.0,-1.9368,-1.9394,0.0,0.0,0.0,0.0,0.0,0.0,0.0,0.0,-1.9917,-2.0448,-2.0653,0.0,-2.1937,-2.1936,-2.1723,-2.1309,0.0,0.0,0.0,0.0,0.0,0.0,0.0,-2.1081,-2.17,-2.3341,-2.4135,-2.4774,-2.5495,0.0,0.0,-3.3996,-3.5745,-3.6086,-3.4289,-3.2834,-3.191,-3.1622,-2.9277,-2.7764,-2.76,-2.6904,-2.6254,-2.5736,-2.4504,-2.3457,-2.2551,-2.0949,-1.9811,-1.9155,-1.6568,-1.5389,-1.5427,-1.3273,-1.2305,-1.2224,-1.0981,-1.0002,-0.9145,-0.7065,-0.498,-0.3007,-0.2268,-0.0509,0.1723,0.2735,0.3787,0.511,0.0,0.0,0.0,0.0,0.0,0.0,0.0,0.0,0.0,0.0,0.0,0.0,0.0,0.0,0.0,0.0,0.0,0.0,0.0,0.0,0.0,0.0,0.0,0.0,0.0,0.0,0.0,0.0,0.0,-1.7828,0.0,0.0,0.0,0.0,0.0,0.0,0.0,0.0,0.0,0.0,-1.9297,0.0,0.0,0.0,0.0,0.0,-1.9485,-1.955,0.0,-1.9105,-1.9019,-1.9045,0.0,0.0,0.0,0.0,-2.0052,-2.0407,-2.0404,-2.0694,-2.0998,-2.1007,-2.0974,-2.0783,-2.0155,0.0,0.0,0.0,0.0,0.0,0.0,0.0,-2.2327,-2.4219,-2.505,0.0,0.0,0.0,-3.2366,-3.4338,-3.5666,-3.6076,-3.5183,-3.3495,-3.2205,-3.1638,-2.9391,-2.7776,-2.7141,-2.639,-2.5683,-2.4982,-2.3373,-2.2395,-2.2128,-2.1016,-1.9929,-1.8856,-1.7083,-1.578,-1.4863,-1.3349,-1.2459,-1.2075,-1.1187,-1.0228,-0.9145,-0.7053,-0.4974,-0.3007,-0.1996,0.0,0.2347,0.289,0.41,0.5741,0.0,0.0,0.0,0.0,0.0,0.0,0.0,0.0,0.0,0.0,0.0,0.0,0.0,0.0,0.0,0.0,0.0,0.0,0.0,0.0,0.0,0.0,0.0,0.0,0.0,0.0,0.0,0.0,0.0,0.0,0.0,0.0,-2.0493,0.0,0.0,0.0,0.0,0.0,0.0,-1.9279,-1.9199,0.0,0.0,0.0,0.0,0.0,0.0,0.0,0.0,-1.8749,-1.8429,-1.8359,-1.8389,0.0,0.0,0.0,0.0,0.0,-2.0198,-2.0248,-2.0308,-2.0296,-2.0385,-2.0403,-2.0116,0.0,0.0,0.0,0.0,0.0,0.0,-2.2246,0.0,0.0,0.0,0.0,-3.0185,-3.0954,-3.2077,-3.4301,-3.511,-3.5616,-3.5989,-3.4169,-3.2593,-3.1662,-2.9653,-2.7843,-2.6448,-2.567,-2.4886,-2.4072,-2.2306,-2.1402,-2.1472,-2.1207,-2.0153,-1.8357,-1.7703,-1.6278,-1.413,-1.337,-1.2628,-1.1848,-1.1077,-1.0194,-0.9145,-0.6896,-0.482,-0.2968,-0.1643,0.0625,0.3124,0.3279,0.4608,0.6451,0.0,0.0,0.0,0.0,0.0,0.0,0.0,0.0,0.0,0.0,0.0,0.0,0.0,0.0,0.0,0.0,0.0,0.0,0.0,0.0,0.0,0.0,0.0,0.0,0.0,0.0,0.0,0.0,0.0,0.0,-1.9782,-2.1208,-2.1724,0.0,0.0,0.0,-1.9268,-1.868,-1.8777,-1.9257,-1.8687,0.0,0.0,0.0,0.0,0.0,0.0,0.0,0.0,-1.8594,-1.8115,-1.7528,-1.6815,0.0,0.0,0.0,0.0,0.0,-1.9312,-1.9796,-2.0308,-2.0296,-2.0808,-2.1135,-2.0422,0.0,0.0,0.0,0.0,0.0,0.0,-2.4064,-2.4965,0.0,0.0,-3.1572,0.0,0.0,-3.4969,-3.5659,-3.5491,-3.5083,-3.4426,-3.2282,-3.113,-3.1574,-2.9215,-2.7157,-2.5806,-2.5049,-2.4095,-2.2909,-2.154,-2.0833,-2.0839,-1.9695,-1.897,-1.863,-1.6894,-1.5508,-1.4404,-1.3267,-1.2462,-1.1835,-1.0887,-1.0002,-0.9064,-0.6075,-0.4155,-0.281,0.0,0.1917,0.3202,0.4139,0.5237,0.6567,0.0,0.0,0.0,0.0,0.0,0.0,0.0,0.0,0.0,0.0,0.0,0.0,0.0,0.0,0.0,0.0,0.0,0.0,0.0,0.0,0.0,0.0,0.0,0.0,0.0,0.0,0.0,0.0,0.0,-1.9164,-2.0611,-2.1337,-2.1447,-2.1033,0.0,0.0,-1.9286,-1.8967,-1.8807,-1.8758,0.0,0.0,0.0,0.0,0.0,0.0,0.0,0.0,0.0,0.0,-1.7209,-1.6888,-1.6482,0.0,0.0,0.0,0.0,0.0,-1.9121,-1.9697,-2.0195,-1.9722,-2.0235,-2.075,-2.0385,-2.0866,0.0,0.0,0.0,0.0,0.0,0.0,-2.5863,-2.8505,0.0,-3.2588,-3.4822,-3.4237,-3.3875,-3.4618,-3.3952,-3.3588,-3.4053,-3.1923,-3.0491,-3.0482,-2.8367,-2.6451,-2.5066,-2.4378,-2.3537,-2.2524,-2.1333,-2.0517,-2.0098,-1.8771,-1.8124,-1.8097,-1.6792,-1.5536,-1.4317,-1.3452,-1.2817,-1.2262,-1.0955,-0.9927,-0.8961,-0.5876,-0.3962,-0.2682,0.0383,0.2204,0.3318,0.496,0.5867,0.6528,0.0,0.0,0.0,0.0,0.0,0.0,0.0,0.0,0.0,0.0,0.0,0.0,0.0,0.0,0.0,0.0,0.0,0.0,0.0,0.0,0.0,0.0,0.0,0.0,0.0,0.0,-1.7122,-1.851,-1.8599,-1.9567,-2.1309,-2.1111,-2.0726,0.0,0.0,0.0,-1.9077,-1.8896,-1.8765,-1.8653,0.0,0.0,0.0,0.0,0.0,0.0,0.0,0.0,0.0,0.0,0.0,0.0,0.0,0.0,0.0,-1.7087,-1.7908,-1.8613,-1.8754,-1.9393,-1.9848,-1.9174,0.0,-2.0596,-2.0607,-2.1371,0.0,0.0,0.0,0.0,0.0,-2.5195,0.0,-3.0855,-3.2356,-3.329,-3.3978,-3.3409,-3.3146,-3.3688,-3.2661,-3.2408,-3.3694,-3.1627,-2.9989,-2.9332,-2.7625,-2.5923,-2.4393,-2.3722,-2.2966,-2.2049,-2.0884,-2.0087,-1.9646,-1.815,-1.7345,-1.7181,-1.6455,-1.5378,-1.4028,-1.3442,-1.2988,-1.2586,-1.0686,-0.9614,-0.8876,-0.5577,-0.3707,-0.262,0.0638,0.2655,0.399,0.5696,0.63,0.649,0.0,0.0,0.0,0.0,0.0,0.0,0.0,0.0,0.0,0.0,0.0,0.0,0.0,0.0,0.0,0.0,0.0,0.0,0.0,0.0,0.0,0.0,0.0,0.0,0.0,-1.6775,-1.7766,-1.8858,-1.9238,-2.0289,-2.1919,-2.0745,-1.9901,-1.9352,0.0,0.0,-1.8416,-1.7734,-1.8309,-1.9496,-1.7307,0.0,0.0,0.0,0.0,0.0,0.0,0.0,0.0,0.0,0.0,0.0,0.0,0.0,-1.5328,-1.5446,-1.6103,-1.6956,-1.769,-1.8524,-1.9163,-1.9033,-2.0269,-2.1507,-2.1518,-2.2756,0.0,-2.7106,0.0,0.0,0.0,-2.737,-2.8686,-3.259,-3.3859,-3.4976,-3.6748,-3.6256,-3.533,-3.4283,-3.3051,-3.2369,-3.2591,-3.0725,-2.925,-2.8717,-2.7394,-2.5779,-2.3869,-2.3136,-2.2185,-2.0941,-1.976,-1.9346,-1.9771,-1.7833,-1.6578,-1.6013,-1.5278,-1.4477,-1.3615,-1.2831,-1.2569,-1.253,-0.9609,-0.87,-0.8972,-0.4764,-0.3028,-0.2674,0.1258,0.4027,0.5832,0.6168,0.63,0.6567,0.0,0.0,0.0,0.0,0.0,0.0,0.0,0.0,0.0,0.0,0.0,0.0,0.0,0.0,0.0,0.0,0.0,0.0,0.0,0.0,0.0,0.0,0.0,-1.5225,-1.5697,-1.6507,-1.7575,-1.8894,-1.99,-2.0169,-1.9825,-1.966,0.0,0.0,0.0,0.0,-1.7584,-1.7377,-1.7403,-1.753,-1.7065,-1.7293,0.0,0.0,0.0,0.0,0.0,0.0,0.0,0.0,-1.6272,-1.5907,0.0,-1.5192,-1.5204,0.0,-1.5923,-1.6676,-1.6974,-1.8061,-1.8956,-1.8339,-1.9906,0.0,0.0,-2.3314,-2.5155,-2.6022,-2.7138,0.0,0.0,0.0,-2.951,-3.2647,-3.409,-3.514,-3.6058,-3.5248,-3.4288,-3.3546,-3.1678,-3.0451,-3.0509,-2.8742,-2.7337,-2.6716,-2.5834,-2.4865,-2.3703,-2.2346,-2.135,-2.0873,-1.9324,-1.8204,-1.7574,-1.7047,-1.5991,-1.4421,-1.4686,-1.4636,-1.4326,-1.3513,-1.3146,-1.2967,-1.0164,-0.8861,-0.8438,-0.4515,-0.2894,-0.2466,0.1473,0.3897,0.5287,0.6041,0.63,0.6606,0.0,0.0,0.0,0.0,0.0,0.0,0.0,0.0,0.0,0.0,0.0,0.0,0.0,0.0,0.0,0.0,0.0,0.0,0.0,0.0,0.0,0.0,0.0,-1.4981,-1.5678,-1.5889,-1.6959,-1.8894,-1.9992,-1.9861,-1.8632,0.0,0.0,0.0,0.0,0.0,0.0,-1.7207,-1.7103,-1.6701,-1.6955,-1.7419,0.0,0.0,0.0,0.0,0.0,0.0,0.0,0.0,-1.6522,0.0,0.0,0.0,0.0,0.0,-1.5525,-1.5908,-1.6445,-1.7412,-1.8256,-1.814,0.0,0.0,-2.197,-2.4006,-2.6075,-2.7012,-2.8229,-2.9053,-2.8822,0.0,0.0,-3.2068,-3.3758,-3.4802,-3.4913,-3.4226,-3.3301,-3.2214,-3.0437,-2.9123,-2.8711,-2.7354,-2.6134,-2.5275,-2.4647,-2.4014,-2.334,-2.1576,-2.0573,-2.0573,-1.8868,-1.7507,-1.6552,-1.6396,-1.5491,-1.3851,-1.4426,-1.4582,-1.4358,-1.37,-1.3307,-1.3082,-1.0458,-0.8998,-0.8176,-0.4391,-0.2291,-0.1153,0.1908,0.3712,0.4779,0.587,0.63,0.6606,0.0,0.0,0.0,0.0,0.0,0.0,0.0,0.0,0.0,0.0,0.0,0.0,0.0,0.0,0.0,0.0,0.0,0.0,0.0,0.0,0.0,0.0,0.0,-1.4535,-1.5858,-1.4996,-1.5967,-1.8888,-1.9419,-1.9416,-1.886,-1.7537,0.0,0.0,0.0,0.0,0.0,0.0,-1.7554,-1.7603,-1.6814,-1.7487,-1.8876,0.0,0.0,0.0,0.0,0.0,0.0,0.0,-1.6599,-1.5365,0.0,0.0,0.0,-1.5323,-1.4706,-1.4394,-1.6141,-1.6553,-1.6904,0.0,0.0,0.0,-2.2806,-2.4917,-2.7677,-3.109,-3.0714,-2.9693,-2.9444,-2.8686,-2.8837,-3.1029,-3.2958,-3.4047,-3.3727,-3.3667,-3.2774,-3.0376,-2.9599,-2.8747,-2.7405,-2.6775,-2.5958,-2.468,-2.3984,-2.3325,-2.2718,-2.0919,-1.9887,-1.9887,-1.8269,-1.7361,-1.7291,-1.5953,-1.5053,-1.4574,-1.444,-1.4073,-1.35,-1.3102,-1.2889,-1.2665,-1.026,-0.9003,-0.8283,-0.4319,-0.1116,0.1408,0.2619,0.3674,0.4631,0.5838,0.63,0.6606,0.0,0.0,0.0,0.0,0.0,0.0,0.0,0.0,0.0,0.0,0.0,0.0,0.0,0.0,0.0,0.0,0.0,0.0,0.0,0.0,0.0,0.0,0.0,0.0,0.0,0.0,-1.6906,-1.7638,-1.7977,-1.8128,0.0,0.0,0.0,-1.658,0.0,0.0,0.0,0.0,-1.6474,-1.5926,-1.5673,-1.6253,-1.7276,0.0,0.0,0.0,0.0,0.0,0.0,0.0,0.0,0.0,0.0,0.0,0.0,-1.6935,-1.6518,-1.6071,-1.7215,-1.7465,0.0,-1.9503,0.0,0.0,0.0,-2.5335,0.0,0.0,-2.9381,-2.8516,-2.8916,-2.908,-2.9463,-3.0399,-3.1063,-3.161,-3.2012,-3.135,-3.0541,-2.9834,-2.8241,-2.7026,-2.6635,-2.5309,-2.4126,-2.3317,-2.3092,-2.2688,-2.2024,-2.0298,-1.9329,-1.9329,-1.7678,-1.6359,-1.5463,-1.5373,-1.4658,-1.3425,-1.3641,-1.3832,-1.3929,-1.4274,-1.3895,-1.2879,-1.1543,-0.9962,-0.8029,-0.4354,-0.1569,0.0579,0.2371,0.3257,0.3742,0.5605,0.63,0.649,0.0,0.0,0.0,0.0,0.0,0.0,0.0,0.0,0.0,0.0,0.0,0.0,0.0,0.0,0.0,0.0,0.0,0.0,0.0,0.0,0.0,0.0,0.0,0.0,0.0,-1.6622,-1.7409,0.0,0.0,0.0,0.0,0.0,0.0,-1.6922,0.0,-1.7343,0.0,0.0,-1.6484,-1.5715,-1.5715,-1.6022,-1.6548,0.0,0.0,0.0,0.0,0.0,0.0,0.0,0.0,0.0,0.0,0.0,0.0,-1.7259,-1.6543,-1.5766,-1.6628,-1.7064,0.0,-1.9361,-2.0946,-2.2611,-2.4671,0.0,0.0,0.0,-2.896,-2.84,-2.8998,-2.9019,-2.9104,-2.9674,-3.0064,-3.0406,-3.0643,-2.9899,-2.9145,-2.8646,-2.7038,-2.5864,-2.5559,-2.4152,-2.3092,-2.2718,-2.2224,-2.1724,-2.1321,-1.9655,-1.8705,-1.8705,-1.7266,-1.5932,-1.4698,-1.4942,-1.4339,-1.2905,-1.3105,-1.3346,-1.3638,-1.4031,-1.37,-1.2682,-1.0974,-0.863,-0.5853,-0.3691,-0.1496,0.0694,0.2429,0.334,0.3878,0.564,0.63,0.6451,0.0,0.0,0.0,0.0,0.0,0.0,0.0,0.0,0.0,0.0,0.0,0.0,0.0,0.0,0.0,0.0,0.0,0.0,0.0,0.0,0.0,0.0,0.0,0.0,0.0,0.0,0.0,0.0,0.0,0.0,0.0,0.0,-1.7144,-1.7221,0.0,-1.8124,0.0,-1.7505,-1.718,-1.6484,-1.6407,-1.6426,-1.6493,-1.651,0.0,0.0,0.0,0.0,0.0,0.0,0.0,0.0,-1.854,-1.795,-1.6634,-1.6874,-1.5643,-1.4445,-1.5395,-1.6171,-1.7122,-1.8819,-2.1151,0.0,-2.5947,-2.7594,-2.8817,-2.9362,0.0,-2.8795,-2.9253,-2.8459,-2.7993,-2.8668,-2.9321,-2.9591,-2.9226,-2.8733,-2.7967,-2.6871,-2.5831,-2.4948,-2.4286,-2.3244,-2.2583,-2.2523,-2.1395,-2.0673,-2.0598,-1.9055,-1.8165,-1.8106,-1.7118,-1.5986,-1.4789,-1.4721,-1.4118,-1.2968,-1.2803,-1.2761,-1.2869,-1.2868,-1.2642,-1.2059,-0.915,-0.597,-0.2815,-0.2755,-0.117,0.1308,0.2613,0.3636,0.4522,0.5838,0.63,0.6416,0.0,0.0,0.0,0.0,0.0,0.0,0.0,0.0,0.0,0.0,0.0,0.0,0.0,0.0,0.0,0.0,0.0,0.0,0.0,0.0,0.0,0.0,0.0,0.0,0.0,0.0,0.0,0.0,0.0,0.0,0.0,0.0,0.0,-1.9162,0.0,-1.8279,-1.7438,-1.6952,-1.666,-1.6445,-1.5753,-1.5888,-1.6493,-1.651,-1.6109,0.0,0.0,0.0,0.0,0.0,0.0,0.0,-1.8541,-1.7958,-1.6875,-1.8315,-1.7469,-1.6376,-1.7943,-1.8404,0.0,0.0,-2.2921,-2.4942,-2.5337,-2.609,-2.7068,-2.8391,-2.8114,-2.7574,-2.7437,-2.6989,-2.6576,-2.6383,-2.5757,-2.5445,-2.5916,-2.5089,-2.4331,-2.4078,-2.3465,-2.2987,-2.2847,-2.2287,-2.1695,-2.1171,-2.0853,-2.0483,-1.9929,-1.9168,-1.8535,-1.8125,-1.7463,-1.6566,-1.541,-1.4949,-1.4329,-1.36,-1.2526,-1.2227,-1.259,-1.2753,-1.2114,-1.0781,-0.8235,-0.5843,-0.3681,-0.3107,-0.1608,0.0462,0.2375,0.3231,0.3653,0.5571,0.63,0.6338,0.0,0.0,0.0,0.0,0.0,0.0,0.0,0.0,0.0,0.0,0.0,0.0,0.0,0.0,0.0,0.0,0.0,0.0,0.0,0.0,0.0,0.0,0.0,0.0,0.0,0.0,0.0,0.0,0.0,0.0,0.0,0.0,0.0,-2.0417,0.0,-1.9502,-1.8649,-1.7976,-1.7692,-1.7615,-1.6753,-1.6676,-1.7032,-1.6645,-1.626,-1.594,-1.6,0.0,0.0,0.0,0.0,0.0,0.0,0.0,-1.6878,-1.828,-1.7699,-1.6801,-1.7711,0.0,0.0,-2.093,0.0,-2.4934,-2.5535,-2.5564,-2.586,-2.7203,-2.6937,-2.6387,-2.6215,-2.562,-2.5064,-2.4843,-2.41,-2.3699,-2.4075,-2.338,-2.2819,-2.2819,-2.2375,-2.2064,-2.2064,-2.1555,-2.1081,-2.0718,-2.0408,-2.0064,-1.9723,-1.9188,-1.865,-1.8125,-1.7306,-1.6305,-1.5186,-1.4583,-1.3781,-1.2817,-1.1978,-1.1262,-1.0741,-1.1246,-1.0432,-0.8607,-0.7343,-0.5515,-0.3338,-0.2966,-0.1433,0.0772,0.2376,0.3247,0.383,0.5473,0.6078,0.6088,0.0,0.0,0.0,0.0,0.0,0.0,0.0,0.0,0.0,0.0,0.0,0.0,0.0,0.0,0.0,0.0,0.0,0.0,0.0,0.0,0.0,0.0,0.0,0.0,0.0,0.0,0.0,0.0,0.0,0.0,0.0,0.0,0.0,-2.1393,0.0,0.0,-2.0009,-1.9166,-1.888,-1.8923,-1.8042,-1.7795,-1.7844,-1.7029,-1.6777,-1.6747,-1.6066,-1.5845,-1.5965,-1.6777,0.0,0.0,0.0,0.0,-1.7015,-1.7948,-1.7561,-1.6861,-1.7013,0.0,-1.8389,-2.0762,-2.258,0.0,-2.5476,-2.5206,-2.4928,-2.584,-2.5534,-2.5141,-2.523,-2.4281,-2.3506,-2.3506,-2.3043,-2.2701,-2.2701,-2.2258,-2.1926,-2.1926,-2.1595,-2.135,-2.135,-2.0857,-2.0543,-2.0543,-2.0004,-1.9708,-1.9708,-1.9281,-1.8746,-1.8125,-1.7177,-1.6099,-1.488,-1.426,-1.3297,-1.1963,-1.1255,-1.0101,-0.8575,-0.909,-0.837,-0.6687,-0.6527,-0.5132,-0.2904,-0.2771,-0.1289,0.0971,0.2194,0.3209,0.4097,0.5197,0.5692,0.5864,0.0,0.0,0.0,0.0,0.0,0.0,0.0,0.0,0.0,0.0,0.0,0.0,0.0,0.0,0.0,0.0,0.0,0.0,-1.5207,0.0,0.0,-1.7019,-1.7197,0.0,0.0,0.0,0.0,0.0,0.0,0.0,0.0,0.0,0.0,-2.2606,0.0,0.0,0.0,-1.8645,-1.8354,-1.8915,-1.8045,-1.8142,-1.8729,-1.7929,-1.7667,-1.7707,-1.7605,-1.7609,-1.7773,-1.858,-1.8359,0.0,0.0,0.0,-1.7919,-1.8847,-1.8461,-1.7899,0.0,0.0,-1.9039,0.0,-2.1843,-2.2735,0.0,0.0,-2.409,0.0,-2.3764,-2.3647,-2.4112,-2.2948,-2.1908,-2.1908,-2.1214,-2.068,-2.068,-2.0327,-2.0056,-2.0056,-1.9999,-1.9977,-1.9977,-1.9887,-1.9842,-1.9842,-1.9753,-1.9708,-1.9708,-1.9621,-1.9132,-1.8145,-1.7953,-1.7115,-1.5499,-1.4869,-1.3935,-1.2628,-1.0374,-0.8743,-0.7649,-0.688,-0.6608,-0.6654,-0.5914,-0.4897,-0.3768,-0.3015,-0.2013,-0.0777,0.1072,0.2304,0.3229,0.4418,0.5321,0.5983,0.0,0.0,0.0,0.0,0.0,0.0,0.0,0.0,0.0,0.0,0.0,0.0,0.0,0.0,0.0,-1.4937,-1.5097,-1.5174,-1.5092,-1.5076,-1.573,-1.7281,-1.7386,-1.8213,0.0,0.0,0.0,0.0,0.0,0.0,0.0,-2.3045,-2.3298,0.0,0.0,0.0,0.0,0.0,-1.9442,-1.9684,-1.9313,-1.9095,-1.8957,0.0,-1.8224,-1.7904,-1.7864,-1.7904,-1.8047,-1.8379,-1.8242,-1.8025,-1.8359,0.0,0.0,0.0,-1.8898,-1.8528,-1.8354,-1.8209,-1.8272,0.0,-1.9586,-2.0396,-2.1473,-2.2114,-2.2495,-2.2513,-2.2734,-2.291,-2.2928,-2.2017,-2.1181,-2.0911,-2.0348,-1.9965,-1.9965,-1.9803,-1.9584,-1.9281,-1.953,-1.9584,-1.9281,-1.953,-1.9708,-1.9708,-1.9708,-1.9708,-1.9708,-1.9708,-1.9207,-1.8145,-1.7766,-1.6798,-1.5096,-1.4514,-1.3433,-1.1926,-0.9038,-0.7575,-0.734,-0.5918,-0.5513,-0.5939,-0.5462,-0.4751,-0.3982,-0.358,-0.2911,-0.191,-0.0034,0.1225,0.2181,0.3742,0.4921,0.5803,0.0,0.0,0.0,0.0,0.0,0.0,0.0,0.0,0.0,0.0,0.0,0.0,0.0,0.0,0.0,0.0,-1.5287,-1.5584,-1.569,-1.5763,-1.6419,-1.7792,-1.7915,-1.8634,-2.0141,0.0,0.0,0.0,0.0,0.0,-2.2728,-2.3643,-2.4154,0.0,-2.3644,0.0,0.0,0.0,0.0,0.0,0.0,0.0,0.0,0.0,0.0,0.0,0.0,-1.8359,-1.863,-1.8551,-1.8575,-1.8606,-1.8548,-1.854,0.0,0.0,0.0,0.0,0.0,0.0,-1.7824,-1.7439,-1.7841,-1.8596,0.0,0.0,-2.0723,0.0,-2.1486,-2.1878,-2.1485,-2.119,-2.0845,-2.0382,-1.9947,-1.9708,-1.9708,-1.9584,-1.935,-1.8949,-1.9132,-1.9188,-1.893,-1.9262,-1.9548,-1.969,-1.9708,-1.9708,-1.9708,-1.9543,-1.9031,-1.8131,-1.7497,-1.6372,-1.4721,-1.3582,-1.2454,-1.1251,-0.8148,-0.6892,-0.7255,-0.551,-0.4894,-0.5276,-0.5128,-0.474,-0.4271,-0.4038,-0.359,-0.2843,-0.1035,0.02,0.12,0.303,0.4353,0.5297,0.0,0.0,0.0,0.0,0.0,0.0,0.0,0.0,0.0,0.0,0.0,0.0,0.0,-1.4732,-1.4904,-1.4904,-1.5848,-1.6774,-1.7607,-1.7711,-1.8163,-1.9066,-1.9105,0.0,-2.0361,0.0,0.0,0.0,0.0,0.0,-2.1874,-2.2755,-2.3605,-2.4394,-2.4355,-2.3347,-2.1702,0.0,0.0,0.0,0.0,0.0,0.0,0.0,0.0,0.0,0.0,-1.9615,-2.0368,-2.0292,-2.0278,-2.028,-2.0276,-2.0276,-2.0276,0.0,0.0,0.0,0.0,-1.8741,0.0,-1.7468,-1.7659,0.0,0.0,0.0,-1.9041,-1.9028,-1.9637,-2.0014,-1.9609,-2.0337,-2.0845,-2.0382,-1.9947,-1.9708,-1.9708,-1.9262,-1.893,-1.8893,-1.8477,-1.838,-1.8855,-1.893,-1.9151,-1.9657,-1.9708,-1.9708,-1.9708,-1.9091,-1.8542,-1.8118,-1.7444,-1.6331,-1.4721,-1.2205,-1.1072,-1.1251,-0.8296,-0.7038,-0.7255,-0.551,-0.4782,-0.4911,-0.4904,-0.4947,-0.4982,-0.4142,-0.3851,-0.3747,-0.1941,-0.0702,0.0301,0.2239,0.352,0.4429,0.0,0.0,0.0,0.0,0.0,0.0,0.0,0.0,0.0,0.0,0.0,0.0,0.0,-1.6144,-1.6624,-1.6624,-1.7061,-1.7478,-1.7778,-1.7861,-1.8261,-1.9101,-1.918,-1.9589,-2.038,0.0,0.0,0.0,0.0,-2.2831,-2.3415,-2.4294,-2.4292,-2.3544,-2.3026,-2.271,-2.2528,-2.1476,0.0,0.0,0.0,0.0,0.0,0.0,0.0,-1.8427,-1.8921,-1.9708,-2.0481,-2.0366,-2.031,-2.0271,-2.031,-2.028,-2.0221,0.0,0.0,0.0,0.0,0.0,0.0,-1.7495,-1.6706,-1.6283,-1.6741,-1.668,-1.6775,-1.7688,-1.8329,-1.8719,-1.8749,-1.9732,-2.0414,-1.9982,-1.9439,-1.9211,-1.9648,-1.8874,-1.8284,-1.8396,-1.8224,-1.8012,-1.7777,-1.8442,-1.8939,-1.9041,-1.9061,-1.9061,-1.9061,-1.8416,-1.7867,-1.746,-1.685,-1.5542,-1.3514,-1.1697,-1.0411,-0.9607,-0.7639,-0.6517,-0.6103,-0.5069,-0.4604,-0.4655,-0.4655,-0.4765,-0.4941,-0.4741,-0.4676,-0.4534,-0.2856,-0.1636,-0.0534,0.1892,0.3472,0.4517,0.0,0.0,0.0,0.0,0.0,0.0,0.0,0.0,0.0,0.0,0.0,0.0,0.0,0.0,-1.7745,-1.8064,-1.8213,-1.8387,-1.8669,-1.8707,-1.8982,-1.9506,-1.959,-1.9857,-2.0381,0.0,0.0,0.0,0.0,0.0,0.0,-2.4606,-2.4553,-2.3452,-2.2356,-2.1991,0.0,0.0,0.0,-2.0241,0.0,0.0,-1.8639,0.0,-1.8651,-1.9199,-1.9135,-1.9675,-2.0324,-1.9641,-1.9017,-1.8685,-1.9577,-1.996,0.0,0.0,0.0,0.0,-1.9437,0.0,0.0,0.0,-1.675,-1.591,-1.5712,-1.5332,-1.5266,-1.6091,-1.6789,-1.7379,-1.7761,-1.8696,-1.9346,-1.9069,-1.8657,-1.8529,-1.9028,-1.8252,-1.7609,-1.7572,-1.7565,-1.7316,-1.6693,-1.7833,-1.8496,-1.818,-1.8499,-1.8612,-1.8371,-1.7938,-1.7432,-1.6818,-1.6076,-1.4766,-1.2812,-1.1474,-1.022,-0.9058,-0.7379,-0.634,-0.5842,-0.4924,-0.4491,-0.4491,-0.4491,-0.4634,-0.4853,-0.4968,-0.5056,-0.4951,-0.3341,-0.2306,-0.14,0.1603,0.3219,0.4064,0.0,0.0,0.0,0.0,0.0,0.0,0.0,0.0,0.0,0.0,0.0,0.0,0.0,0.0,0.0,-1.9087,-1.9239,-1.9609,-2.039,-2.0435,-2.0443,-2.0459,-2.0443,-2.0426,-2.0424,0.0,0.0,0.0,0.0,0.0,0.0,0.0,-2.4265,-2.423,-2.2609,-2.1348,-2.0496,0.0,-2.1204,-2.0288,0.0,-1.9687,-2.0308,-1.9473,-2.0236,-2.149,-1.9729,-1.9596,-2.0008,-1.8307,-1.6647,-1.5725,-1.8246,0.0,0.0,0.0,0.0,0.0,0.0,0.0,0.0,0.0,0.0,0.0,-1.4967,0.0,-1.4601,-1.4267,-1.5012,-1.5904,-1.6517,-1.7159,-1.7608,-1.7654,-1.7669,-1.7728,-1.7859,-1.7408,-1.6908,-1.6512,-1.6453,-1.626,-1.5732,-1.7131,-1.781,-1.7112,-1.8079,-1.8401,-1.7743,-1.7696,-1.7214,-1.6179,-1.5223,-1.4075,-1.2749,-1.1449,-1.044,-0.9684,-0.7593,-0.6588,-0.648,-0.5117,-0.4491,-0.4491,-0.446,-0.4545,-0.4697,-0.485,-0.4965,-0.4912,-0.3304,-0.2676,-0.2207,0.1369,0.2713,0.2997,0.0,0.0,0.0,0.0,0.0,0.0,0.0,0.0,0.0,0.0,0.0,0.0,0.0,0.0,0.0,-2.0942,-2.1,-2.1108,-2.1323,-2.1296,-2.1462,-2.1899,-2.1506,-2.1198,-2.1058,0.0,0.0,0.0,0.0,0.0,0.0,0.0,0.0,0.0,-2.3774,-2.2766,-2.1325,-2.1053,0.0,-2.1268,-1.9799,-1.9706,-2.0305,-1.8828,-1.8955,-1.9852,-1.9292,-1.9245,-1.9353,-1.8811,-1.8166,-1.7818,-1.9161,0.0,0.0,0.0,0.0,0.0,-1.979,0.0,0.0,0.0,0.0,0.0,-1.6236,0.0,-1.454,-1.3968,-1.3916,-1.4188,-1.4833,-1.5125,-1.5492,-1.6204,-1.6697,-1.7061,-1.7296,-1.6435,-1.5832,-1.5918,-1.5588,-1.5254,-1.5007,-1.6518,-1.7202,-1.643,-1.7827,-1.8401,-1.7743,-1.7421,-1.6548,-1.5032,-1.4786,-1.3632,-1.1374,-1.099,-0.9673,-0.7492,-0.688,-0.6073,-0.5062,-0.468,-0.4491,-0.446,-0.3873,-0.3978,-0.4566,-0.4691,-0.4477,-0.3928,-0.2925,-0.2205,-0.1339,0.1605,0.2816,0.3229,0.0,0.0,0.0,0.0,0.0,0.0,0.0,0.0,0.0,0.0,0.0,0.0,0.0,0.0,0.0,-2.2235,-2.2246,-2.218,-2.2084,-2.2011,-2.2096,-2.2361,-2.2036,-2.1838,0.0,0.0,0.0,0.0,0.0,0.0,0.0,0.0,0.0,0.0,0.0,0.0,0.0,0.0,0.0,0.0,-1.9881,-2.0158,-2.1352,-1.9238,-1.9417,-2.0632,-1.9503,-1.9538,-1.9883,-1.8432,-1.8001,-1.8039,-1.7794,0.0,0.0,0.0,0.0,0.0,0.0,0.0,0.0,0.0,0.0,0.0,-1.5638,-1.4562,-1.3521,-1.1968,-1.1974,-1.2519,-1.343,-1.4085,-1.4783,-1.5665,-1.6099,-1.6334,-1.6365,-1.5739,-1.5229,-1.5042,-1.4942,-1.4676,-1.4132,-1.5631,-1.6306,-1.5497,-1.7046,-1.7954,-1.7785,-1.7345,-1.6435,-1.4967,-1.4766,-1.3433,-1.0838,-1.0788,-0.9544,-0.7047,-0.675,-0.6014,-0.4893,-0.4625,-0.4491,-0.446,-0.3649,-0.3763,-0.4467,-0.39,-0.3629,-0.3482,-0.2434,-0.1507,-0.0461,0.183,0.3333,0.4404,0.0,0.0,0.0,0.0,0.0,0.0,0.0,0.0,0.0,0.0,0.0,0.0,0.0,0.0,0.0,0.0,-2.3116,-2.2994,-2.2751,-2.2666,0.0,0.0,-2.2376,-2.2425,0.0,0.0,0.0,0.0,0.0,0.0,0.0,0.0,0.0,0.0,0.0,0.0,0.0,0.0,0.0,-2.1711,-2.0018,-2.0847,-2.2825,-2.0287,-2.0734,-2.2401,-2.0065,-2.007,-2.0734,-1.773,-1.7118,-1.7339,-1.5838,-1.7313,-1.9596,-1.9616,-1.9459,0.0,0.0,0.0,0.0,0.0,-1.8941,0.0,-1.4519,-1.3591,-1.2687,-0.9962,-1.0366,-1.1514,-1.2585,-1.3871,-1.4979,-1.5679,-1.5799,-1.5668,-1.5269,-1.5252,-1.4965,-1.4092,-1.4462,-1.4374,-1.3303,-1.4657,-1.5278,-1.4488,-1.6023,-1.7239,-1.7801,-1.738,-1.6598,-1.5448,-1.4937,-1.3433,-1.0838,-1.0788,-0.9706,-0.7563,-0.6912,-0.6177,-0.5378,-0.4759,-0.4491,-0.446,-0.3566,-0.3622,-0.4239,-0.2631,-0.2546,-0.3296,-0.1836,-0.0754,0.0226,0.2021,0.3878,0.5638,0.0,0.0,0.0,0.0,0.0,0.0,0.0,0.0,0.0,0.0,0.0,0.0,0.0,0.0,0.0,0.0,0.0,-2.3698,0.0,0.0,0.0,-2.403,-2.3525,-2.3189,0.0,0.0,0.0,0.0,0.0,0.0,0.0,0.0,0.0,0.0,0.0,0.0,0.0,0.0,0.0,-2.2689,-2.093,-2.1399,-2.2881,-2.0854,-2.0385,-2.0751,-2.0246,-1.9761,-1.9183,-1.8262,-1.8116,-1.8381,-1.8704,-1.9176,-1.9616,-1.9726,-1.9545,0.0,0.0,0.0,0.0,-1.9215,-1.9727,0.0,-1.7054,-1.6697,-1.6216,-1.3744,-1.3422,-1.3697,-1.3918,-1.4193,-1.4699,-1.5651,-1.5799,-1.5522,-1.4765,-1.4935,-1.4713,-1.3522,-1.3801,-1.3861,-1.3257,-1.4276,-1.4711,-1.4056,-1.5534,-1.6743,-1.7377,-1.7323,-1.6511,-1.4903,-1.4744,-1.3433,-1.0838,-1.0788,-0.9459,-0.6804,-0.6669,-0.5937,-0.4677,-0.457,-0.4491,-0.4436,-0.301,-0.2843,-0.3378,-0.1294,-0.1245,-0.2378,-0.1491,-0.0675,0.0234,0.2039,0.3107,0.3837,0.0,0.0,0.0,0.0,0.0,0.0,0.0,0.0,0.0,0.0,0.0,0.0,0.0,0.0,0.0,0.0,0.0,0.0,0.0,0.0,-2.4105,-2.4338,-2.4028,-2.3855,-2.3855,-2.3089,0.0,0.0,0.0,0.0,0.0,0.0,0.0,0.0,0.0,0.0,0.0,0.0,-2.3997,-2.3462,-2.1392,-2.1319,-2.2204,-1.9955,-1.9601,-2.0237,-1.9731,-1.9168,-1.8674,-1.8877,-1.9033,-1.9151,-1.9192,-1.9651,-2.0153,-1.9881,-1.956,-1.9297,-1.9297,-1.9583,-1.9839,-1.9605,-1.9646,0.0,0.0,-1.6359,-1.5517,-1.3225,-1.3052,-1.3438,-1.3875,-1.4551,-1.5138,-1.5419,-1.5727,-1.5602,-1.4637,-1.4674,-1.4406,-1.3323,-1.3615,-1.3719,-1.325,-1.3908,-1.4491,-1.4769,-1.5737,-1.6477,-1.6877,-1.6873,-1.6074,-1.4362,-1.4278,-1.3134,-1.0813,-1.0788,-0.9382,-0.6588,-0.6588,-0.5855,-0.4491,-0.4491,-0.4491,-0.4405,-0.2871,-0.2619,-0.3125,-0.0911,-0.0643,-0.1567,-0.084,-0.0064,0.0824,0.22,0.343,0.4645,-1.8261,0.0,0.0,0.0,0.0,0.0,0.0,0.0,0.0,0.0,0.0,0.0,0.0,0.0,0.0,0.0,0.0,0.0,0.0,0.0,0.0,0.0,-2.419,-2.4275,-2.4435,-2.3751,0.0,0.0,0.0,0.0,0.0,0.0,0.0,0.0,0.0,0.0,0.0,0.0,0.0,-2.37,-2.1639,-2.1393,-2.1989,-1.9523,-1.9375,-2.0352,-1.933,-1.8847,-1.8825,-1.9529,-1.9875,-1.99,-1.941,-1.997,-2.0721,-2.0346,-1.9892,-1.9572,-1.9738,-1.9845,-1.9975,-2.0264,-1.9759,-1.8696,0.0,0.0,0.0,-1.2679,-1.2702,-1.3288,-1.3978,-1.5035,-1.5609,-1.5036,-1.548,-1.551,-1.4373,-1.4371,-1.4246,-1.3531,-1.3852,-1.395,-1.348,-1.3907,-1.4616,-1.5615,-1.61,-1.6425,-1.6645,-1.6324,-1.5483,-1.4093,-1.3692,-1.2599,-1.0813,-1.0526,-0.9122,-0.6588,-0.6453,-0.5714,-0.4491,-0.4491,-0.4405,-0.4184,-0.2815,-0.2454,-0.273,-0.0783,-0.0343,-0.0827,-0.0218,0.0415,0.1162,0.2076,0.363,0.5433,-1.9198,-1.9001,0.0,0.0,0.0,0.0,0.0,0.0,0.0,0.0,0.0,0.0,0.0,0.0,0.0,0.0,0.0,0.0,-2.479,-2.4435,0.0,0.0,-2.419,-2.4209,-2.4237,-2.4136,-2.4183,0.0,0.0,0.0,0.0,0.0,0.0,0.0,-2.4509,0.0,0.0,0.0,-2.3636,-2.2707,-2.1898,-2.252,-2.3728,-2.181,-2.112,-2.1042,-1.9907,-1.948,-1.957,-2.0191,-2.0522,-2.0795,-2.1429,-2.1231,-2.0935,-2.1552,-2.1084,-2.0529,-2.1317,-2.1817,-2.1988,-2.1327,-2.1206,-2.0766,-1.8909,0.0,-1.7613,-1.6404,0.0,-1.5883,-1.5984,0.0,0.0,-1.4543,-1.4862,-1.4747,-1.336,-1.394,-1.4454,-1.4358,-1.4705,-1.4799,-1.439,-1.4935,-1.5425,-1.5678,-1.6173,-1.6698,-1.718,-1.5907,-1.4981,-1.4631,-1.3091,-1.1808,-1.0813,-0.9563,-0.8159,-0.6588,-0.5928,-0.5218,-0.4491,-0.4491,-0.4098,-0.34,-0.2565,-0.187,-0.1284,-0.0364,-0.0057,-0.0118,-0.003,0.0062,0.0258,0.1132,0.2275,0.3541,-2.071,-2.066,0.0,0.0,0.0,0.0,0.0,0.0,0.0,0.0,0.0,0.0,0.0,-2.5204,-2.5139,-2.5288,-2.4814,-2.4594,-2.479,-2.4409,0.0,0.0,-2.419,-2.419,-2.419,-2.419,-2.4247,0.0,-2.433,0.0,0.0,0.0,0.0,0.0,-2.4207,0.0,-2.364,0.0,-2.3807,-2.3269,-2.3018,-2.3343,-2.3697,-2.1081,-2.0235,-2.0356,-1.98,-1.9527,-1.9457,-1.9724,-2.0555,-2.1477,-2.1332,-2.1609,-2.1929,-2.176,-2.1225,-2.0745,-2.1123,-2.1356,-2.1505,-2.1425,-2.1156,-2.0785,-2.0306,-1.942,-1.8618,-1.8362,0.0,0.0,0.0,0.0,0.0,0.0,-1.5181,-1.4918,-1.3693,-1.3891,-1.4149,-1.4149,-1.4517,-1.4596,-1.4181,-1.4411,-1.4887,-1.5646,-1.6111,-1.6369,-1.6322,-1.5675,-1.4533,-1.2905,-1.2241,-1.1308,-0.9997,-0.9123,-0.8,-0.6588,-0.5846,-0.4913,-0.3873,-0.3873,-0.3428,-0.2619,-0.187,-0.1396,-0.1034,-0.0308,0.0,0.0,0.0,0.0,0.0097,0.0969,0.2002,0.3136,-2.2284,0.0,0.0,0.0,0.0,0.0,0.0,0.0,0.0,0.0,0.0,-2.5348,-2.5303,-2.5079,-2.5,-2.5154,-2.4704,-2.4503,-2.4708,-2.4393,-2.419,-2.419,-2.419,-2.419,-2.419,-2.419,-2.419,0.0,0.0,0.0,0.0,0.0,0.0,0.0,0.0,-2.3579,-2.2875,0.0,-2.3431,-2.3001,-2.2797,-2.259,-2.2213,-2.0293,-1.9631,-1.9719,-1.9564,-1.9416,-1.937,-1.9829,-2.0748,-2.166,-2.161,-2.1862,-2.2135,-2.2007,-2.1422,-2.0922,-2.1346,-2.1385,-2.14,-2.1742,-2.1221,-2.0695,-2.0958,-1.9987,-1.9073,-1.9206,-1.8003,0.0,0.0,0.0,0.0,0.0,0.0,-1.5037,-1.3687,-1.3726,-1.395,-1.4052,-1.4326,-1.439,-1.4084,-1.4232,-1.4654,-1.5402,-1.6005,-1.6206,-1.5855,-1.5368,-1.4204,-1.2158,-1.1605,-1.0763,-0.9512,-0.8586,-0.7608,-0.6588,-0.546,-0.4388,-0.3372,-0.3151,-0.2649,-0.187,-0.134,-0.0978,-0.0755,-0.0224,0.0,0.0,0.0,0.0,0.0064,0.0712,0.1814,0.3054,-2.3822,-2.3408,0.0,0.0,0.0,0.0,0.0,0.0,0.0,-2.5391,-2.5178,-2.5028,-2.5003,-2.4723,-2.4599,-2.4804,-2.4435,-2.4294,-2.4495,-2.4321,-2.419,-2.419,-2.419,-2.419,-2.419,-2.419,-2.419,-2.419,0.0,0.0,0.0,0.0,0.0,0.0,-2.4093,-2.3689,-2.3431,-2.2869,-2.2053,-2.1029,-2.0249,-1.9539,-1.9093,-2.0295,-2.0277,-1.9576,-1.9372,-1.9305,-1.9554,-2.117,-2.1332,-2.1161,-2.3026,-2.2218,-2.0916,-2.2646,-2.2078,-2.1217,-2.2711,-2.2902,-2.2638,-2.2673,-2.191,-2.1059,-2.0624,-1.992,-1.9288,-1.8895,-1.7993,-1.7464,-1.8084,0.0,0.0,0.0,0.0,0.0,0.0,-1.3282,-1.4035,-1.4438,-1.4485,-1.4485,-1.4485,-1.5059,-1.5267,-1.4857,-1.5856,-1.6486,-1.6461,-1.4995,-1.3983,-1.3642,-1.1423,-1.0098,-0.9799,-0.772,-0.6642,-0.6588,-0.447,-0.34,-0.3287,-0.2565,-0.1842,-0.1146,-0.1118,-0.0699,-0.0028,0.0,0.0,0.0,0.0,0.0,0.0,0.0033,0.1323,0.3096,0.0,0.0,0.0,0.0,-2.4985,-2.5082,-2.5325,-2.5221,-2.5116,-2.5126,-2.5529,-2.5552,-2.4946,-2.5107,-2.5157,-2.4839,-2.4426,-2.4284,-2.4486,-2.4312,-2.419,-2.419,-2.419,-2.419,-2.419,-2.419,-2.4094,-2.3876,0.0,0.0,0.0,0.0,0.0,0.0,0.0,-2.331,0.0,0.0,0.0,-2.085,-2.0569,-2.0253,-1.9922,-1.9987,-1.9899,-1.9745,-1.9813,-1.9529,-1.9321,-2.0682,-2.1007,-2.1075,-2.2207,-2.2282,-2.2081,-2.269,-2.2366,-2.1932,-2.246,-2.2517,-2.244,-2.244,-2.1959,-2.1412,-2.1264,-2.0441,-1.956,-1.8991,-1.8354,-1.796,-1.8161,0.0,0.0,0.0,0.0,0.0,0.0,-1.3226,-1.3598,-1.4052,-1.41,-1.3983,-1.3682,-1.312,-1.3354,-1.4694,-1.4409,-1.4698,-1.5838,-1.5018,-1.3751,-1.2165,-1.1137,-1.0042,-0.8885,-0.7365,-0.6357,-0.5842,-0.4134,-0.2815,-0.1842,-0.1591,-0.1062,-0.0364,-0.0373,-0.0229,0.0,0.0,0.0,0.0,0.0,0.0,0.0096,0.0795,0.1934,0.3289,-2.4669,0.0,0.0,-2.5147,-2.5192,-2.5163,-2.5138,-2.5005,-2.4936,-2.4936,-2.5319,-2.5378,-2.4764,-2.4988,-2.5021,-2.4623,-2.4339,-2.4266,-2.4384,-2.4266,-2.419,-2.419,-2.419,-2.419,-2.419,-2.419,-2.4094,-2.3886,-2.4094,-2.4094,0.0,0.0,0.0,0.0,0.0,-2.3288,-2.2029,-2.2287,-2.1601,-2.0362,-2.0299,-2.0404,-2.0541,-1.9984,-2.0015,-2.0278,-1.9863,-1.9507,-1.9415,-2.0483,-2.0661,-2.0679,-2.1879,-2.2068,-2.1982,-2.2418,-2.2248,-2.1972,-2.2243,-2.2296,-2.2268,-2.2092,-2.1823,-2.1521,-2.1212,-2.0575,-1.9878,-1.9296,-1.8763,-1.8324,-1.8195,0.0,0.0,0.0,0.0,0.0,0.0,-1.2943,-1.3,-1.3135,-1.3437,-1.3518,-1.3199,-1.2326,-1.232,-1.3637,-1.3344,-1.3586,-1.4683,-1.4322,-1.3267,-1.1491,-1.0797,-0.9702,-0.8159,-0.7105,-0.6217,-0.5485,-0.3746,-0.2397,-0.148,-0.095,-0.0448,0.0,0.0,0.0,0.0,0.0,0.0,0.0,0.0,0.0189,0.0554,0.1307,0.2462,0.3933,-2.4731,-2.4775,-2.4775,-2.4775,-2.4782,-2.479,-2.4797,-2.479,-2.479,-2.479,-2.4653,-2.4532,-2.4486,-2.4358,-2.4245,-2.419,-2.419,-2.419,-2.419,-2.419,-2.419,-2.419,-2.419,-2.419,-2.419,-2.419,-2.418,-2.4151,-2.418,0.0,0.0,0.0,0.0,0.0,-2.4419,0.0,-2.1815,-2.1958,-2.1082,-1.9636,-1.9483,-2.0011,-2.083,-2.0335,-2.0667,-2.1171,-1.9669,-1.9395,-1.987,-2.0686,-2.0446,-2.0114,-2.2064,-2.1663,-2.0737,-2.1939,-2.1803,-2.141,-2.2124,-2.2282,-2.2149,-2.1703,-2.1567,-2.1321,-2.05,-2.028,-2.0143,-1.9737,-1.9148,-1.8577,-1.8167,-1.7989,0.0,0.0,0.0,0.0,0.0,0.0,-1.233,-1.1881,-1.2591,-1.3109,-1.3039,-1.2617,-1.2182,-1.1829,-1.2631,-1.3158,-1.3197,-1.3,-1.2553,-1.1791,-1.0518,-0.9183,-0.783,-0.6993,-0.6226,-0.5483,-0.3252,-0.2174,-0.2093,-0.0643,0.0,0.0,0.0,0.0,0.0,0.0,0.0,0.0,0.0,0.0568,0.1408,0.1663,0.3035,0.4924,-2.4339,-2.4348,-2.4348,-2.4348,-2.4478,-2.4623,-2.4775,-2.467,-2.4586,-2.4586,-2.5042,-2.5105,-2.4367,-2.4771,-2.4842,-2.4245,-2.419,-2.419,-2.419,-2.419,-2.419,-2.419,-2.419,-2.419,-2.419,-2.419,-2.3966,-2.3466,-2.3966,0.0,-2.3459,0.0,0.0,0.0,0.0,-2.2487,-1.9225,-2.1187,-2.1324,-2.0326,-2.0911,-2.1524,-2.1997,-2.1276,-2.1555,-2.2205,-2.1214,-2.0581,-2.0402,-2.1541,-2.1443,-2.1002,-2.2068,-2.2129,-2.1868,-2.2206,-2.2175,-2.2073,-2.2245,-2.2063,-2.1749,-2.1643,-2.1102,-2.0583,-2.0348,-2.007,-1.9685,-1.9079,-1.8897,-1.8666,-1.8047,-1.8002,0.0,0.0,0.0,0.0,0.0,-1.2508,-1.244,-1.2267,-1.2191,-1.2144,-1.2151,-1.0905,-1.0592,-1.1714,-1.1208,-1.1537,-1.3118,-1.3049,-1.2843,-1.2541,-1.1224,-1.0133,-0.9261,-0.7492,-0.6217,-0.5481,-0.3247,-0.1925,-0.1341,-0.042,0.0,0.0,0.0,0.0,0.0,0.0,0.0,0.0,0.0,0.1065,0.2722,0.349,0.4643,0.5944,-2.419,-2.4493,-2.4622,-2.4263,-2.4874,-2.5347,-2.5098,-2.4677,-2.4496,-2.4847,-2.4986,-2.4838,-2.4264,-2.4603,-2.4695,-2.4245,-2.419,-2.419,-2.419,-2.419,-2.419,-2.419,-2.419,-2.419,-2.419,-2.419,-2.4016,-2.3649,-2.3876,0.0,-2.3649,0.0,0.0,0.0,0.0,-2.2835,-2.0317,-2.1277,-2.1452,-2.109,-2.1279,-2.1816,0.0,-2.1676,-2.192,-2.263,-2.2043,-2.1379,-2.0853,-2.1586,-2.1546,-2.1326,-2.2073,-2.2296,-2.2296,-2.2296,-2.2296,-2.2268,-2.2046,-2.1794,-2.1506,-2.1134,-2.065,-2.0246,-2.0072,-1.9856,-1.9588,-1.9211,-1.9013,-1.8635,-1.7784,-1.7691,-1.7323,0.0,0.0,0.0,0.0,-1.2318,-1.2096,-1.1809,-1.1405,-1.1142,-1.1142,-1.0492,-1.0353,-1.1079,-1.0893,-1.1268,-1.2436,-1.2508,-1.2343,-1.1941,-1.068,-0.9506,-0.8415,-0.6969,-0.5843,-0.5035,-0.3475,-0.2313,-0.1563,-0.0811,-0.0314,0.0,0.0,0.0,0.0,0.0,0.0,0.0099,0.0932,0.2007,0.3274,0.4663,0.5635,0.6377,-2.4483,-2.5081,-2.5338,-2.463,-2.5676,-2.6355,-2.5668,-2.4879,-2.4622,-2.5301,-2.4695,-2.419,-2.419,-2.419,-2.419,-2.419,-2.419,-2.419,-2.419,-2.419,-2.419,-2.419,-2.419,-2.419,-2.419,-2.419,-2.4161,-2.4074,-2.3816,0.0,0.0,0.0,0.0,0.0,0.0,0.0,0.0,-2.1474,-2.1277,-2.178,-2.1301,-2.1672,-2.2464,-2.1883,-2.2065,-2.2625,-2.2388,-2.1887,-2.1343,-2.1343,-2.1343,-2.1461,-2.2107,-2.2296,-2.2296,-2.2296,-2.2268,-2.212,-2.1703,-2.1521,-2.1243,-2.05,-2.0263,-2.0124,-1.9782,-1.9708,-1.969,-1.9603,-1.9169,-1.8494,-1.7491,-1.7236,-1.6705,0.0,0.0,-1.4442,-1.2823,-1.2242,-1.1759,-1.114,-1.0646,0.0,-1.0371,-1.0699,-1.0745,-1.0322,-1.1113,-1.1573,-1.1458,-1.1698,-1.146,-1.0687,-0.9548,-0.8248,-0.6805,-0.6098,-0.5397,-0.4685,-0.3805,-0.3037,-0.2343,-0.148,-0.0742,-0.0148,-0.0031,0.0,0.0,0.0,0.0,0.0203,0.2134,0.297,0.335,0.5279,0.6184,0.6602,-2.6043,-2.63,-2.6355,-2.6209,-2.64,-2.6547,-2.641,-2.5705,-2.5246,-2.5374,-2.4695,-2.419,-2.419,-2.419,-2.419,-2.419,-2.419,-2.419,-2.419,-2.419,-2.419,-2.419,-2.419,-2.419,-2.419,-2.419,-2.3927,-2.338,-2.3588,0.0,0.0,0.0,0.0,0.0,0.0,0.0,-2.2031,-1.9838,-2.0088,-2.2013,-2.2557,-2.274,-2.2656,-2.2525,-2.243,-2.236,-2.2324,-2.2212,-2.2124,-2.2124,-2.2124,-2.2141,-2.2245,-2.2296,-2.2296,-2.2296,-2.2032,-2.1703,-2.1612,-2.1086,-2.05,-2.0348,-2.0037,-1.9782,-1.9726,-1.9708,-1.9566,-1.9132,-1.8612,-1.8045,-1.7411,-1.6949,-1.6401,-1.5676,-1.5563,-1.4983,-1.3314,-1.3013,-1.2586,-1.1605,-1.0931,-1.0606,-1.0769,-1.0577,-1.04,-1.0303,-1.0816,-1.1025,-1.0801,-1.1176,-1.0942,-0.9921,-0.9164,-0.8463,-0.7833,-0.6304,-0.5619,-0.5715,-0.4087,-0.3262,-0.3148,-0.173,-0.104,-0.0886,-0.0277,0.0,0.0,0.0,0.0,0.0169,0.2022,0.2887,0.3306,0.5177,0.6567,0.7553,-2.6612,-2.6943,-2.709,-2.6657,-2.7111,-2.7263,-2.6449,-2.5983,-2.5644,-2.5428,-2.4695,-2.419,-2.419,-2.419,-2.419,-2.419,-2.419,-2.4132,-2.3947,-2.3937,-2.3847,-2.3692,-2.3682,-2.3682,-2.3682,-2.3682,-2.3533,-2.32,-2.3177,0.0,0.0,0.0,0.0,0.0,0.0,-2.2994,0.0,-2.1196,-2.1388,-2.2629,-2.2705,-2.2717,-2.2682,-2.255,-2.2412,-2.2296,-2.2296,-2.2296,-2.2296,-2.2296,-2.2296,-2.2296,-2.2296,-2.2135,-2.1928,-2.1928,-2.1628,-2.1244,-2.0991,-2.0617,-2.0246,-2.0052,-1.9839,-1.9708,-1.9708,-1.9479,-1.9207,-1.8949,-1.8263,-1.7524,-1.6972,-1.668,-1.6312,-1.5781,-1.5447,-1.4847,-1.3761,-1.3106,-1.2352,-1.1348,-1.0711,-1.0251,-0.9989,-0.9663,-0.9578,-0.9863,-1.0442,-1.0599,-1.0154,-1.0711,-1.0644,-0.9787,-0.9177,-0.8373,-0.7325,-0.6202,-0.551,-0.5222,-0.4328,-0.3735,-0.3317,-0.2186,-0.1471,-0.1047,-0.0314,0.0,0.0,0.0,0.0269,0.0808,0.2318,0.3299,0.4003,0.5492,0.6806,0.7859,-2.7714,-2.7989,-2.8077,-2.7368,-2.7876,-2.7853,-2.6231,-2.5931,-2.5756,-2.5361,-2.4656,-2.419,-2.419,-2.4141,-2.4094,-2.4094,-2.4026,-2.3886,-2.3599,-2.3588,-2.3488,-2.32,-2.32,-2.32,-2.32,-2.32,-2.3165,-2.3093,-2.2835,-2.2797,0.0,0.0,0.0,0.0,0.0,-2.3002,-2.2989,-2.2725,-2.2764,-2.2982,-2.2494,-2.2368,-2.2445,-2.2229,-2.2092,-2.2034,-2.212,-2.2149,-2.2149,-2.2149,-2.2209,-2.2282,-2.218,-2.1899,-2.1582,-2.1491,-2.1181,-2.0764,-2.0399,-2.0229,-2.0089,-1.9782,-1.9708,-1.9672,-1.9566,-1.9207,-1.8836,-1.8612,-1.7807,-1.6993,-1.6573,-1.6402,-1.6166,-1.5744,-1.5175,-1.4598,-1.4032,-1.3172,-1.2188,-1.1023,-1.052,-0.9891,-0.8952,-0.8832,-0.8875,-0.9077,-0.9831,-1.0048,-0.9512,-1.0116,-1.0056,-0.915,-0.8702,-0.7759,-0.6258,-0.5769,-0.5203,-0.4586,-0.4522,-0.4181,-0.3541,-0.2828,-0.2058,-0.1294,-0.0573,-0.0164,0.0,0.0202,0.0708,0.1494,0.278,0.3819,0.4694,0.578,0.7,0.8237,-3.0815,-3.0411,-2.9838,-2.9404,-2.8807,-2.7759,-2.5859,-2.5546,-2.5406,-2.4992,-2.4517,-2.419,-2.419,-2.3927,-2.3753,-2.3753,-2.3459,-2.3288,-2.3247,-2.3253,-2.3224,-2.32,-2.32,-2.32,-2.32,-2.32,-2.3057,-2.2746,-2.2721,-2.2586,-2.2374,0.0,0.0,-2.2374,-2.2374,-2.2374,-2.2391,-2.2349,-2.2363,-2.2391,-2.2324,-2.2061,-2.1702,-2.1688,-2.1446,-2.1182,-2.1521,-2.1673,-2.1673,-2.1673,-2.1943,-2.224,-2.1794,-2.1643,-2.1521,-2.115,-2.0732,-2.0365,-2.0314,-2.0035,-1.9747,-1.9708,-1.9708,-1.9566,-1.9095,-1.8949,-1.8612,-1.7646,-1.6972,-1.6552,-1.6522,-1.6051,-1.5664,-1.5616,-1.5094,-1.4505,-1.3909,-1.3736,-1.294,-1.1044,-1.077,-1.0044,-0.8283,-0.8749,-0.8772,-0.7849,-0.8677,-0.9115,-0.882,-0.9154,-0.8592,-0.695,-0.6847,-0.6267,-0.5081,-0.4755,-0.4702,-0.4874,-0.4624,-0.446,-0.4356,-0.3751,-0.2981,-0.2062,-0.1462,-0.0721,0.0067,0.0839,0.1327,0.1737,0.3298,0.4234,0.479,0.5553,0.7265,0.9183,-2.9582,-2.933,-2.8929,-2.8334,-2.7787,-2.681,-2.4892,-2.4572,-2.4301,-2.3658,-2.3588,-2.3599,-2.3599,-2.3488,-2.3403,-2.3403,-2.3288,-2.3117,-2.2923,-2.291,-2.2827,-2.266,-2.266,-2.266,-2.266,-2.266,-2.2581,-2.2463,-2.2463,-2.2415,-2.2296,-2.2296,-2.2296,-2.2296,-2.2296,-2.2296,-2.2296,-2.2296,-2.2296,-2.2282,-2.2003,-2.1779,-2.1567,-2.1337,-2.1134,-2.1007,-2.1181,-2.1244,-2.1244,-2.1244,-2.1522,-2.1794,-2.1385,-2.1039,-2.0781,-2.0633,-2.0278,-1.9929,-1.9929,-1.9836,-1.9621,-1.9299,-1.9225,-1.908,-1.8535,-1.8185,-1.7827,-1.7394,-1.6879,-1.6402,-1.603,-1.5764,-1.5477,-1.5118,-1.4549,-1.4073,-1.3815,-1.3106,-1.209,-1.0716,-1.0205,-0.9505,-0.8351,-0.8338,-0.8335,-0.809,-0.8752,-0.8975,-0.8543,-0.8793,-0.843,-0.7289,-0.7262,-0.6614,-0.5262,-0.5151,-0.496,-0.4672,-0.4549,-0.4491,-0.447,-0.3299,-0.2077,-0.0878,-0.0626,-0.0033,0.0806,0.114,0.2043,0.3242,0.3861,0.4676,0.5529,0.5811,0.7368,0.9296,-2.9012,-2.886,-2.8531,-2.7785,-2.7179,-2.6196,-2.4417,-2.3912,-2.3471,-2.2693,-2.2794,-2.3002,-2.3177,-2.3105,-2.3057,-2.3057,-2.2977,-2.2832,-2.2599,-2.2573,-2.2487,-2.231,-2.2296,-2.2296,-2.2296,-2.2296,-2.2296,-2.2296,-2.2296,-2.2296,-2.2296,-2.2296,-2.2296,-2.2296,-2.2296,-2.2296,-2.2296,-2.2149,-2.2092,-2.2046,-2.1598,-2.1353,-2.1181,-2.0894,-2.0731,-2.0632,-2.0747,-2.0781,-2.0781,-2.0781,-2.0975,-2.1165,-2.0878,-2.0566,-2.028,-2.0158,-1.9927,-1.9708,-1.9708,-1.9708,-1.9566,-1.9024,-1.8893,-1.8708,-1.8027,-1.7565,-1.725,-1.7097,-1.6752,-1.6315,-1.5698,-1.5454,-1.5141,-1.4537,-1.392,-1.3529,-1.3529,-1.2716,-1.1679,-1.0543,-1.0043,-0.9358,-0.8194,-0.8133,-0.8177,-0.8197,-0.8737,-0.8879,-0.8427,-0.8436,-0.8129,-0.7396,-0.7176,-0.647,-0.5218,-0.5218,-0.4976,-0.4491,-0.4281,-0.4188,-0.4113,-0.2571,-0.1314,-0.037,-0.0101,0.0338,0.0951,0.1527,0.2595,0.3925,0.4461,0.5246,0.6129,0.6343,0.7651,0.9334,-3.0272,-2.9908,-2.9353,-2.8601,-2.7558,-2.6276,-2.473,-2.3864,-2.3154,-2.2395,-2.231,-2.2548,-2.3129,-2.291,-2.2708,-2.2708,-2.2463,-2.231,-2.231,-2.231,-2.231,-2.2296,-2.2296,-2.2296,-2.2296,-2.2296,-2.2296,-2.2296,-2.2296,-2.2296,-2.2296,-2.2296,-2.2296,-2.2296,-2.2296,-2.2296,-2.2268,-2.1809,-2.1613,-2.1567,-2.1166,-2.0731,-2.0314,-2.0314,-2.0054,-1.9764,-2.0176,-2.0314,-2.0314,-2.0314,-2.0314,-2.0314,-2.0314,-2.0299,-2.0212,-1.9821,-1.9693,-1.9708,-1.9708,-1.9708,-1.9566,-1.9024,-1.8893,-1.8612,-1.7544,-1.7312,-1.7146,-1.6616,-1.65,-1.6315,-1.5698,-1.5096,-1.4514,-1.3909,-1.331,-1.2905,-1.2905,-1.2905,-1.2261,-1.0591,-1.0623,-0.986,-0.7537,-0.8203,-0.8501,-0.7771,-0.8395,-0.8677,-0.8415,-0.7955,-0.7369,-0.6642,-0.5896,-0.5191,-0.4515,-0.4519,-0.4519,-0.4491,-0.3774,-0.3423,-0.3372,-0.1814,-0.1176,-0.124,-0.037,0.0,0.0175,0.2095,0.2988,0.3308,0.5089,0.5986,0.6391,0.7194,0.8244,0.9448,-2.8202,-2.8127,-2.7636,-2.6402,-2.5868,-2.5035,-2.3277,-2.2801,-2.2567,-2.233,-2.2296,-2.2377,-2.2575,-2.2477,-2.2426,-2.2426,-2.2349,-2.2296,-2.2296,-2.2296,-2.2296,-2.2296,-2.2296,-2.2296,-2.2296,-2.2296,-2.2296,-2.2296,-2.2296,-2.2296,-2.2296,-2.2296,-2.212,-2.184,-2.2149,-2.1976,-2.1415,-2.1553,-2.143,-2.115,-2.0699,-2.0433,-2.028,-2.0,-1.9803,-1.9711,-1.9839,-1.9892,-1.9892,-1.9892,-1.9892,-1.9892,-1.9892,-1.9892,-1.9874,-1.9729,-1.9708,-1.9708,-1.9708,-1.9424,-1.9024,-1.8496,-1.8086,-1.7626,-1.6909,-1.6752,-1.6603,-1.5996,-1.5886,-1.5565,-1.4561,-1.4213,-1.3897,-1.3286,-1.3041,-1.2905,-1.2905,-1.2476,-1.1778,-1.0781,-1.0351,-0.964,-0.843,-0.862,-0.8699,-0.848,-0.8209,-0.8224,-0.8645,-0.8053,-0.7369,-0.6615,-0.5896,-0.5223,-0.4644,-0.4648,-0.4378,-0.3876,-0.3642,-0.2938,-0.1814,-0.1308,-0.0851,-0.0404,-0.0137,0.0765,0.203,0.2635,0.3766,0.5113,0.5603,0.5989,0.6395,0.7194,0.8244,0.9448,-2.7036,-2.697,-2.6545,-2.5478,-2.4956,-2.4237,-2.2914,-2.2468,-2.2296,-2.2296,-2.2296,-2.2296,-2.2296,-2.2296,-2.2296,-2.2296,-2.2296,-2.2296,-2.2296,-2.2296,-2.2296,-2.2296,-2.2296,-2.2296,-2.2296,-2.2296,-2.2296,-2.2296,-2.2296,-2.2296,-2.2296,-2.212,-2.1884,-2.1613,-2.1749,-2.1508,-2.0991,-2.107,-2.0975,-2.0715,-2.0244,-2.0072,-2.0052,-1.98,-1.9708,-1.9708,-1.9708,-1.9708,-1.9708,-1.9708,-1.9708,-1.9708,-1.9708,-1.9708,-1.9708,-1.9708,-1.9708,-1.9708,-1.9708,-1.9314,-1.8765,-1.8243,-1.7706,-1.7105,-1.6333,-1.6173,-1.5986,-1.5387,-1.5253,-1.496,-1.398,-1.3792,-1.3589,-1.2992,-1.2905,-1.2905,-1.2905,-1.2501,-1.1857,-1.0914,-1.044,-0.9814,-0.8883,-0.8804,-0.8804,-0.8804,-0.8129,-0.7916,-0.8374,-0.7508,-0.6764,-0.6322,-0.5639,-0.5103,-0.4775,-0.4447,-0.4067,-0.3592,-0.2952,-0.1981,-0.0699,-0.0699,-0.044,0.0,0.0,0.0929,0.2449,0.2818,0.3961,0.5531,0.5861,0.6129,0.6402,0.7275,0.8092,0.8879,-2.6691,-2.6439,-2.6096,-2.5673,-2.4722,-2.3884,-2.3458,-2.282,-2.2361,-2.2296,-2.2344,-2.2361,-2.2296,-2.2296,-2.2282,-2.2237,-2.2282,-2.2296,-2.2296,-2.2296,-2.2296,-2.2296,-2.2296,-2.2296,-2.2296,-2.2296,-2.2282,-2.2237,-2.2223,-2.2209,-2.2194,-2.1764,-2.1536,-2.1491,-2.115,-2.0975,-2.0878,-2.0466,-2.028,-2.0229,-1.9856,-1.9708,-1.9708,-1.9708,-1.9708,-1.9708,-1.9708,-1.9708,-1.9708,-1.9708,-1.969,-1.9639,-1.9639,-1.9621,-1.9603,-1.969,-1.9672,-1.9639,-1.9639,-1.9225,-1.8669,-1.8185,-1.7605,-1.6904,-1.584,-1.5565,-1.5365,-1.4766,-1.4629,-1.4445,-1.3839,-1.3732,-1.3552,-1.2992,-1.2856,-1.2847,-1.2881,-1.2832,-1.2255,-1.0965,-1.0762,-1.0218,-0.8936,-0.8804,-0.8804,-0.8804,-0.8088,-0.7639,-0.7639,-0.6435,-0.5768,-0.5801,-0.5221,-0.4894,-0.4904,-0.4036,-0.3546,-0.343,-0.1783,-0.0665,0.0,0.0,0.0,0.0,0.0073,0.0701,0.1771,0.2795,0.3832,0.4921,0.5906,0.63,0.6416,0.7442,0.7783,0.7936,-2.6691,-2.6639,-2.6366,-2.5709,-2.4924,-2.4164,-2.3499,-2.3241,-2.2926,-2.2361,-2.2796,-2.2926,-2.2361,-2.2296,-2.2166,-2.1794,-2.2092,-2.2296,-2.2296,-2.2296,-2.2296,-2.2296,-2.2296,-2.2296,-2.2296,-2.2296,-2.212,-2.1764,-2.1461,-2.1307,-2.1307,-2.1181,-2.0943,-2.0617,-2.0894,-2.0632,-2.0015,-2.0227,-2.0124,-1.9821,-1.9729,-1.9708,-1.9708,-1.9708,-1.9708,-1.9708,-1.9708,-1.9708,-1.9708,-1.9708,-1.9424,-1.9095,-1.9095,-1.8817,-1.8631,-1.946,-1.9406,-1.9095,-1.9095,-1.84,-1.7646,-1.7524,-1.6744,-1.5928,-1.5654,-1.5231,-1.4744,-1.4143,-1.4003,-1.3826,-1.3214,-1.3104,-1.3065,-1.2929,-1.2427,-1.2261,-1.2822,-1.1974,-1.1174,-1.0838,-1.0338,-0.971,-0.8883,-0.8804,-0.8804,-0.8804,-0.7735,-0.7081,-0.7081,-0.5921,-0.543,-0.578,-0.5221,-0.4938,-0.5049,-0.4187,-0.3113,-0.1839,-0.0763,-0.0168,0.0,0.0,0.0,0.0034,0.0858,0.1787,0.2831,0.3893,0.4938,0.5944,0.6183,0.63,0.6416,0.7442,0.7783,0.7936,-2.6759,-2.642,-2.6065,-2.566,-2.4979,-2.4371,-2.3961,-2.3904,-2.3665,-2.3024,-2.3011,-2.2846,-2.2234,-2.189,-2.1591,-2.1353,-2.193,-2.212,-2.1736,-2.1869,-2.1899,-2.1721,-2.1706,-2.1706,-2.1706,-2.1706,-2.1584,-2.1322,-2.1102,-2.0991,-2.1007,-2.078,-2.0533,-2.0297,-2.0364,-2.0139,-1.9711,-1.9929,-1.9909,-1.9708,-1.9708,-1.9708,-1.9708,-1.9708,-1.9708,-1.9708,-1.9708,-1.9548,-1.9332,-1.9332,-1.8987,-1.8535,-1.8535,-1.8341,-1.8224,-1.8798,-1.8746,-1.8535,-1.8535,-1.7927,-1.7229,-1.6993,-1.6265,-1.5521,-1.5253,-1.471,-1.4131,-1.3505,-1.3396,-1.3286,-1.2968,-1.2905,-1.2905,-1.2905,-1.227,-1.1947,-1.2344,-1.1484,-1.0695,-1.0389,-1.0012,-0.9536,-0.8857,-0.8804,-0.8698,-0.8404,-0.7455,-0.6778,-0.6507,-0.5616,-0.521,-0.5461,-0.5254,-0.4964,-0.4602,-0.3299,-0.2004,-0.0706,-0.0239,0.0,0.0,0.0,0.0,0.0073,0.1117,0.2181,0.3199,0.425,0.5315,0.63,0.63,0.63,0.6377,0.6911,0.7099,0.7173,-2.6639,-2.6051,-2.5664,-2.5561,-2.4931,-2.446,-2.453,-2.4557,-2.4342,-2.377,-2.3288,-2.279,-2.22,-2.1551,-2.1116,-2.1039,-2.1696,-2.1784,-2.1055,-2.1322,-2.1353,-2.1007,-2.0991,-2.0991,-2.0991,-2.0926,-2.0942,-2.1053,-2.0877,-2.0797,-2.0797,-2.0398,-2.021,-2.0177,-1.9856,-1.9708,-1.9708,-1.9708,-1.9708,-1.9708,-1.9708,-1.9708,-1.9708,-1.9708,-1.9639,-1.9584,-1.9584,-1.9225,-1.8779,-1.8779,-1.8419,-1.7987,-1.7987,-1.7927,-1.7867,-1.7867,-1.7867,-1.7887,-1.7967,-1.7585,-1.7042,-1.6497,-1.5908,-1.5298,-1.4698,-1.4107,-1.3529,-1.3017,-1.2905,-1.2881,-1.274,-1.2715,-1.2691,-1.2593,-1.1965,-1.1541,-1.1641,-1.099,-1.0312,-0.9865,-0.9755,-0.9485,-0.8924,-0.8778,-0.853,-0.8016,-0.7242,-0.6564,-0.6052,-0.5457,-0.5133,-0.5133,-0.5324,-0.4876,-0.3811,-0.2123,-0.0863,0.0,0.0,0.0,0.0,0.0,0.0,0.0078,0.1285,0.2296,0.3186,0.4445,0.5473,0.6303,0.6323,0.632,0.6303,0.6323,0.6317,0.6303,-2.5781,-2.5796,-2.5936,-2.5346,-2.4647,-2.4298,-2.4696,-2.4741,-2.4491,-2.3786,-2.4144,-2.4057,-2.2959,-2.2245,-2.1698,-2.1275,-2.1229,-2.1134,-2.1007,-2.1055,-2.1055,-2.0991,-2.0991,-2.0991,-2.0991,-2.06,-2.0679,-2.1255,-2.0345,-1.9892,-1.9892,-1.9836,-1.98,-1.98,-1.9744,-1.9708,-1.9708,-1.9708,-1.9708,-1.9708,-1.9708,-1.9708,-1.9708,-1.9708,-1.9424,-1.9024,-1.9024,-1.8669,-1.8224,-1.8224,-1.7867,-1.7435,-1.7435,-1.7118,-1.6752,-1.6752,-1.6752,-1.6858,-1.7312,-1.7034,-1.6475,-1.5886,-1.5276,-1.4675,-1.4073,-1.3467,-1.3017,-1.2929,-1.2905,-1.2715,-1.208,-1.1972,-1.1798,-1.1225,-1.0542,-1.032,-1.0889,-0.9884,-0.929,-0.9736,-0.9489,-0.9254,-0.9144,-0.8723,-0.8433,-0.8323,-0.7078,-0.6272,-0.6177,-0.5657,-0.5358,-0.5358,-0.5382,-0.4595,-0.293,-0.1828,-0.0863,0.0,0.0,0.0,0.0,0.0,0.0,0.0111,0.2032,0.2961,0.3268,0.5236,0.6141,0.6313,0.6433,0.6405,0.6313,0.6433,0.6402,0.6317,-2.6076,-2.5986,-2.5992,-2.531,-2.4922,-2.4763,-2.4979,-2.5024,-2.4787,-2.4149,-2.4069,-2.3746,-2.2924,-2.2247,-2.1612,-2.1033,-2.1216,-2.1073,-2.0342,-2.0499,-2.0532,-2.0311,-2.0647,-2.0848,-2.0848,-2.0617,-2.0497,-2.0439,-1.9936,-1.9708,-1.9708,-1.9708,-1.9708,-1.9708,-1.9708,-1.9708,-1.9708,-1.9708,-1.953,-1.9262,-1.9262,-1.9262,-1.9244,-1.8949,-1.8855,-1.8855,-1.8574,-1.8125,-1.7666,-1.7666,-1.7312,-1.6879,-1.6879,-1.6689,-1.65,-1.65,-1.65,-1.6552,-1.6795,-1.6441,-1.5964,-1.5676,-1.4892,-1.4143,-1.3862,-1.3324,-1.2905,-1.2905,-1.2905,-1.2666,-1.1947,-1.1789,-1.1591,-1.0914,-1.0244,-0.9917,-1.0218,-0.9556,-0.9119,-0.9456,-0.9487,-0.9479,-0.9479,-0.8823,-0.8268,-0.7946,-0.6852,-0.6077,-0.5794,-0.56,-0.5518,-0.5518,-0.4931,-0.4009,-0.2711,-0.2272,-0.1355,0.0,-0.046,-0.0465,0.0,0.0,0.0,0.0112,0.2207,0.3114,0.3269,0.541,0.63,0.6306,0.6371,0.6358,0.6306,0.6375,0.6358,0.631,-2.6355,-2.6182,-2.6088,-2.5397,-2.5166,-2.5106,-2.5224,-2.5106,-2.4872,-2.4454,-2.3955,-2.344,-2.2964,-2.233,-2.1739,-2.1215,-2.1492,-2.1201,-2.0007,-2.0218,-2.0194,-1.9726,-2.0348,-2.0763,-2.0932,-2.0778,-2.0453,-1.9929,-1.9783,-1.9708,-1.9708,-1.9708,-1.9708,-1.9708,-1.9708,-1.9708,-1.969,-1.9566,-1.9281,-1.8893,-1.8746,-1.8708,-1.8669,-1.8263,-1.8283,-1.8477,-1.8066,-1.7565,-1.7118,-1.7118,-1.6837,-1.65,-1.65,-1.65,-1.65,-1.65,-1.6402,-1.6315,-1.6457,-1.6051,-1.5565,-1.5432,-1.4595,-1.3755,-1.3613,-1.3238,-1.2905,-1.2905,-1.2774,-1.2427,-1.169,-1.1441,-1.1116,-1.044,-0.9951,-0.9671,-0.9671,-0.9473,-0.9317,-0.9317,-0.9426,-0.9479,-0.9479,-0.8592,-0.7813,-0.7385,-0.6542,-0.5883,-0.5525,-0.5576,-0.564,-0.564,-0.4647,-0.3797,-0.3137,-0.2665,-0.1738,-0.039,-0.0798,-0.0661,0.0,0.0,0.0,0.0115,0.221,0.3085,0.3279,0.5434,0.63,0.6303,0.6337,0.6327,0.631,0.6378,0.6378,0.6361,-2.6016,-2.615,-2.6357,-2.57,-2.5062,-2.4814,-2.5313,-2.4866,-2.4435,-2.442,-2.4353,-2.4126,-2.3595,-2.2978,-2.2619,-2.255,-2.2028,-2.14,-2.0672,-2.0649,-2.0372,-1.9741,-2.0348,-2.0991,-2.1605,-2.1021,-2.0673,-2.0613,-1.9989,-1.9708,-1.9708,-1.9708,-1.9708,-1.9708,-1.9708,-1.9708,-1.9672,-1.9169,-1.8949,-1.8855,-1.8361,-1.8165,-1.8165,-1.8125,-1.7827,-1.7415,-1.7374,-1.7013,-1.6552,-1.6552,-1.6543,-1.65,-1.65,-1.65,-1.65,-1.65,-1.6095,-1.5798,-1.6358,-1.6051,-1.5477,-1.4903,-1.4283,-1.3661,-1.3079,-1.2929,-1.2905,-1.2905,-1.2369,-1.1665,-1.099,-1.0364,-0.9744,-0.9061,-0.9106,-0.9233,-0.9233,-0.9494,-0.9653,-0.9653,-0.9196,-0.8858,-0.8858,-0.7621,-0.6856,-0.695,-0.6127,-0.5686,-0.5762,-0.5779,-0.5786,-0.5786,-0.4913,-0.4439,-0.4357,-0.2591,-0.1596,-0.1487,-0.0522,-0.0076,0.0,0.0,0.0,0.0117,0.2187,0.3085,0.3279,0.5434,0.63,0.6313,0.6446,0.6416,0.6334,0.6566,0.6576,0.6538,-2.645,-2.6431,-2.6391,-2.5738,-2.5399,-2.5146,-2.4935,-2.4676,-2.4386,-2.3956,-2.3904,-2.3816,-2.361,-2.3389,-2.3108,-2.2718,-2.2811,-2.2432,-2.1395,-2.1706,-2.163,-2.097,-2.1575,-2.2074,-2.2313,-2.1665,-2.1321,-2.1321,-2.0647,-2.0528,-2.0951,-2.0951,-2.0951,-2.0951,-2.0951,-2.0506,-1.9816,-1.9609,-1.8903,-1.7887,-1.7686,-1.7605,-1.7605,-1.765,-1.7515,-1.7303,-1.7355,-1.7235,-1.7049,-1.7049,-1.7049,-1.7112,-1.7451,-1.7325,-1.6982,-1.6553,-1.5781,-1.5085,-1.531,-1.4937,-1.4434,-1.419,-1.3695,-1.3176,-1.2954,-1.2905,-1.2774,-1.232,-1.2166,-1.1765,-1.0696,-1.042,-1.0131,-0.9457,-0.9439,-0.9512,-0.9512,-0.9766,-0.9953,-0.9953,-0.9457,-0.9142,-0.9224,-0.7778,-0.6873,-0.7028,-0.6209,-0.5745,-0.5796,-0.5891,-0.5986,-0.6122,-0.578,-0.5241,-0.4493,-0.3627,-0.2662,-0.1601,-0.1053,-0.0529,0.0,0.0,0.0,0.0077,0.1556,0.2151,0.2347,0.4453,0.5361,0.5518,0.6208,0.6538,0.6546,0.6661,0.6664,0.663,-2.699,-2.692,-2.6756,-2.6304,-2.6057,-2.5702,-2.5015,-2.4737,-2.4349,-2.3698,-2.3595,-2.3595,-2.3595,-2.3595,-2.344,-2.303,-2.3352,-2.3147,-2.2076,-2.2444,-2.2482,-2.2029,-2.2454,-2.2703,-2.2703,-2.2254,-2.1904,-2.1695,-2.1246,-2.1261,-2.1695,-2.1695,-2.158,-2.139,-2.139,-2.0823,-1.9869,-1.969,-1.894,-1.7824,-1.7665,-1.7579,-1.7588,-1.7634,-1.7623,-1.7588,-1.7624,-1.7662,-1.7662,-1.7662,-1.7662,-1.7725,-1.8078,-1.7787,-1.7186,-1.6527,-1.5517,-1.4618,-1.4653,-1.4108,-1.3552,-1.3755,-1.3348,-1.2905,-1.2905,-1.2905,-1.2729,-1.2095,-1.1981,-1.1682,-1.0634,-1.0398,-1.0236,-0.9766,-0.976,-0.982,-0.982,-1.0074,-1.0162,-0.9878,-0.9328,-0.8893,-0.8712,-0.74,-0.6616,-0.6761,-0.6197,-0.5895,-0.5942,-0.6044,-0.6149,-0.6296,-0.5983,-0.5384,-0.4567,-0.4084,-0.3261,-0.2062,-0.1261,-0.0574,0.0,0.0,0.0,0.0077,0.1129,0.1607,0.1762,0.3828,0.4773,0.4928,0.6051,0.6536,0.6641,0.6736,0.6773,0.6776,-2.76,-2.76,-2.76,-2.76,-2.7045,-2.6384,-2.5716,-2.5044,-2.4386,-2.3713,-2.3595,-2.3595,-2.361,-2.361,-2.361,-2.361,-2.361,-2.3337,-2.2738,-2.2706,-2.2699,-2.2676,-2.2705,-2.2703,-2.2703,-2.2703,-2.2353,-2.171,-2.171,-2.171,-2.169,-2.171,-2.1344,-2.0717,-2.0717,-2.0359,-1.976,-1.9239,-1.9002,-1.8943,-1.8403,-1.8204,-1.8204,-1.8204,-1.8204,-1.8204,-1.8204,-1.8216,-1.8216,-1.8216,-1.8204,-1.8204,-1.8193,-1.769,-1.6961,-1.6364,-1.5347,-1.4426,-1.456,-1.3767,-1.3041,-1.3637,-1.3358,-1.2905,-1.2905,-1.2891,-1.2776,-1.2382,-1.1754,-1.1158,-1.0761,-1.0164,-0.9722,-0.9722,-0.9933,-1.009,-1.0127,-1.0381,-1.0276,-0.9408,-0.8667,-0.786,-0.6975,-0.6237,-0.5867,-0.5983,-0.5993,-0.6098,-0.6289,-0.63,-0.63,-0.63,-0.5276,-0.4688,-0.4688,-0.3632,-0.3085,-0.3046,-0.0979,0.0,0.0,0.0,0.0,0.0079,0.1137,0.1568,0.1763,0.383,0.4688,0.4818,0.6016,0.6515,0.6555,0.6817,0.6886,0.6906,-2.76,-2.76,-2.76,-2.76,-2.7419,-2.7085,-2.6398,-2.5741,-2.5061,-2.438,-2.388,-2.3789,-2.4246,-2.4309,-2.4489,-2.4952,-2.452,-2.3577,-2.2024,-2.2812,-2.2744,-2.1409,-2.2635,-2.3325,-2.3325,-2.2459,-2.2142,-2.2389,-2.1931,-2.1686,-2.171,-2.2177,-2.2052,-2.1387,-2.1387,-2.0859,-1.993,-1.9767,-1.9207,-1.8427,-1.8275,-1.8204,-1.8242,-1.8607,-1.8519,-1.8254,-1.8619,-1.8757,-1.8757,-1.8757,-1.8437,-1.7904,-1.7387,-1.6773,-1.6225,-1.6051,-1.5127,-1.4188,-1.424,-1.4004,-1.3639,-1.3253,-1.3244,-1.332,-1.332,-1.3098,-1.2743,-1.2131,-1.1551,-1.0988,-1.0399,-1.0306,-1.0332,-1.0332,-1.0405,-1.0533,-1.0701,-1.0808,-1.06,-0.9807,-0.9005,-0.8128,-0.7273,-0.6438,-0.6023,-0.6179,-0.6231,-0.6252,-0.6296,-0.63,-0.63,-0.63,-0.5276,-0.4688,-0.4688,-0.2932,-0.2035,-0.2035,-0.0667,0.0,0.0,0.0,0.0,0.0,0.0324,0.0483,0.0644,0.2886,0.3843,0.4114,0.6017,0.6854,0.6953,0.7001,0.7034,0.7041,-2.76,-2.76,-2.76,-2.76,-2.76,-2.7364,-2.6701,-2.6251,-2.5743,-2.508,-2.4649,-2.4552,-2.4948,-2.4754,-2.473,-2.5137,-2.449,-2.3575,-2.2407,-2.2875,-2.2698,-2.1549,-2.2352,-2.2854,-2.2854,-2.2089,-2.1894,-2.23,-2.1894,-2.1712,-2.1697,-2.21,-2.196,-2.1342,-2.1342,-2.0815,-1.9916,-1.9916,-1.9515,-1.8832,-1.8832,-1.8832,-1.8882,-1.9183,-1.9133,-1.8882,-1.9183,-1.9309,-1.9283,-1.8993,-1.8392,-1.7637,-1.6916,-1.6438,-1.6049,-1.5598,-1.4964,-1.4328,-1.4153,-1.4104,-1.3987,-1.3506,-1.3574,-1.3646,-1.3332,-1.3085,-1.2699,-1.1928,-1.151,-1.1166,-1.0715,-1.0782,-1.0935,-1.0935,-1.0935,-1.0962,-1.1142,-1.1162,-1.071,-0.9516,-0.8978,-0.819,-0.6892,-0.6378,-0.6159,-0.6293,-0.63,-0.63,-0.63,-0.5906,-0.567,-0.567,-0.4261,-0.3456,-0.3488,-0.181,-0.1176,-0.1568,-0.0515,0.0,0.0,0.0,0.0,0.0,0.0,0.0288,0.0864,0.2628,0.368,0.4362,0.6181,0.694,0.7018,0.7075,0.7095,0.7095,-2.76,-2.76,-2.7585,-2.7515,-2.7493,-2.728,-2.6608,-2.6436,-2.6173,-2.5575,-2.5435,-2.5426,-2.5485,-2.4906,-2.4515,-2.4581,-2.3915,-2.3431,-2.331,-2.286,-2.255,-2.2451,-2.1897,-2.1578,-2.153,-2.1592,-2.1615,-2.1615,-2.1615,-2.1592,-2.153,-2.1578,-2.1293,-2.0696,-2.0696,-2.0371,-1.9798,-1.9798,-1.9798,-1.9798,-1.9798,-1.9798,-1.9798,-1.9798,-1.9798,-1.9798,-1.9798,-1.9747,-1.9579,-1.8768,-1.807,-1.7385,-1.6624,-1.6397,-1.6211,-1.5148,-1.4844,-1.4756,-1.4328,-1.4196,-1.4144,-1.4144,-1.4109,-1.3891,-1.3149,-1.3,-1.2757,-1.1897,-1.165,-1.1539,-1.1424,-1.1389,-1.1389,-1.1389,-1.1389,-1.1402,-1.1429,-1.136,-1.0663,-0.8861,-0.8676,-0.7987,-0.6197,-0.6176,-0.63,-0.63,-0.63,-0.63,-0.63,-0.5276,-0.4688,-0.4688,-0.2699,-0.1585,-0.1583,-0.0517,-0.0473,-0.146,-0.0483,0.0,0.0,0.0,0.0,0.0,0.0127,0.0801,0.1892,0.3025,0.4156,0.5254,0.6455,0.6906,0.692,0.7048,0.7095,0.7139,-2.76,-2.76,-2.7419,-2.6851,-2.6743,-2.6508,-2.5756,-2.5198,-2.4808,-2.4677,-2.4201,-2.4086,-2.4603,-2.4514,-2.4636,-2.5164,-2.4587,-2.3727,-2.2623,-2.2578,-2.215,-2.1171,-2.1023,-2.0758,-2.0232,-2.0733,-2.1004,-2.1004,-2.1004,-2.0733,-2.0232,-2.0758,-2.0633,-2.0029,-2.0029,-1.9927,-1.9798,-1.9798,-1.9798,-1.9798,-1.9798,-1.9798,-1.9798,-1.9798,-1.9798,-1.9798,-1.9798,-1.9423,-1.8741,-1.7413,-1.6866,-1.6624,-1.5864,-1.5642,-1.5594,-1.5332,-1.5273,-1.5254,-1.5166,-1.4845,-1.4571,-1.4571,-1.4246,-1.3911,-1.38,-1.3791,-1.3565,-1.2659,-1.1933,-1.1438,-1.1403,-1.1389,-1.1389,-1.1389,-1.1389,-1.151,-1.1737,-1.112,-1.0257,-0.9278,-0.8482,-0.7529,-0.6364,-0.6279,-0.63,-0.63,-0.63,-0.63,-0.63,-0.5276,-0.4688,-0.4688,-0.2699,-0.1585,-0.1583,-0.0526,-0.0122,-0.0332,-0.0123,0.0,0.0,0.0,0.0,0.0044,0.0999,0.155,0.1979,0.4079,0.511,0.5464,0.6595,0.7051,0.7055,0.7085,0.7095,0.7356,-2.76,-2.7335,-2.6935,-2.6577,-2.6218,-2.5834,-2.5445,-2.5105,-2.4874,-2.4887,-2.4571,-2.4502,-2.4846,-2.4566,-2.4329,-2.4319,-2.3977,-2.347,-2.2747,-2.2536,-2.2147,-2.1483,-2.1254,-2.0974,-2.0614,-2.0706,-2.0604,-2.0321,-2.0321,-2.0144,-1.9798,-2.0156,-2.0131,-1.9798,-1.9798,-1.9798,-1.9798,-1.9798,-1.9798,-1.9773,-1.9423,-1.9281,-1.9228,-1.8874,-1.8741,-1.8741,-1.8741,-1.8286,-1.7523,-1.6765,-1.6265,-1.5921,-1.5526,-1.541,-1.5449,-1.5664,-1.5723,-1.5771,-1.5986,-1.5504,-1.4984,-1.4984,-1.4598,-1.4031,-1.3493,-1.3404,-1.3215,-1.2468,-1.195,-1.1677,-1.1817,-1.1844,-1.1844,-1.1844,-1.144,-1.1162,-1.1343,-1.0516,-0.9569,-0.8675,-0.8122,-0.7403,-0.6412,-0.63,-0.6327,-0.6395,-0.6402,-0.6152,-0.5657,-0.4648,-0.3821,-0.3223,-0.1651,-0.0816,-0.0826,-0.0289,0.0,0.0,0.0,0.0,0.0,0.0,0.0311,0.0896,0.1505,0.2463,0.3603,0.4874,0.5709,0.6284,0.6889,0.7095,0.7095,0.7095,0.7445,0.8233,-2.753,-2.6935,-2.641,-2.6292,-2.5671,-2.5182,-2.5026,-2.4998,-2.5007,-2.5007,-2.5104,-2.5159,-2.5159,-2.4693,-2.4123,-2.3445,-2.3316,-2.3261,-2.3261,-2.2678,-2.2309,-2.2309,-2.1782,-2.1493,-2.1493,-2.1069,-2.0603,-2.0087,-1.9899,-1.9849,-1.9949,-1.9849,-1.9798,-1.9798,-1.9798,-1.9721,-1.9618,-1.9618,-1.9527,-1.9371,-1.8768,-1.8501,-1.8447,-1.7813,-1.7605,-1.7617,-1.7695,-1.7238,-1.6618,-1.6558,-1.6074,-1.5537,-1.5615,-1.5605,-1.5703,-1.6105,-1.6212,-1.629,-1.6599,-1.5941,-1.5159,-1.5159,-1.4639,-1.3843,-1.2868,-1.2748,-1.2718,-1.2104,-1.198,-1.2053,-1.2258,-1.215,-1.2053,-1.2068,-1.1234,-1.0602,-1.0604,-0.9746,-0.8798,-0.7953,-0.7725,-0.7297,-0.6453,-0.6375,-0.6422,-0.6542,-0.6552,-0.6075,-0.4939,-0.3936,-0.2868,-0.1634,-0.0541,0.0,0.0,0.0,0.0,0.0,0.0,0.0,0.0,0.0223,0.0852,0.1835,0.2236,0.3528,0.5403,0.5628,0.6248,0.7095,0.7095,0.7095,0.7095,0.7095,0.7969,0.9318,-2.7225,-2.6632,-2.6038,-2.5405,-2.482,-2.421,-2.3525,-2.3416,-2.3412,-2.3412,-2.3884,-2.4205,-2.4205,-2.4524,-2.4675,-2.4593,-2.4154,-2.3888,-2.3888,-2.2883,-2.2309,-2.2309,-2.1782,-2.1493,-2.1493,-2.1446,-2.1343,-2.1255,-2.0275,-2.0062,-2.0566,-2.0037,-1.9798,-1.9798,-1.9798,-1.9449,-1.8847,-1.8847,-1.8474,-1.7907,-1.7797,-1.7743,-1.7743,-1.7633,-1.7605,-1.7661,-1.8058,-1.7738,-1.7063,-1.6787,-1.6381,-1.6075,-1.6395,-1.6521,-1.6531,-1.659,-1.6609,-1.6619,-1.6687,-1.5689,-1.4612,-1.4612,-1.36,-1.2554,-1.2374,-1.297,-1.3302,-1.2414,-1.2245,-1.2258,-1.2291,-1.1583,-1.1047,-1.1165,-1.0346,-0.9713,-0.9832,-0.8976,-0.8292,-0.8175,-0.7368,-0.6801,-0.6641,-0.6641,-0.6651,-0.6668,-0.6668,-0.6134,-0.4944,-0.3936,-0.2844,-0.1628,-0.0546,0.0,0.0,0.0,0.0,0.0,0.0,0.0,0.0045,0.1074,0.1657,0.1924,0.402,0.5092,0.5492,0.647,0.6962,0.7095,0.7095,0.7095,0.7095,0.7095,0.8488,1.0394,-2.708,-2.6479,-2.5824,-2.5208,-2.4576,-2.4,-2.3666,-2.3611,-2.3722,-2.4,-2.4266,-2.443,-2.4457,-2.4663,-2.4811,-2.4811,-2.4593,-2.4459,-2.4456,-2.3978,-2.3547,-2.3263,-2.3012,-2.2736,-2.2393,-2.2108,-2.2096,-2.238,-2.1292,-2.0635,-2.0402,-2.0159,-1.9633,-1.8963,-1.8963,-1.8635,-1.8097,-1.8097,-1.7895,-1.755,-1.7146,-1.6978,-1.695,-1.6528,-1.6543,-1.6834,-1.7242,-1.7216,-1.6888,-1.6754,-1.657,-1.6475,-1.6638,-1.6697,-1.6746,-1.7021,-1.709,-1.7019,-1.6736,-1.578,-1.4749,-1.4187,-1.3165,-1.2305,-1.2305,-1.2629,-1.2854,-1.2624,-1.2589,-1.2643,-1.2779,-1.1933,-1.122,-1.1258,-0.9876,-0.8792,-0.8842,-0.8004,-0.7353,-0.7353,-0.6988,-0.6702,-0.6702,-0.6702,-0.6736,-0.682,-0.6184,-0.5312,-0.4251,-0.3128,-0.1947,-0.0728,-0.026,0.0,0.0,0.0,0.0,0.0,0.0776,0.1088,0.1031,0.1567,0.2549,0.3887,0.4956,0.5761,0.6381,0.6871,0.7095,0.7095,0.7095,0.7095,0.7183,0.7841,0.9187,1.0697]},{"header":{"parameterUnit":"m.s-1","parameterCategory":1,"la1":30.6,"la2":28.766,"lo1":-90.7593,"lo2":-88.6598,"dy":0.0162,"dx":0.0183,"nx":116,"ny":114,"refTime":"2023-09-18T00:00:00:Z","depth":0,"parameterNumber":3,"parameterNumberName":"V-component_of_WINDS"},"data":[0.0,0.0,0.0,0.0,0.0,0.0,0.0,0.0,0.0,0.0,0.0,0.0,0.0,0.0,0.0,0.0,0.0,0.0,0.0,0.0,0.0,0.0,0.0,0.0,0.0,0.0,0.0,0.0,0.0,0.0,0.0,0.0,0.0,0.0,0.0,0.0,0.0,0.0,0.0,0.0,0.0,0.0,0.0,0.0,0.0,0.0,0.0,0.0,0.0,0.0,0.0,0.0,0.0,0.0,0.0,0.0,0.0,0.0,0.0,0.0,0.0,0.0,0.0,0.0,0.0,0.0,0.0,0.0,0.0,0.0,0.0,0.0,0.0,0.0,0.0,0.0,0.0,0.0,0.0,0.0,0.0,0.0,0.0,0.0,0.0,0.0,0.0,0.0,0.0,0.0,0.0,0.0,0.0,0.0,0.0,0.0,0.0,0.0,0.0,0.0,0.0,0.0,0.0,0.0,0.0,0.0,0.0,0.0,0.0,0.0,0.0,0.0,0.0,0.0,0.0,0.0,0.0,0.0,0.0,0.0,0.0,0.0,0.0,0.0,0.0,0.0,0.0,0.0,0.0,0.0,0.0,0.0,0.0,0.0,0.0,0.0,0.0,0.0,0.0,0.0,0.0,0.0,0.0,0.0,0.0,0.0,0.0,0.0,0.0,0.0,0.0,0.0,0.0,0.0,0.0,0.0,0.0,0.0,0.0,0.0,0.0,0.0,0.0,0.0,0.0,0.0,0.0,0.0,0.0,0.0,0.0,0.0,0.0,0.0,0.0,0.0,0.0,0.0,0.0,0.0,0.0,0.0,0.0,0.0,0.0,0.0,0.0,0.0,0.0,0.0,0.0,0.0,0.0,0.0,0.0,0.0,0.0,0.0,0.0,0.0,0.0,0.0,0.0,0.0,0.0,0.0,0.0,0.0,0.0,0.0,0.0,0.0,0.0,0.0,0.0,0.0,0.0,0.0,0.0,0.0,0.0,0.0,0.0,0.0,0.0,0.0,0.0,0.0,0.0,0.0,0.0,0.0,0.0,0.0,0.0,0.0,0.0,0.0,0.0,0.0,0.0,0.0,0.0,0.0,0.0,0.0,0.0,0.0,0.0,0.0,0.0,0.0,0.0,0.0,0.0,0.0,0.0,0.0,0.0,0.0,0.0,0.0,0.0,0.0,0.0,0.0,0.0,0.0,0.0,0.0,0.0,0.0,0.0,0.0,0.0,0.0,0.0,0.0,0.0,0.0,0.0,0.0,0.0,0.0,0.0,0.0,0.0,0.0,0.0,0.0,0.0,0.0,0.0,0.0,0.0,0.0,0.0,0.0,0.0,0.0,0.0,0.0,0.0,0.0,0.0,0.0,0.0,0.0,0.0,0.0,0.0,0.0,0.0,0.0,0.0,0.0,0.0,0.0,0.0,0.0,0.0,0.0,0.0,0.0,0.0,0.0,0.0,0.0,0.0,0.0,0.0,0.0,0.0,0.0,0.0,0.0,0.0,0.0,0.0,0.0,0.0,0.0,0.0,0.0,0.0,0.0,0.0,0.0,0.0,0.0,0.0,0.0,0.0,0.0,0.0,0.0,0.0,0.0,0.0,0.0,0.0,0.0,0.0,0.0,0.0,0.0,0.0,0.0,0.0,0.0,0.0,0.0,0.0,0.0,0.0,0.0,0.0,0.0,0.0,0.0,0.0,0.0,0.0,0.0,0.0,0.0,0.0,0.0,0.0,0.0,0.0,0.0,0.0,0.0,0.0,0.0,0.0,0.0,0.0,0.0,0.0,0.0,0.0,0.0,0.0,0.0,0.0,0.0,0.0,0.0,0.0,0.0,0.0,0.0,0.0,0.0,0.0,0.0,0.0,0.0,0.0,0.0,0.0,0.0,0.0,0.0,0.0,0.0,0.0,0.0,0.0,0.0,0.0,0.0,0.0,0.0,0.0,0.0,0.0,0.0,0.0,0.0,0.0,0.0,0.0,0.0,0.0,0.0,0.0,0.0,0.0,0.0,0.0,0.0,0.0,0.0,0.0,0.0,0.0,0.0,0.0,0.0,0.0,0.0,0.0,0.0,0.0,0.0,0.0,0.0,0.0,0.0,0.0,0.0,0.0,0.0,0.0,0.0,0.0,0.0,0.0,0.0,0.0,0.0,0.0,0.0,0.0,0.0,0.0,0.0,0.0,0.0,0.0,0.0,0.0,0.0,0.0,0.0,0.0,0.0,0.0,0.0,0.0,0.0,0.0,0.0,0.0,0.0,0.0,0.0,0.0,0.0,0.0,0.0,0.0,0.0,0.0,0.0,0.0,0.0,0.0,0.0,0.0,0.0,0.0,0.0,0.0,0.0,0.0,0.0,0.0,0.0,0.0,0.0,0.0,0.0,0.0,0.0,0.0,0.0,0.0,0.0,0.0,0.0,0.0,0.0,0.0,0.0,0.0,0.0,0.0,0.0,0.0,0.0,0.0,0.0,0.0,0.0,0.0,0.0,0.0,0.0,0.0,0.0,0.0,0.0,0.0,0.0,0.0,0.0,0.0,0.0,0.0,0.0,0.0,0.0,0.0,0.0,0.0,0.0,0.0,0.0,0.0,0.0,0.0,0.0,0.0,0.0,0.0,0.0,0.0,0.0,0.0,0.0,0.0,0.0,0.0,0.0,0.0,0.0,0.0,0.0,0.0,0.0,0.0,0.0,0.0,0.0,0.0,0.0,0.0,0.0,0.0,0.0,0.0,0.0,0.0,0.0,0.0,0.0,0.0,0.0,0.0,0.0,0.0,0.0,0.0,0.0,0.0,0.0,0.0,0.0,0.0,0.0,0.0,0.0,0.0,0.0,0.0,0.0,0.0,0.0,0.0,0.0,0.0,0.0,0.0,0.0,0.0,0.0,0.0,0.0,0.0,0.0,0.0,0.0,0.0,0.0,0.0,0.0,0.0,0.0,0.0,0.0,0.0,0.0,0.0,0.0,0.0,0.0,0.0,0.0,0.0,0.0,0.0,0.0,0.0,0.0,0.0,0.0,0.0,0.0,0.0,0.0,0.0,0.0,0.0,0.0,0.0,0.0,0.0,0.0,0.0,0.0,0.0,0.0,0.0,0.0,0.0,0.0,0.0,0.0,0.0,0.0,0.0,0.0,0.0,0.0,0.0,0.0,0.0,0.0,0.0,0.0,0.0,0.0,0.0,0.0,0.0,0.0,0.0,0.0,0.0,0.0,0.0,0.0,0.0,0.0,0.0,0.0,0.0,0.0,0.0,0.0,0.0,0.0,0.0,0.0,0.0,0.0,0.0,0.0,0.0,0.0,0.0,0.0,0.0,0.0,0.0,0.0,0.0,0.0,0.0,0.0,0.0,0.0,0.0,0.0,0.0,0.0,0.0,0.0,0.0,0.0,0.0,0.0,0.0,0.0,0.0,0.0,0.0,0.0,0.0,0.0,0.0,0.0,0.0,0.0,0.0,0.0,0.0,0.0,0.0,0.0,0.0,0.0,0.0,0.0,0.0,0.0,0.0,0.0,0.0,0.0,0.0,0.0,0.0,0.0,0.0,0.0,0.0,0.0,0.0,0.0,0.0,0.0,0.0,0.0,0.0,0.0,0.0,0.0,0.0,0.0,0.0,0.0,0.0,0.0,0.0,0.0,0.0,0.0,0.0,0.0,0.0,0.0,0.0,0.0,0.0,0.0,0.0,0.0,0.0,0.0,0.0,0.0,0.0,0.0,0.0,0.0,0.0,0.0,0.0,0.0,0.0,0.0,0.0,0.0,0.0,0.0,0.0,0.0,0.0,0.0,0.0,0.0,0.0,0.0,0.0,0.0,0.0,0.0,0.0,0.0,0.0,0.0,0.0,0.0,0.0,0.0,0.0,0.0,0.0,0.0,0.0,0.0,0.0,0.0,0.0,0.0,0.0,0.0,0.0,0.0,0.0,0.0,0.0,0.0,0.0,0.0,0.0,0.0,0.0,0.0,0.0,0.0,0.0,0.0,0.0,0.0,0.0,0.0,0.0,0.0,0.0,0.0,0.0,0.0,0.0,0.0,0.0,0.0,0.0,0.0,0.0,0.0,0.0,0.0,0.0,0.0,0.0,0.0,0.0,0.0,0.0,0.0,0.0,0.0,0.0,0.0,0.0,0.0,0.0,0.0,0.0,0.0,0.0,0.0,0.0,0.0,0.0,0.0,0.0,0.0,0.0,0.0,0.0,0.0,0.0,0.0,0.0,0.0,0.0,0.0,0.0,0.0,0.0,0.0,0.0,0.0,0.0,0.0,0.0,0.0,0.0,0.0,0.0,0.0,0.0,0.0,0.0,0.0,0.0,0.0,0.0,0.0,0.0,0.0,0.0,0.0,0.0,0.0,0.0,0.0,0.0,0.0,0.0,0.0,0.0,0.0,0.0,0.0,0.0,0.0,0.0,0.0,0.0,0.0,0.0,0.0,0.0,0.0,0.0,0.0,0.0,0.0,0.0,0.0,0.0,0.0,0.0,0.0,0.0,0.0,0.0,0.0,0.0,0.0,0.0,0.0,0.0,0.0,0.0,0.0,0.0,0.0,0.0,0.0,0.0,0.0,0.0,0.0,0.0,0.0,0.0,0.0,0.0,0.0,0.0,0.0,0.0,0.0,0.0,0.0,0.0,0.0,0.0,0.0,0.0,0.0,0.0,0.0,0.0,0.0,0.0,0.0,0.0,0.0,0.0,0.0,0.0,0.0,0.0,0.0,0.0,0.0,0.0,0.0,0.0,0.0,0.0,0.0,0.0,0.0,0.0,0.0,0.0,0.0,0.0,0.0,0.0,0.0,0.0,0.0,0.0,0.0,0.0,0.0,0.0,0.0,0.0,0.0,0.0,0.0,0.0,0.0,0.0,0.0,0.0,0.0,0.0,0.0,0.0,0.0,0.0,0.0,0.0,0.0,0.0,0.0,0.0,0.0,0.0,0.0,0.0,0.0,0.0,0.0,0.0,0.0,0.0,0.0,0.0,0.0,0.0,0.0,0.0,0.0,0.0,0.0,0.0,0.0,0.0,0.0,0.0,0.0,0.0,0.0,0.0,0.0,0.0,0.0,0.0,0.0,0.0,0.0,0.0,0.0,0.0,0.0,0.0,0.0,0.0,0.0,0.0,0.0,0.0,0.0,0.0,0.0,0.0,0.0,0.0,0.0,0.0,0.0,0.0,0.0,0.0,0.0,0.0,0.0,0.0,0.0,0.0,0.0,0.0,0.0,0.0,0.0,0.0,0.0,0.0,0.0,0.0,0.0,0.0,0.0,0.0,0.0,0.0,0.0,0.0,0.0,0.0,0.0,0.0,0.0,0.0,0.0,0.0,0.0,0.0,0.0,0.0,0.0,0.0,0.0,0.0,0.0,0.0,0.0,0.0,0.0,0.0,0.0,0.0,0.0,0.0,0.0,0.0,0.0,0.0,0.0,0.0,0.0,0.0,0.0,0.0,0.0,0.0,0.0,0.0,0.0,0.0,0.0,0.0,0.0,0.0,0.0,0.0,0.0,0.0,0.0,0.0,0.0,0.0,0.0,0.0,0.0,0.0,0.0,0.0,0.0,0.0,0.0,0.0,0.0,0.0,0.0,0.0,0.0,0.0,0.0,0.0,0.0,0.0,0.0,0.0,0.0,0.0,0.0,0.0,0.0,0.0,0.0,0.0,0.0,0.0,0.0,0.0,0.0,0.0,0.0,0.0,0.0,0.0,0.0,0.0,0.0,0.0,0.0,0.0,0.0,0.0,0.0,0.0,0.0,0.0,0.0,0.0,0.0,0.0,0.0,0.0,0.0,0.0,0.0,0.0,0.0,0.0,0.0,0.0,0.0,0.0,0.0,0.0,0.0,0.0,0.0,0.0,0.0,0.0,0.0,0.0,0.0,0.0,0.0,0.0,0.0,0.0,0.0,0.0,0.0,0.0,0.0,0.0,0.0,0.0,0.0,0.0,0.0,0.0,0.0,0.0,0.0,0.0,0.0,0.0,0.0,0.0,0.0,0.0,0.0,0.0,0.0,0.0,0.0,0.0,0.0,0.0,0.0,0.0,0.0,0.0,0.0,0.0,0.0,0.0,0.0,0.0,0.0,0.0,0.0,0.0,0.0,0.0,0.0,0.0,0.0,2.149,2.3169,0.0,0.0,0.0,0.0,0.0,0.0,0.0,0.0,0.0,0.0,0.0,0.0,0.0,0.0,0.0,0.0,0.0,0.0,0.0,0.0,0.0,0.0,0.0,0.0,0.0,0.0,0.0,0.0,0.0,0.0,0.0,0.0,0.0,0.0,0.0,0.0,0.0,0.0,0.0,0.0,0.0,0.0,0.0,0.0,0.0,0.0,0.0,0.0,0.0,0.0,0.0,0.0,0.0,0.0,0.0,0.0,0.0,0.0,0.0,0.0,0.0,0.0,0.0,0.0,0.0,0.0,0.0,0.0,0.0,0.0,0.0,0.0,0.0,0.0,0.0,0.0,0.0,0.0,0.0,0.0,0.0,0.0,0.0,0.0,0.0,0.0,0.0,0.0,0.0,0.0,0.0,0.0,0.0,0.0,0.0,0.0,0.0,0.0,0.0,0.0,0.0,0.0,0.0,0.0,0.0,0.0,0.0,0.0,0.0,0.0,0.0,0.0,0.0,0.0,2.3364,2.3371,0.0,0.0,0.0,0.0,0.0,0.0,0.0,0.0,0.0,0.0,0.0,0.0,0.0,0.0,0.0,0.0,0.0,0.0,0.0,0.0,0.0,0.0,0.0,0.0,0.0,0.0,0.0,0.0,0.0,0.0,0.0,0.0,0.0,0.0,0.0,0.0,0.0,0.0,0.0,0.0,0.0,0.0,0.0,0.0,0.0,0.0,0.0,0.0,0.0,0.0,0.0,0.0,0.0,0.0,0.0,0.0,0.0,0.0,0.0,0.0,0.0,0.0,0.0,0.0,0.0,0.0,0.0,0.0,0.0,0.0,0.0,0.0,0.0,0.0,0.0,0.0,0.0,0.0,0.0,0.0,0.0,0.0,0.0,0.0,0.0,0.0,0.0,0.0,0.0,0.0,0.0,0.0,0.0,0.0,0.0,0.0,0.0,0.0,0.0,0.0,0.0,0.0,0.0,0.0,0.0,0.0,0.0,0.0,2.9461,3.0307,3.0879,3.0247,2.9472,2.8505,2.6034,2.4332,2.3442,2.473,0.0,0.0,0.0,0.0,0.0,0.0,0.0,0.0,0.0,0.0,0.0,0.0,0.0,0.0,0.0,0.0,0.0,0.0,0.0,0.0,0.0,0.0,0.0,0.0,0.0,0.0,0.0,0.0,0.0,0.0,0.0,0.0,0.0,0.0,0.0,0.0,0.0,0.0,-1.5769,-1.3813,-1.1697,-0.925,-0.1754,0.0,0.0,0.0,0.0,0.0,0.0,0.0,0.0,0.0,0.0,0.0,0.0,0.0,0.0,0.0,0.0,0.0,0.0,0.0,0.0,0.0,0.0,0.0,0.0,0.0,0.0,0.0,0.0,0.0,0.0,0.0,0.0,0.0,0.0,0.0,0.0,0.0,0.0,0.0,0.0,0.0,0.0,0.0,1.2949,1.3128,0.0,0.0,0.0,0.0,0.0,0.0,0.0,0.0,0.0,0.0,0.0,0.0,0.0,2.4115,2.5346,2.8521,3.0174,3.0266,3.1897,3.2052,3.0918,3.1562,3.1305,3.0312,2.9233,0.0,2.5022,2.4499,0.0,0.0,0.0,0.0,0.0,0.0,0.0,0.0,0.0,0.0,0.0,0.0,0.0,0.0,0.0,0.0,0.0,0.0,0.0,0.0,0.0,0.0,0.0,0.0,0.0,0.0,0.0,0.0,0.0,0.0,0.0,0.0,0.0,0.0,0.0,0.0,-1.5404,-1.4975,-1.4031,-1.1222,-0.7458,-0.2788,0.296,0.7435,1.0877,1.3842,0.0,0.0,0.0,0.0,0.0,0.0,0.0,0.0,0.0,0.0,0.0,0.0,0.0,0.0,0.0,0.0,0.0,0.0,0.0,0.0,0.0,0.0,0.0,0.0,0.0,0.0,0.0,0.0,0.0,0.0,0.0,0.0,0.0,0.0,0.0,0.0,0.0,0.0,0.0,1.2499,1.2767,1.3006,1.3517,1.4075,0.0,0.0,0.0,0.0,0.0,0.0,0.0,0.0,0.0,2.3457,2.5372,2.7266,2.9153,3.0396,3.1482,3.2479,3.3456,3.3855,3.3719,3.3632,3.3336,3.2838,3.195,3.0594,2.8814,2.6517,2.5402,2.5119,0.0,0.0,0.0,0.0,2.4745,2.4884,0.0,0.0,0.0,0.0,0.0,0.0,0.0,0.0,0.0,0.0,0.0,0.0,0.0,0.0,0.0,-1.8135,0.0,0.0,0.0,0.0,0.0,0.0,0.0,0.0,0.0,0.0,0.0,0.0,-1.6984,-1.5694,-1.2192,-0.8548,-0.3414,0.298,0.7678,0.933,0.8793,1.2435,1.3881,0.0,0.0,0.0,0.0,0.0,0.0,0.0,0.0,0.0,0.0,0.0,0.0,0.0,0.0,0.0,0.0,0.0,0.0,0.0,0.0,0.0,0.0,0.0,0.0,0.0,0.0,0.0,0.0,0.0,0.0,0.0,0.0,0.0,0.0,0.0,0.0,0.0,0.0,1.1846,1.2526,1.269,1.3097,1.3869,0.0,0.0,0.0,0.0,0.0,0.0,2.1712,2.373,2.5662,2.7462,2.8818,3.0501,3.2518,3.2545,3.324,3.4558,3.5163,3.5616,3.5884,3.5524,3.5211,3.4872,3.3935,3.311,3.2177,2.8722,2.6891,2.6201,2.5585,2.5437,2.5525,2.5223,2.5292,2.5564,0.0,0.0,0.0,0.0,0.0,0.0,0.0,0.0,0.0,0.0,0.0,0.0,0.0,0.0,-1.6504,-1.7715,-1.7392,-1.6937,0.0,0.0,0.0,0.0,0.0,0.0,0.0,0.0,0.0,-1.9174,-1.7297,-1.4654,-1.1262,-0.651,-0.0927,0.5365,1.0824,1.4093,1.5447,1.475,1.4212,1.3506,0.0,0.0,0.0,0.0,0.0,0.0,0.0,0.0,0.0,0.0,0.0,0.0,0.0,0.0,0.0,0.0,0.0,0.0,0.0,0.0,0.0,0.0,0.0,0.0,0.0,0.0,0.0,0.0,0.0,0.0,0.0,0.0,0.0,0.0,0.0,0.0,0.0,0.0,0.0,1.0896,1.2754,0.0,0.0,0.0,0.0,2.0832,2.32,2.5642,2.8179,2.9117,2.9972,3.0823,3.2163,3.3408,3.4527,3.6033,3.6616,3.6286,3.7526,3.7325,3.5923,3.6774,3.6675,3.5783,3.4831,3.4334,3.3902,3.0411,2.8959,2.8725,2.6924,2.6569,2.7056,2.6857,2.6672,2.6497,0.0,0.0,0.0,0.0,0.0,0.0,0.0,0.0,0.0,0.0,0.0,0.0,0.0,-1.691,-1.6871,-1.808,-1.7602,-1.6952,-1.6344,0.0,0.0,0.0,0.0,0.0,0.0,0.0,-1.7181,-1.7531,-1.6531,-1.4142,-1.0398,-0.4647,0.0947,0.6408,1.1457,1.4582,1.6058,1.5675,1.4659,1.3013,0.9789,0.7101,0.0,0.0,0.0,0.0,0.0,0.0,0.0,0.0,0.0,0.0,0.0,0.0,0.0,0.0,0.0,0.0,0.0,0.0,0.0,0.0,0.0,0.0,0.0,0.0,0.0,0.0,0.0,0.0,0.0,0.0,0.0,0.0,0.0,0.0,0.0,0.0,0.0,1.2162,1.4312,0.0,1.7303,1.9211,2.1352,2.3634,2.6117,2.8263,2.9866,3.0902,3.2047,3.3371,3.3617,3.448,3.5978,3.6427,3.6453,3.6084,3.6986,3.6825,3.5789,3.6219,3.6247,3.5932,3.5568,3.531,3.5065,3.3205,3.1797,3.0648,2.9276,2.846,2.8016,2.78,2.7591,2.7354,0.0,0.0,0.0,0.0,0.0,0.0,0.0,0.0,0.0,0.0,0.0,-1.5359,-1.6987,-1.6888,-1.6978,-1.7678,-1.6958,-1.6284,-1.5827,0.0,0.0,0.0,0.0,0.0,0.0,-1.678,-1.7056,-1.7076,-1.648,-1.4053,-0.9835,-0.421,0.127,0.6591,1.0577,1.3066,1.4222,1.3652,1.284,1.1654,0.8725,0.5928,0.3243,0.0,0.0,0.0,0.0,0.0,0.0,0.0,0.0,0.0,0.0,0.0,0.0,0.0,0.0,0.0,0.0,0.0,0.0,0.0,0.0,0.0,0.0,0.0,0.0,0.0,0.0,0.0,0.0,0.0,0.0,0.0,0.0,0.0,0.0,0.0,1.2077,1.2898,1.4829,1.694,1.9107,2.112,2.3287,2.569,2.8271,3.0276,3.1509,3.274,3.3888,3.4959,3.4911,3.5524,3.6861,3.6736,3.6553,3.6314,3.6615,3.6391,3.5707,3.5838,3.5942,3.5996,3.5939,3.5843,3.5722,3.5045,3.4085,3.2926,3.1578,3.0569,2.9875,2.9731,2.9336,2.8825,0.0,0.0,0.0,0.0,0.0,0.0,0.0,0.0,0.0,0.0,-1.4687,-1.5533,-1.6382,-1.6702,-1.673,-1.6414,-1.5432,-1.4796,-1.4728,-1.3233,0.0,0.0,0.0,0.0,-1.5311,-1.6778,-1.7736,-1.8155,-1.7173,-1.4294,-0.9661,-0.5242,-0.0069,0.5666,0.8218,0.9731,1.025,0.8584,0.85,0.9265,0.6785,0.4117,0.1489,0.0,0.0,0.0,0.0,0.0,0.0,0.0,0.0,0.0,0.0,0.0,0.0,0.0,0.0,0.0,0.0,0.0,0.0,0.0,0.0,0.0,0.0,0.0,0.0,0.0,0.0,0.0,0.0,0.0,0.0,0.0,0.0,0.0,0.9645,1.0555,1.1646,1.2879,1.421,1.6141,1.9023,2.0926,2.3431,2.6948,2.9657,3.1838,3.3435,3.4862,3.56,3.56,3.6097,3.6643,3.7192,3.7223,3.7192,3.7129,3.6744,3.6275,3.5742,3.5875,3.5961,3.6035,3.5979,3.5942,3.5937,3.58,3.5726,3.5514,3.3663,3.2799,3.2607,3.2581,3.1884,3.0808,0.0,0.0,0.0,0.0,0.0,0.0,0.0,0.0,0.0,0.0,-1.4387,-1.5445,-1.5743,-1.5808,-1.5846,-1.5957,-1.4026,-1.2901,-1.3191,0.0,0.0,0.0,0.0,0.0,-1.577,-1.5939,-1.6437,-1.7338,-1.6323,-1.427,-1.1189,-0.7023,-0.3239,0.0118,0.3173,0.4641,0.4723,0.3544,0.2761,0.2374,0.2777,0.1416,-0.0928,0.0,0.0,0.0,0.0,0.0,0.0,0.0,0.0,0.0,0.0,0.0,0.0,0.0,0.0,0.0,0.0,0.0,0.0,0.0,0.0,0.0,0.0,0.0,0.0,0.0,0.0,0.0,0.0,0.0,0.0,0.0,0.8972,0.9728,0.9946,1.1714,1.3221,1.3866,1.598,1.7866,1.9157,2.2137,2.4866,2.6961,3.0129,3.2641,3.4215,3.513,3.56,3.56,3.5739,3.627,3.7173,3.7394,3.7643,3.797,3.8099,3.7613,3.6576,3.6662,3.6767,3.6878,3.6894,3.6884,3.684,3.6807,3.6365,3.5576,3.4386,3.3412,3.2589,3.19,3.0884,2.9792,0.0,0.0,0.0,0.0,0.0,0.0,0.0,0.0,0.0,0.0,-1.3995,-1.5011,-1.3863,-1.4459,-1.4615,-1.378,-1.2243,-1.1283,-1.1191,0.0,0.0,0.0,0.0,-1.4107,-1.5479,-1.5797,-1.6355,-1.7163,-1.5922,-1.4431,-1.2732,-0.938,-0.6251,-0.3438,-0.2325,-0.0918,0.0458,-0.1639,-0.2564,-0.2565,-0.2,-0.2031,-0.2504,-0.3095,-0.4083,-0.5136,-0.5277,-0.5184,-0.4921,-0.4617,0.0,0.0,0.0,0.0,0.0,0.0,0.0,0.0,0.0,0.0,0.0,0.0,0.0,0.0,0.0,0.0,0.0,0.0,0.0,0.0,0.0,0.0,0.0,0.0,0.9412,1.009,1.1074,1.2332,1.3403,1.4174,1.5895,1.7539,1.8934,2.1876,2.4612,2.6859,2.9711,3.2172,3.4071,3.4823,3.5316,3.56,3.5499,3.5828,3.6658,3.67,3.7077,3.7796,3.7986,3.7677,3.6908,3.7342,3.7419,3.7214,3.7653,3.7811,3.7761,3.739,3.6891,3.6276,0.0,0.0,0.0,0.0,3.0936,3.0132,0.0,0.0,0.0,0.0,0.0,0.0,0.0,0.0,0.0,0.0,0.0,-1.3998,-1.1303,-1.2655,-1.2926,-1.087,-1.0346,-0.9876,0.0,0.0,0.0,-1.1802,-1.3389,-1.4484,-1.5,-1.621,-1.7058,-1.7529,-1.5992,-1.4924,-1.4328,-1.1866,-0.8999,-0.5968,-0.7275,-0.5985,-0.3005,-0.6151,-0.6846,-0.5875,-0.6501,-0.5472,-0.3546,-0.4014,-0.4173,-0.4222,-0.4757,-0.4512,-0.3997,-0.4349,0.0,0.0,0.0,0.0,0.0,0.0,0.0,0.0,0.0,0.0,0.0,0.0,0.0,0.0,0.0,0.0,0.0,0.0,0.0,0.0,0.0,0.0,0.0,0.0,0.9847,1.0215,1.2254,1.2367,1.2736,1.4029,1.4874,1.6199,1.8337,2.0797,2.3501,2.6519,2.8761,3.1037,3.3463,3.4235,0.0,0.0,0.0,3.5575,3.6038,3.5858,3.6307,3.7384,3.7384,3.7317,3.7191,3.8043,3.8063,3.7509,3.8349,3.8709,3.865,3.7773,3.7324,3.7031,3.5873,3.4839,3.3819,3.2166,3.1398,3.1001,0.0,0.0,0.0,0.0,0.0,0.0,0.0,0.0,0.0,-0.8864,-1.0672,-1.137,-0.9413,-0.9939,-1.0298,-1.0021,-0.9055,-0.8794,0.0,0.0,-1.1572,-1.3066,-1.4434,-1.5508,-1.6307,-1.7243,-1.7935,-1.8354,-1.7169,-1.6451,-1.6123,-1.3016,-1.0904,-0.9675,-0.8269,-0.7244,-0.662,-0.73,-0.7456,-0.7214,-0.7267,-0.6201,-0.4544,-0.4313,-0.4081,-0.3871,-0.3873,-0.4316,-0.4656,-0.335,-0.3262,-0.3337,-0.1423,0.0,0.0,0.0,0.0,0.0,0.0,0.0,0.0,0.0,0.0,0.0,0.0,0.0,0.0,0.0,0.0,0.0,0.0,0.0,0.0,0.9553,0.9684,0.9963,1.091,1.1552,1.2539,1.4027,1.5516,1.6678,1.7423,2.0694,2.3571,2.5541,2.8353,3.1037,3.3463,3.4235,3.4918,3.5577,3.5981,3.6417,3.6943,3.7255,3.7991,3.9109,3.9109,0.0,3.8835,3.9069,3.9101,3.8996,3.9271,3.9406,3.9331,3.853,3.7411,3.6093,3.4413,3.3156,3.2158,3.1115,3.0531,3.0205,0.0,0.0,0.0,0.0,0.0,0.0,0.0,0.0,0.0,0.0,-1.0141,-1.0463,-0.8831,-0.9188,-0.9238,-0.8469,-0.8087,0.0,0.0,-1.0946,-1.2223,-1.3734,-1.5245,-1.6346,-1.7051,-1.8105,-1.8643,-1.8598,-1.7412,-1.6809,-1.6671,-1.4452,-1.2478,-1.0791,-1.0762,-0.9996,-0.8697,-0.8785,-0.882,-0.8712,-0.7932,-0.6716,-0.5359,-0.5499,-0.5369,-0.5124,-0.4871,-0.4996,-0.5048,-0.3616,-0.3278,-0.3232,-0.1947,-0.1546,-0.1332,0.0,0.0,0.0,0.0,0.0,0.0,0.0,0.0,0.0,0.0,0.0,0.0,0.0,0.0,1.0321,0.0,0.0,0.9844,1.0595,0.9765,0.9401,1.0436,1.0842,1.1507,1.2707,1.4964,1.6476,1.6491,2.0401,2.3421,2.4655,2.74,3.0178,3.2814,3.3349,3.4213,3.556,3.5736,3.5945,3.6206,3.6934,3.7682,3.8417,3.9212,3.9414,3.9067,3.9747,3.9807,3.9423,3.9974,3.9961,3.9501,3.8224,3.7006,3.5773,3.3983,3.2963,3.2341,3.0993,3.0372,3.0143,0.0,0.0,0.0,0.0,0.0,0.0,0.0,0.0,0.0,0.0,-0.9622,-0.9647,-0.8268,-0.8644,-0.8503,0.0,0.0,0.0,0.0,-1.1532,-1.2847,-1.4289,-1.5859,-1.698,-1.7617,-1.8633,-1.9111,-1.8978,-1.7487,-1.6875,-1.6991,-1.543,-1.3357,-1.101,-1.2483,-1.193,-0.9826,-0.969,-0.9756,-0.9887,-0.8436,-0.7164,-0.6225,-0.6802,-0.6661,-0.6102,-0.5729,-0.5495,-0.5143,-0.3942,-0.3267,-0.2888,-0.2751,-0.2295,-0.1731,-0.129,-0.0189,0.0,0.0,0.0,0.0,0.0,0.0,0.0,0.0,0.0,0.7922,0.9645,0.99,1.0341,1.2067,1.1564,1.1029,1.1471,0.9859,0.8841,0.9808,1.0079,1.045,1.1065,1.4212,1.6224,1.5943,2.0134,2.32,2.4006,2.6424,2.8997,3.1636,3.2155,3.3241,3.5149,3.521,3.5342,3.5581,3.6488,3.7146,3.7573,3.8883,3.9331,3.909,4.0115,4.0237,3.9648,4.0247,3.9958,3.8976,3.7553,3.6559,3.5745,3.4162,3.3418,3.2989,3.1173,3.0477,3.034,0.0,0.0,0.0,0.0,0.0,0.0,0.0,0.0,0.0,0.0,0.0,0.0,0.0,0.0,0.0,0.0,0.0,0.0,0.0,-1.1908,-1.311,-1.5186,-1.618,-1.7252,-1.8432,-1.8607,-1.9248,-2.039,-1.8157,-1.7441,-1.8156,-1.5006,-1.2815,-1.1395,-1.0708,-1.028,-0.9919,-0.8718,-0.892,-0.9899,-0.851,-0.7748,-0.7386,-0.7348,-0.6316,-0.484,-0.4375,-0.461,-0.4874,-0.3199,-0.2505,-0.2186,-0.1526,-0.1257,-0.1314,-0.1898,0.0,0.0188,0.0429,0.1398,0.2374,0.2604,0.2584,0.2861,0.0,0.0,0.6393,0.8535,0.9959,1.122,1.252,1.2193,1.1471,1.0517,0.9515,0.8519,0.7617,0.906,1.0118,0.9933,1.3989,1.6682,1.6346,2.0198,2.3094,2.3949,2.6057,2.8024,2.9723,3.0952,3.2303,3.3783,3.4797,3.5824,3.6973,3.7506,3.8125,3.8877,3.9069,3.9437,3.9967,4.0101,4.0245,4.0342,3.9721,3.8601,3.7181,3.6987,3.6515,3.5804,3.4827,3.3945,3.2995,3.1222,3.0552,3.0409,0.0,0.0,0.0,0.0,0.0,0.0,0.0,0.0,0.0,0.0,0.0,0.0,0.0,0.0,0.0,0.0,0.0,0.0,-1.1453,-1.1982,-1.3159,-1.5322,-1.6504,-1.7471,-1.8217,-1.8968,-1.9226,-1.8891,-1.7766,-1.7144,-1.7036,-1.5181,-1.3303,-1.1512,-1.1216,-1.0681,-0.9899,-0.8581,-0.8775,-0.9891,-0.8476,-0.7729,-0.7421,-0.705,-0.6243,-0.5329,-0.5108,-0.5035,0.0,0.0,-0.2359,-0.2077,-0.1325,-0.1386,-0.18,-0.2115,-0.1762,0.0,-0.0852,-0.0063,0.0,0.0,-0.1036,-0.0743,0.0975,0.2233,0.3892,0.6885,0.9171,1.0814,1.1407,1.1856,1.153,0.0,0.9139,0.8464,0.7158,0.8555,0.9528,0.9106,1.252,1.5222,1.5964,1.9337,2.1877,2.2754,2.4798,2.6794,2.8653,2.9381,3.0742,3.2885,3.384,3.4734,3.5618,3.6558,3.7343,3.7988,3.8462,3.8984,3.9541,3.9922,4.026,4.0439,3.9104,3.8166,3.7463,3.6498,3.598,3.5697,3.4873,3.4016,3.3106,3.1835,3.0964,3.0296,0.0,0.0,0.0,0.0,0.0,0.0,0.0,0.0,0.0,0.0,0.0,0.0,0.0,0.0,0.0,0.0,0.0,0.0,0.0,-1.1846,-1.3003,-1.4814,-1.626,0.0,-1.7998,-1.8997,-1.9151,-1.8322,-1.79,-1.7466,-1.6988,-1.5929,-1.4346,-1.2335,-1.2247,-1.1715,-1.0706,-0.9073,-0.9094,-1.0179,-0.8579,-0.765,-0.7105,-0.6779,-0.6229,-0.561,-0.5572,-0.5226,0.0,0.0,-0.2472,-0.2096,-0.1834,-0.1945,-0.228,-0.2764,-0.2756,-0.2464,-0.1902,0.0,0.0,-0.3499,-0.355,-0.2855,-0.1738,0.0291,0.2857,0.6062,0.8636,1.0475,1.0874,1.1612,1.1402,0.9116,0.8819,0.8383,0.7071,0.8044,0.876,0.8421,1.0622,1.2899,1.4799,1.8189,2.0705,2.1721,2.3691,2.5621,2.7342,2.793,2.9271,3.1628,3.2541,3.3373,3.4155,3.5438,3.6429,3.7112,3.7898,3.8556,3.9107,3.9797,4.0126,4.0092,3.8892,3.8084,3.7546,3.6363,3.5813,3.5648,3.5103,3.4364,3.3524,3.2603,3.1483,3.0254,0.0,0.0,0.0,0.0,0.0,0.0,0.0,0.0,0.0,0.0,0.0,0.0,0.0,0.0,0.0,0.0,0.0,0.0,0.0,-1.1523,-1.2603,-1.3525,-1.5224,-1.6731,-1.7978,-1.8412,-1.9036,-1.9817,-1.9054,-1.8865,-1.9256,-1.7419,-1.5823,-1.4462,-1.3426,-1.295,-1.2763,-1.0283,-0.9944,-1.091,-0.9116,-0.7654,-0.6567,-0.695,-0.6253,-0.51,-0.4965,0.0,0.0,0.0,-0.2701,-0.2166,-0.3053,-0.2809,0.0,-0.4142,-0.4127,-0.3459,-0.2991,0.0,-0.3393,-0.4951,-0.369,-0.2318,-0.3293,0.0135,0.4184,0.6496,0.8709,1.0554,1.1675,1.176,1.099,0.8782,0.8576,0.828,0.7054,0.7463,0.7825,0.7812,0.836,0.9833,0.0,1.6864,1.9932,2.1119,2.3163,2.465,2.5439,2.6712,2.8131,2.965,3.0846,3.2074,3.332,3.4654,3.5817,3.6826,3.7549,3.8334,3.9107,3.9797,3.9811,3.9342,3.9284,3.8296,3.6745,3.6816,3.6396,3.5713,3.5821,3.5292,3.4354,3.3481,3.2022,3.0327,0.0,0.0,0.0,0.0,0.0,0.0,0.0,0.0,0.0,0.0,0.0,0.0,0.0,0.0,0.0,0.0,0.0,0.0,0.0,-1.1773,-1.2615,-1.3081,-1.4851,-1.5845,-1.5889,-1.6824,-1.7125,-1.6738,-1.7009,-1.7136,-1.7016,-1.6349,-1.5323,-1.3919,-1.3496,-1.2513,-1.1087,-1.0023,-0.9794,-1.0061,-0.8782,-0.7965,-0.7391,-0.6543,-0.6114,-0.5903,0.0,0.0,0.0,0.0,0.0,-0.3467,-0.2821,-0.2751,-0.3051,-0.366,-0.386,-0.3881,-0.3937,0.0,-0.4743,-0.5284,-0.4894,-0.4059,-0.2838,-0.0047,0.2858,0.4855,0.7564,0.9612,0.959,1.0357,1.0257,0.8017,0.8137,0.8044,0.6801,0.8023,0.8763,0.8003,0.9426,0.0,0.0,0.0,0.0,1.9297,2.1188,2.2912,2.4448,2.5494,2.693,2.8812,2.9738,3.0803,3.2024,3.2969,3.3977,3.508,3.6502,3.7668,3.8575,3.8803,3.8728,3.8411,3.7834,3.7238,3.6668,3.6223,3.59,3.5713,3.5843,3.496,3.3598,3.3306,3.2039,3.0282,0.0,0.0,0.0,0.0,0.0,0.0,0.0,0.0,0.0,0.0,0.0,0.0,0.0,0.0,0.0,0.0,0.0,0.0,0.0,0.0,-1.2078,-1.242,-1.3892,-1.4656,-1.4541,-1.5342,-1.5529,-1.4979,-1.5703,-1.5986,-1.591,-1.5438,-1.4694,-1.374,-1.3046,-1.1952,-1.0565,-0.9857,-0.9519,-0.9387,-0.8598,-0.7831,-0.7092,-0.6713,-0.6342,0.0,0.0,0.0,0.0,0.0,0.0,-0.4621,-0.3669,-0.3597,-0.3901,-0.3994,-0.4299,-0.4725,-0.5158,-0.5646,-0.5941,-0.5634,-0.5296,-0.4394,-0.1964,0.0657,0.3114,0.4909,0.7485,0.9178,0.8299,0.9102,0.928,0.7472,0.7446,0.7643,0.7593,0.8291,0.8775,0.8568,0.9639,1.0768,0.0,0.0,0.0,1.8364,2.0234,2.2177,2.4334,2.5222,2.6433,2.8021,2.9022,2.9911,3.0706,3.1847,3.3009,3.4222,3.5684,3.6911,3.7929,3.7882,3.802,3.8238,3.749,3.6981,3.6675,3.6278,3.5935,3.5678,3.5531,3.4722,3.3598,3.2975,3.1932,3.068,0.0,0.0,0.0,0.0,0.0,0.0,0.0,0.0,0.0,0.0,0.0,0.0,0.0,0.0,0.0,0.0,0.0,0.0,0.0,0.0,0.0,-1.1528,-1.2414,-1.3199,-1.3929,-1.3987,-1.4211,-1.4676,-1.5098,-1.5537,-1.5977,-1.467,-1.4073,-1.3967,-1.221,-1.141,-1.1261,-0.9922,-0.9226,-0.9012,-0.8556,-0.7305,-0.5918,-0.7301,0.0,0.0,0.0,0.0,0.0,0.0,0.0,0.0,-0.5586,-0.5345,-0.5081,-0.5181,-0.5549,-0.6036,-0.6563,-0.6943,-0.6915,-0.5928,-0.4851,-0.3357,-0.093,0.2067,0.4751,0.6358,0.8229,0.9175,0.0,0.0,0.8179,0.7131,0.6672,0.7176,0.9218,0.8389,0.807,0.0,0.0,0.0,0.0,0.0,0.0,1.8375,2.0246,2.2308,2.4788,2.5702,2.6511,2.7279,2.8605,2.9335,2.9447,3.1276,3.2861,3.4152,3.5079,3.6087,3.7157,3.711,3.7645,3.8585,3.812,3.745,3.6643,3.6857,3.6432,3.5626,3.4969,3.4591,3.4234,3.2522,3.1788,3.141,0.0,0.0,0.0,0.0,0.0,0.0,0.0,0.0,0.0,0.0,0.0,0.0,0.0,0.0,0.0,0.0,0.0,0.0,0.0,0.0,0.0,0.0,0.0,0.0,0.0,0.0,0.0,0.0,0.0,-1.4209,-1.4611,-1.4101,-1.3662,0.0,-1.2271,-1.1461,-1.0762,-1.014,-0.9854,-0.9696,0.0,-0.7913,-0.7875,0.0,0.0,0.0,0.0,0.0,0.0,0.0,0.0,0.0,0.0,-0.7086,-0.7158,-0.6831,-0.707,-0.7379,-0.7062,-0.728,-0.7114,-0.4997,-0.421,-0.3299,-0.0687,0.1557,0.3546,0.5003,0.6634,0.7813,0.0,0.0,0.0,0.7687,0.7563,0.0,0.9427,1.0461,0.0,1.0794,0.0,1.2359,1.3193,1.3398,0.0,0.0,1.949,2.0899,2.2339,2.4428,2.6134,2.7265,2.7793,2.829,2.875,3.0124,3.1685,3.3392,3.3934,3.4616,3.5482,3.6585,3.6717,3.6086,3.6746,3.6577,3.5809,3.5913,3.5868,3.5639,3.4901,3.4177,3.3403,3.2307,3.1405,3.075,0.0,0.0,0.0,0.0,0.0,0.0,0.0,0.0,0.0,0.0,0.0,0.0,0.0,0.0,0.0,0.0,0.0,0.0,0.0,0.0,0.0,0.0,0.0,0.0,0.0,0.0,0.0,0.0,0.0,0.0,0.0,-1.2846,-1.2439,-1.2015,-1.1334,-1.0574,-0.9802,0.0,0.0,0.0,0.0,0.0,0.0,0.0,0.0,0.0,0.0,0.0,0.0,0.0,0.0,-0.8003,-0.8413,-0.8603,-0.855,-0.794,0.0,-0.8245,-0.758,-0.7235,-0.6541,-0.4505,-0.3546,-0.2372,0.0531,0.2229,0.363,0.5248,0.6657,0.0,0.7786,0.7919,0.8049,0.0,0.0,0.0,1.0608,1.1343,1.187,0.0,1.3232,0.0,1.4007,1.4488,1.5463,1.7143,1.8569,2.0162,2.192,2.3707,2.5339,2.6779,2.7287,2.8079,2.9271,2.998,3.0999,3.2273,3.288,3.3578,3.4353,3.5374,3.587,3.598,3.599,3.6005,3.5995,3.572,3.5648,3.5636,3.4885,3.4277,3.3702,3.2806,3.1845,3.1127,0.0,0.0,0.0,0.0,0.0,0.0,0.0,0.0,0.0,0.0,0.0,0.0,0.0,0.0,0.0,0.0,0.0,0.0,0.0,0.0,0.0,0.0,0.0,0.0,0.0,0.0,0.0,0.0,0.0,0.0,0.0,0.0,0.0,0.0,0.0,0.0,0.0,0.0,0.0,0.0,0.0,0.0,0.0,0.0,0.0,0.0,0.0,0.0,0.0,0.0,-1.1242,-0.9457,-1.0205,-1.0195,-0.9782,-0.8945,-0.8917,-0.8957,-0.805,-0.6944,-0.5672,-0.4355,-0.291,-0.1058,0.1945,0.3189,0.4246,0.6189,0.0,0.7827,0.7419,0.8346,0.9027,0.8537,0.0,0.9904,1.1817,1.1521,1.1712,1.3419,1.4381,1.4856,1.4615,1.5623,1.637,1.6674,1.7869,1.9727,2.2372,2.332,2.4525,2.6185,2.7001,2.8316,3.0166,3.0242,3.0576,3.121,3.2021,3.2821,3.3558,3.4045,3.5179,3.6715,3.5703,3.5801,3.6649,3.589,3.5688,3.5788,3.4915,3.4586,3.4482,3.356,3.2679,3.2091,0.0,0.0,0.0,0.0,0.0,0.0,0.0,0.0,0.0,0.0,0.0,0.0,0.0,0.0,0.0,0.0,0.0,0.0,0.0,0.0,0.0,0.0,0.0,0.0,0.0,0.0,0.0,0.0,0.0,0.0,0.0,0.0,0.0,0.0,0.0,0.0,0.0,0.0,0.0,0.0,0.0,0.0,0.0,0.0,0.0,0.0,0.0,0.0,0.0,0.0,-1.1887,-1.1389,-1.2757,-1.2769,-1.1945,-1.06,-1.0244,-0.9949,-0.8403,-0.7015,-0.5658,-0.4339,-0.2511,-0.0518,0.1764,0.2767,0.0,0.0,0.6674,0.6901,0.7524,0.7838,0.7943,0.7722,0.8001,0.8905,1.0788,1.1372,1.2078,0.0,1.4767,1.5868,1.6701,1.6665,0.0,0.0,1.8406,1.8901,2.1264,2.2829,2.4484,2.6374,2.7181,2.8216,2.954,2.9579,3.0109,3.121,3.1678,3.2197,3.2763,3.4079,3.4853,3.5148,3.5807,3.6326,3.6642,3.5842,3.601,3.6614,3.511,3.4552,3.4482,3.356,3.3064,3.2977,0.0,0.0,0.0,0.0,0.0,0.0,0.0,0.0,0.0,0.0,0.0,0.0,0.0,0.0,0.0,0.0,0.0,0.0,0.0,0.0,0.0,0.0,0.0,0.0,0.0,0.0,0.0,0.0,0.0,0.0,0.0,0.0,0.0,0.0,0.0,0.0,0.0,0.0,0.0,0.0,0.0,0.0,0.0,0.0,0.0,0.0,0.0,0.0,0.0,0.0,-1.2262,-1.1881,-1.3089,-1.3184,-1.2479,-1.0789,-1.0333,-0.9884,-0.7488,-0.5931,-0.4648,-0.329,-0.1416,0.0502,0.1868,0.0,0.0,0.0,0.5931,0.6081,0.6864,0.7261,0.0,0.716,0.7583,0.8504,1.0097,1.0848,0.0,1.3227,1.476,1.6039,1.6902,1.6801,1.7592,1.9761,1.8527,1.8515,2.0367,2.2643,2.4511,2.5878,2.7312,2.8496,2.9384,2.9717,3.033,3.121,3.1621,3.2057,3.2517,3.3533,3.4461,3.5337,3.5429,3.5931,3.6635,3.5827,3.5834,3.6248,3.5447,3.5219,3.5264,3.47,3.4224,3.3929,0.0,0.0,0.0,0.0,0.0,0.0,0.0,0.0,-0.8799,-0.9219,-0.9199,-0.8975,-0.8581,-0.8314,0.0,0.0,0.0,0.0,0.0,0.0,0.0,0.0,0.0,0.0,0.0,0.0,0.0,-1.0303,0.0,0.0,0.0,0.0,0.0,0.0,-1.0236,0.0,0.0,0.0,0.0,0.0,0.0,0.0,0.0,0.0,0.0,0.0,0.0,0.0,0.0,0.0,-1.2177,-1.16,-1.2307,-1.2487,-1.2073,-1.0337,-0.9961,-0.9441,-0.6496,-0.4869,-0.3692,-0.2335,-0.0314,0.1543,0.2262,0.3041,0.0,0.0,0.5539,0.5553,0.6262,0.6734,0.6915,0.0,0.6965,0.7836,0.9191,0.9781,1.0782,0.0,1.4363,0.0,1.6715,1.6817,0.0,1.9897,1.8817,1.8682,2.0094,2.2512,2.4332,2.537,2.7253,2.8631,2.9384,2.9995,3.0601,3.121,3.1621,3.2057,3.2517,3.2983,3.4089,3.5601,3.4968,3.5464,3.6635,3.5827,3.5698,3.5956,3.5762,3.5812,3.5976,3.5763,3.5298,3.4827,0.0,0.0,0.0,0.0,0.0,0.0,0.0,0.0,-0.965,-1.0126,-0.9814,-0.9396,-0.8994,-0.8236,0.0,0.0,0.0,0.0,0.0,0.0,0.0,0.0,0.0,0.0,0.0,0.0,0.0,-1.0303,-1.0303,0.0,0.0,0.0,0.0,0.0,0.0,-0.9112,-0.7965,0.0,0.0,0.0,0.0,0.0,0.0,0.0,0.0,0.0,0.0,0.0,0.0,0.0,0.0,-1.0799,-1.0761,-1.0936,-1.0902,-0.9558,0.0,0.0,-0.6213,-0.4724,-0.3669,-0.2352,0.0086,0.2277,0.3029,0.0,0.0,0.6213,0.5968,0.5681,0.6287,0.6437,0.6253,0.5553,0.0,0.6048,0.7527,0.7668,0.8817,1.2013,0.0,0.0,1.7049,1.7244,1.8169,2.0382,1.9671,1.9707,2.0996,2.2368,2.3797,2.5342,2.6761,2.8115,2.9384,2.9995,3.0601,3.121,3.1621,3.2057,3.2517,3.2983,3.38,3.4807,3.4732,3.5464,3.6635,3.5827,3.6041,3.6802,3.6011,3.5812,3.5976,3.5763,3.5648,3.5581,0.0,0.0,0.0,0.0,0.0,0.0,0.0,-0.877,-0.9033,-0.9453,-0.9143,-0.8901,-0.8989,-0.7794,0.0,0.0,0.0,0.0,0.0,0.0,0.0,0.0,0.0,0.0,0.0,0.0,0.0,-1.0303,-1.0303,0.0,0.0,0.0,0.0,0.0,0.0,-0.9211,-0.7925,0.0,0.0,0.0,0.0,0.0,0.0,0.0,0.0,0.0,0.0,0.0,0.0,0.0,0.0,0.0,-0.9019,-0.8663,0.0,0.0,-0.8561,-0.8186,-0.4789,-0.3826,-0.316,-0.063,0.1116,0.2438,0.3291,0.0,0.4465,0.5049,0.4797,0.4555,0.478,0.4781,0.4882,0.0,0.0,0.0,0.7209,0.7435,0.8393,1.1072,1.2612,0.0,0.0,0.0,1.8321,1.9333,1.9564,2.002,2.0806,2.1721,2.32,2.5329,2.6709,2.8027,2.9384,2.9995,3.0601,3.121,3.1621,3.2057,3.2517,3.2983,3.3763,3.4694,3.4694,3.5189,3.5942,3.5635,3.5776,3.6186,3.584,3.5812,3.5976,3.5763,3.5707,3.5678,0.0,0.0,0.0,0.0,0.0,0.0,-0.833,-0.8502,-0.8639,-0.8812,-0.8669,-0.8635,-0.8816,-0.766,-0.6828,-0.6692,0.0,0.0,0.0,0.0,0.0,0.0,0.0,0.0,0.0,0.0,0.0,-1.0303,-1.0303,-1.0303,0.0,0.0,-1.0004,-0.8737,0.0,0.0,0.0,0.0,0.0,0.0,0.0,0.0,0.0,0.0,0.0,0.0,0.0,0.0,0.0,0.0,0.0,0.0,0.0,0.0,0.0,0.0,-0.7503,-0.7,-0.3598,-0.3082,-0.2743,0.0167,0.1547,0.23,0.0,0.0,0.413,0.413,0.3984,0.3846,0.3799,0.3733,0.4108,0.0,0.0,0.5748,0.7541,0.7806,0.8522,0.0,0.0,1.4046,1.6786,1.8309,1.9162,1.9187,1.9882,2.0499,2.0976,2.1483,2.2765,2.5007,2.6381,2.7728,2.9071,2.9897,3.0601,3.121,3.1751,3.2179,3.2517,3.3105,3.3821,3.4551,3.4663,3.4963,3.5383,3.5479,3.5582,3.5707,3.5707,3.5812,3.5976,3.5763,3.5707,3.5678,0.0,0.0,0.0,0.0,0.0,0.0,0.0,-0.873,-0.8858,-0.8462,-0.8748,-0.885,-0.8445,-0.8038,-0.7605,-0.7131,0.0,0.0,0.0,0.0,0.0,0.0,0.0,0.0,0.0,0.0,0.0,0.0,0.0,-1.0303,-1.0303,-1.0303,-0.9725,-0.8712,0.0,0.0,0.0,0.0,0.0,0.0,0.0,0.0,0.0,0.0,0.0,0.0,0.0,0.0,0.0,0.0,0.0,0.0,0.0,0.0,0.0,0.0,-0.6227,-0.5629,-0.293,-0.2651,-0.2591,-0.0517,0.1029,0.1996,0.0,0.0,0.3998,0.3998,0.3994,0.3947,0.3819,0.3788,0.4298,0.585,0.6096,0.0,0.843,0.8575,0.9008,0.0,0.0,1.3313,1.6154,1.9311,2.1011,2.0598,2.0944,2.1389,2.187,2.1877,2.2634,2.4263,2.5602,2.6952,2.8294,2.9636,3.0601,3.121,3.2074,3.2501,3.2534,3.3404,3.3935,3.4211,3.4551,3.4841,3.5122,3.5383,3.5582,3.5707,3.5707,3.5812,3.5976,3.5763,3.5707,3.5678,0.0,0.0,0.0,0.0,0.0,0.0,0.0,0.0,-0.7664,-0.753,-0.7137,-0.7047,-0.7474,-0.6658,-0.6249,-0.6654,0.0,0.0,0.0,0.0,0.0,0.0,0.0,0.0,0.0,0.0,0.0,0.0,0.0,0.0,0.0,0.0,-0.9864,-0.9102,-0.9098,-0.8556,0.0,0.0,0.0,0.0,0.0,0.0,0.0,0.0,0.0,0.0,0.0,0.0,0.0,0.0,0.0,0.0,0.0,0.0,0.0,0.0,0.0,0.0,-0.2644,-0.1666,-0.0802,0.1047,0.2131,0.2982,0.3923,0.0,0.4479,0.4479,0.4357,0.4146,0.3743,0.3668,0.4115,0.5477,0.5529,0.0,0.0,0.0,0.0,1.0265,1.3541,1.6628,0.0,0.0,2.0759,2.0613,2.1285,2.1729,2.1889,2.2414,2.3203,2.4263,2.519,2.6098,2.6976,2.8297,2.9265,2.9929,3.1168,3.202,3.2534,3.3404,3.3948,3.4211,3.4551,3.4841,3.5122,3.5383,3.5582,3.5707,3.5707,3.5812,3.5976,3.5763,3.5707,3.5648,0.0,0.0,0.0,0.0,0.0,0.0,0.0,0.0,-0.6811,-0.6669,-0.6336,-0.6317,-0.6811,-0.6204,-0.5953,-0.6447,0.0,0.0,0.0,0.0,0.0,0.0,0.0,0.0,0.0,0.0,0.0,0.0,0.0,0.0,0.0,0.0,0.0,0.0,-0.9243,0.0,0.0,0.0,0.0,0.0,0.0,0.0,-0.7,0.0,0.0,0.0,0.0,0.0,0.0,0.0,0.0,0.0,0.0,0.0,0.0,0.0,-0.3071,-0.2672,0.0,-0.0786,0.006,0.1659,0.2502,0.0,0.0,0.4538,0.4657,0.4884,0.4825,0.4565,0.4008,0.4173,0.469,0.5589,0.5866,0.6272,0.0,0.0,0.0,1.1971,0.0,0.0,0.0,2.0592,2.0856,2.1096,2.2087,2.2603,2.2353,2.3113,2.3767,2.4292,2.5007,2.5493,2.5692,2.7458,2.8688,2.9323,3.0783,3.1838,3.2534,3.3404,3.3889,3.408,3.4508,3.4784,0.0,3.5354,3.5582,3.5707,3.5707,3.5806,3.5948,3.5752,3.5682,3.5605,0.0,0.0,0.0,0.0,0.0,0.0,0.0,0.0,0.0,0.0,0.0,-0.641,-0.6409,-0.6419,0.0,0.0,0.0,0.0,0.0,0.0,0.0,0.0,0.0,0.0,0.0,0.0,0.0,-1.0303,-0.9854,-0.9893,-1.04,0.0,0.0,0.0,0.0,0.0,0.0,0.0,0.0,0.0,0.0,0.0,0.0,0.0,0.0,0.0,0.0,0.0,0.0,0.0,0.0,0.0,0.0,0.0,0.0,0.0,0.0,0.0,0.0,0.0073,0.0,0.0,0.0,0.0,0.0,0.0,0.0,0.5173,0.5303,0.5113,0.4539,0.5086,0.572,0.5928,0.6698,0.7337,0.0,0.9112,0.0,0.0,1.5081,0.0,1.9448,2.0618,2.1353,2.1874,2.3151,2.3703,2.3133,2.3855,2.4266,2.4226,2.5009,2.5122,2.45,2.7009,2.8528,2.9054,3.0661,3.176,3.2395,3.3368,3.3807,3.3829,3.4409,3.4674,3.4734,3.5262,3.5563,3.5707,3.5713,3.5784,3.5877,3.5755,3.5659,3.5549,0.0,0.0,0.0,0.0,0.0,0.0,0.0,0.0,0.0,0.0,0.0,-0.5582,-0.5589,-0.558,0.0,0.0,0.0,0.0,0.0,0.0,0.0,0.0,0.0,0.0,0.0,0.0,0.0,-1.0303,-1.0186,-1.0537,-1.1281,-1.0503,0.0,0.0,0.0,0.0,0.0,0.0,0.0,0.0,0.0,0.0,0.0,0.0,0.0,0.0,-0.6859,-0.6725,0.0,0.0,0.0,0.0,0.0,0.0,0.0,0.0,-0.0978,0.0201,0.1128,0.0,0.2233,0.2427,0.3029,0.3662,0.0,0.0,0.0,0.0,0.0,0.0,0.0,0.4891,0.4985,0.4696,0.5378,0.6234,0.71,0.0,0.0,1.3135,1.5311,1.7212,1.8424,2.0467,2.1778,2.1886,2.2771,2.3246,2.3108,2.3855,2.411,2.3634,2.4827,2.5155,2.4503,2.5583,2.623,2.6425,2.8842,3.0366,3.1112,3.2955,3.3807,3.3815,3.4177,3.4456,3.4734,3.5117,3.5433,3.5713,3.5807,3.5875,3.5877,3.5755,3.5659,3.5513,0.0,0.0,0.0,0.0,0.0,0.0,0.0,0.0,0.0,0.0,0.0,0.0,0.0,0.0,0.0,0.0,0.0,0.0,0.0,0.0,0.0,0.0,0.0,0.0,0.0,0.0,0.0,0.0,0.0,-1.0792,0.0,0.0,0.0,0.0,0.0,0.0,0.0,0.0,0.0,0.0,-0.7,0.0,0.0,0.0,0.0,0.0,-0.652,-0.6258,0.0,-0.6047,-0.5928,-0.5574,0.0,0.0,0.0,0.0,-0.0503,0.0958,0.1628,0.2289,0.2858,0.3069,0.3416,0.3828,0.4284,0.0,0.0,0.0,0.0,0.0,0.0,0.0,0.5309,0.4983,0.5668,0.0,0.0,0.0,1.1581,1.3224,1.5048,1.6775,1.8364,2.0325,2.162,2.1897,2.2911,2.3566,2.3645,2.4394,2.4801,2.4819,2.5285,2.5092,2.4149,2.5046,2.5623,2.5893,2.7877,2.9369,3.0475,3.2227,3.3104,3.3288,3.3926,3.439,3.4734,3.5059,3.5394,3.5713,3.5843,3.5859,3.5802,3.5723,3.5644,3.5496,0.0,0.0,0.0,0.0,0.0,0.0,0.0,0.0,0.0,0.0,0.0,0.0,0.0,0.0,0.0,0.0,0.0,0.0,0.0,0.0,0.0,0.0,0.0,0.0,0.0,0.0,0.0,0.0,0.0,0.0,0.0,0.0,-1.0023,0.0,0.0,0.0,0.0,0.0,0.0,-0.6993,-0.6869,0.0,0.0,0.0,0.0,0.0,0.0,0.0,0.0,-0.5112,-0.5024,-0.4833,-0.4309,0.0,0.0,0.0,0.0,0.0,0.1745,0.224,0.2854,0.3442,0.3617,0.3735,0.4184,0.0,0.0,0.0,0.0,0.0,0.0,0.5392,0.0,0.0,0.0,0.0,0.9156,1.0095,1.1517,1.3902,1.4858,1.6278,1.8635,2.0227,2.1318,2.1862,2.3115,2.3938,2.4129,2.4843,2.5546,2.6155,2.5717,2.4949,2.3847,2.4885,2.5621,2.6034,2.7325,2.8625,2.996,3.1308,3.216,3.2664,3.3592,3.4278,3.4734,3.507,3.5416,3.5717,3.5841,3.5815,3.5703,3.5689,3.5601,3.5453,0.0,0.0,0.0,0.0,0.0,0.0,0.0,0.0,0.0,0.0,0.0,0.0,0.0,0.0,0.0,0.0,0.0,0.0,0.0,0.0,0.0,0.0,0.0,0.0,0.0,0.0,0.0,0.0,0.0,0.0,-1.1595,-1.069,-0.9502,0.0,0.0,0.0,-0.6965,-0.6341,-0.642,-0.6938,-0.6321,0.0,0.0,0.0,0.0,0.0,0.0,0.0,0.0,-0.4939,-0.4685,-0.4127,-0.3921,0.0,0.0,0.0,0.0,0.0,0.1562,0.2234,0.2854,0.3442,0.3692,0.375,0.3739,0.0,0.0,0.0,0.0,0.0,0.0,0.5335,0.542,0.0,0.0,0.8423,0.0,0.0,1.3863,1.3377,1.5941,1.7876,1.8209,2.0025,2.1395,2.1853,2.2723,2.3297,2.3441,2.4136,2.4626,2.4783,2.4779,2.4664,2.4454,2.4539,2.4611,2.4723,2.6776,2.8049,2.8654,3.0331,3.1638,3.2627,3.3017,3.3765,3.4735,3.5123,3.5441,3.571,3.5859,3.5828,3.5696,3.5639,3.5574,3.5432,0.0,0.0,0.0,0.0,0.0,0.0,0.0,0.0,0.0,0.0,0.0,0.0,0.0,0.0,0.0,0.0,0.0,0.0,0.0,0.0,0.0,0.0,0.0,0.0,0.0,0.0,0.0,0.0,0.0,-1.1715,-1.1721,-1.0206,-0.8856,-0.7655,0.0,0.0,-0.6972,-0.6647,-0.6453,-0.6413,0.0,0.0,0.0,0.0,0.0,0.0,0.0,0.0,0.0,0.0,-0.3678,-0.3398,-0.3335,0.0,0.0,0.0,0.0,0.0,0.1505,0.2244,0.2816,0.3322,0.3568,0.3682,0.3617,0.3914,0.0,0.0,0.0,0.0,0.0,0.0,0.5793,0.6679,0.0,1.0628,1.1273,1.2886,1.4118,1.4517,1.6286,1.7578,1.7869,1.9899,2.1152,2.1097,2.2063,2.2741,2.2919,2.3593,2.4161,2.4581,2.4596,2.4724,2.5042,2.4911,2.4831,2.4851,2.6169,2.7114,2.7799,2.9263,3.0566,3.1737,3.2624,3.3379,3.4035,3.4424,3.4775,3.5054,3.5154,3.54,3.5686,3.5574,3.5534,3.5439,0.0,0.0,0.0,0.0,0.0,0.0,0.0,0.0,0.0,0.0,0.0,0.0,0.0,0.0,0.0,0.0,0.0,0.0,0.0,0.0,0.0,0.0,0.0,0.0,0.0,0.0,-1.0856,-1.151,-1.1735,-1.1728,-1.151,-0.9676,-0.8295,0.0,0.0,0.0,-0.6685,-0.6553,-0.621,-0.5792,0.0,0.0,0.0,0.0,0.0,0.0,0.0,0.0,0.0,0.0,0.0,0.0,0.0,0.0,0.0,-0.1664,-0.088,0.0142,0.1435,0.2145,0.2613,0.3166,0.0,0.3424,0.3356,0.3528,0.0,0.0,0.0,0.0,0.0,0.5557,0.0,0.8304,1.0202,1.1952,1.3556,1.3967,1.4628,1.6068,1.6821,1.7551,1.8294,2.0003,2.095,2.073,2.1681,2.2337,2.2352,2.3008,2.3627,2.4221,2.4184,2.4421,2.4977,2.4982,2.5002,2.5115,2.5643,2.6303,2.7091,2.8103,2.9429,3.0957,3.2055,3.2983,3.3714,3.3781,3.4194,3.4745,3.4408,3.4703,3.5361,3.5463,3.55,3.5446,0.0,0.0,0.0,0.0,0.0,0.0,0.0,0.0,0.0,0.0,0.0,0.0,0.0,0.0,0.0,0.0,0.0,0.0,0.0,0.0,0.0,0.0,0.0,0.0,0.0,-1.0079,-1.0967,-1.097,-1.1818,-1.1655,-1.0484,-0.9155,-0.799,-0.702,0.0,0.0,-0.5763,-0.5253,-0.5164,-0.5269,-0.4375,0.0,0.0,0.0,0.0,0.0,0.0,0.0,0.0,0.0,0.0,0.0,0.0,0.0,-0.2479,-0.1589,-0.1267,-0.0759,0.1256,0.1824,0.2099,0.3057,0.312,0.2879,0.2642,0.2971,0.0,0.3599,0.0,0.0,0.0,0.5943,0.659,0.8466,0.939,1.0652,1.3013,1.5157,1.671,1.7468,1.8086,1.8972,2.0267,2.053,2.0912,2.1542,2.2035,2.2115,2.1681,2.2293,2.2724,2.2853,2.2832,2.3107,2.3719,2.41,2.4463,2.4836,2.5363,2.5851,2.6294,2.675,2.8397,3.0917,3.1067,3.2468,3.4537,3.3629,3.4182,3.5466,3.3902,3.3706,3.4392,3.5206,3.55,3.5432,0.0,0.0,0.0,0.0,0.0,0.0,0.0,0.0,0.0,0.0,0.0,0.0,0.0,0.0,0.0,0.0,0.0,0.0,0.0,0.0,0.0,0.0,0.0,-0.7633,-0.8746,-0.9651,-1.0378,-1.0908,-1.0749,-1.0277,-0.9429,-0.8168,0.0,0.0,0.0,0.0,-0.5544,-0.5085,-0.4704,-0.4371,-0.4453,-0.4432,0.0,0.0,0.0,0.0,0.0,0.0,0.0,0.0,-0.2869,-0.2805,0.0,-0.2696,-0.251,0.0,-0.1306,-0.0874,0.1131,0.1739,0.2013,0.2946,0.3042,0.0,0.0,0.3069,0.3591,0.4005,0.4907,0.0,0.0,0.0,0.9092,0.9787,1.0871,1.2228,1.3977,1.5281,1.6354,1.7278,1.806,1.8752,1.925,1.9939,2.0321,2.0269,2.092,2.1049,2.0514,2.1113,2.149,2.1521,2.189,2.248,2.3269,2.3899,2.4103,2.3941,2.5056,2.5672,2.5846,2.6236,2.7638,2.9822,3.0376,3.1289,3.2335,3.2382,3.3077,3.4188,3.4597,3.4881,3.5112,3.5386,3.55,3.5424,0.0,0.0,0.0,0.0,0.0,0.0,0.0,0.0,0.0,0.0,0.0,0.0,0.0,0.0,0.0,0.0,0.0,0.0,0.0,0.0,0.0,0.0,0.0,-0.751,-0.878,-0.9081,-0.9767,-1.0908,-1.0022,-0.9261,-0.8614,0.0,0.0,0.0,0.0,0.0,0.0,-0.4752,-0.4225,-0.3626,-0.409,-0.4082,0.0,0.0,0.0,0.0,0.0,0.0,0.0,0.0,-0.2913,0.0,0.0,0.0,0.0,0.0,-0.1137,-0.0573,0.1132,0.1753,0.212,0.2954,0.0,0.0,0.2479,0.3054,0.3781,0.4248,0.5551,0.6908,0.7892,0.0,0.0,1.0769,1.1624,1.2882,1.4775,1.5373,1.6018,1.7128,1.8019,1.8554,1.8689,1.9602,2.0099,1.9836,2.0182,2.015,1.9585,2.0164,2.0528,2.0528,2.1093,2.1862,2.2835,2.3307,2.3404,2.3167,2.4189,2.4755,2.4931,2.5564,2.6909,2.8788,2.9635,3.0497,3.1334,3.1748,3.2262,3.3007,3.4948,3.5313,3.483,3.5316,3.55,3.5424,0.0,0.0,0.0,0.0,0.0,0.0,0.0,0.0,0.0,0.0,0.0,0.0,0.0,0.0,0.0,0.0,0.0,0.0,0.0,0.0,0.0,0.0,0.0,-0.7089,-0.8366,-0.8398,-0.9219,-1.0878,-0.9814,-0.8874,-0.8054,-0.6798,0.0,0.0,0.0,0.0,0.0,0.0,-0.3651,-0.3084,-0.2946,-0.3064,-0.3286,0.0,0.0,0.0,0.0,0.0,0.0,0.0,-0.2927,-0.2727,0.0,0.0,0.0,-0.1442,-0.0771,0.0063,0.127,0.1886,0.2376,0.0,0.0,0.0,0.197,0.2839,0.389,0.4162,0.597,0.7887,0.9107,0.9045,0.9405,1.1141,1.1188,1.2098,1.5149,1.561,1.6029,1.7229,1.8049,1.8669,1.9056,1.9767,2.0326,2.0663,2.0125,1.9572,1.902,1.955,1.9887,1.9887,2.0424,2.1201,2.2281,2.216,2.2264,2.2603,2.2666,2.2965,2.3441,2.4577,2.6135,2.8034,2.8772,3.0272,3.2173,3.1995,3.1953,3.2254,3.4726,3.4591,3.3214,3.4886,3.55,3.5424,0.0,0.0,0.0,0.0,0.0,0.0,0.0,0.0,0.0,0.0,0.0,0.0,0.0,0.0,0.0,0.0,0.0,0.0,0.0,0.0,0.0,0.0,0.0,0.0,0.0,0.0,-0.8637,-0.9428,-0.872,-0.8119,0.0,0.0,0.0,-0.6014,0.0,0.0,0.0,0.0,-0.3072,-0.2808,-0.2781,-0.2866,-0.3027,0.0,0.0,0.0,0.0,0.0,0.0,0.0,0.0,0.0,0.0,0.0,0.0,-0.1129,-0.0415,0.0298,0.1317,0.199,0.0,0.3329,0.0,0.0,0.0,0.3279,0.0,0.0,0.777,0.9507,1.0027,1.0728,1.1643,1.306,1.3146,1.3458,1.4673,1.5163,1.5519,1.5863,1.7349,1.8401,1.8521,1.9377,1.98,1.9522,1.9334,1.8995,1.848,1.8928,1.9203,1.9203,1.972,2.0429,2.1381,2.1853,2.2199,2.2398,2.2929,2.3542,2.4186,2.4233,2.5592,2.7936,2.8303,2.9558,3.1472,3.3074,3.342,3.3178,3.4998,3.5025,3.4171,3.5142,3.55,3.5446,0.0,0.0,0.0,0.0,0.0,0.0,0.0,0.0,0.0,0.0,0.0,0.0,0.0,0.0,0.0,0.0,0.0,0.0,0.0,0.0,0.0,0.0,0.0,0.0,0.0,-0.7751,-0.8141,0.0,0.0,0.0,0.0,0.0,0.0,-0.6159,0.0,-0.4627,0.0,0.0,-0.2907,-0.2771,-0.2771,-0.2825,-0.2881,0.0,0.0,0.0,0.0,0.0,0.0,0.0,0.0,0.0,0.0,0.0,0.0,-0.0942,-0.0108,0.0688,0.1309,0.2057,0.0,0.3349,0.3341,0.3304,0.366,0.0,0.0,0.0,0.8819,1.0372,1.1059,1.1909,1.2806,1.368,1.386,1.4098,1.4739,1.5358,1.5824,1.6042,1.7643,1.8663,1.8485,1.9083,1.9334,1.902,1.8607,1.8229,1.789,1.8329,1.8583,1.8583,1.9303,2.012,2.0991,2.1439,2.1871,2.2296,2.2699,2.3529,2.4731,2.4488,2.5498,2.751,2.8403,2.9974,3.1969,3.3037,3.3423,3.3489,3.4739,3.4683,3.4038,3.5116,3.55,3.5453,0.0,0.0,0.0,0.0,0.0,0.0,0.0,0.0,0.0,0.0,0.0,0.0,0.0,0.0,0.0,0.0,0.0,0.0,0.0,0.0,0.0,0.0,0.0,0.0,0.0,0.0,0.0,0.0,0.0,0.0,0.0,0.0,-0.6176,-0.6077,0.0,-0.4729,0.0,-0.3502,-0.301,-0.2907,-0.2893,-0.2896,-0.2853,-0.2375,0.0,0.0,0.0,0.0,0.0,0.0,0.0,0.0,-0.2523,-0.2045,-0.1474,-0.0829,0.0205,0.1169,0.1296,0.2111,0.3,0.3276,0.3658,0.0,0.4575,0.5021,0.5896,0.7765,0.0,1.0766,1.2005,1.2671,1.3128,1.3482,1.379,1.4313,1.5214,1.5927,1.6556,1.7036,1.834,1.9014,1.8593,1.878,1.8907,1.8857,1.7953,1.7385,1.7322,1.7769,1.8046,1.8106,1.9095,2.0052,2.0926,2.0975,2.1432,2.2237,2.2175,2.314,2.4986,2.5052,2.5778,2.7085,2.9021,3.1072,3.3005,3.2305,3.2498,3.3295,3.4158,3.3887,3.3229,3.4886,3.55,3.5479,0.0,0.0,0.0,0.0,0.0,0.0,0.0,0.0,0.0,0.0,0.0,0.0,0.0,0.0,0.0,0.0,0.0,0.0,0.0,0.0,0.0,0.0,0.0,0.0,0.0,0.0,0.0,0.0,0.0,0.0,0.0,0.0,0.0,-0.5449,0.0,-0.4262,-0.4086,-0.3276,-0.2919,-0.29,-0.2778,-0.2801,-0.2853,-0.2375,-0.2139,0.0,0.0,0.0,0.0,0.0,0.0,0.0,-0.2031,-0.1788,-0.1402,-0.044,0.0629,0.1505,0.153,0.2362,0.0,0.0,0.3605,0.37,0.4325,0.519,0.6218,0.7541,0.9475,1.1211,1.218,1.2873,1.3578,1.4362,1.4684,1.5026,1.5533,1.5907,1.6143,1.6241,1.7048,1.7559,1.7452,1.8007,1.8204,1.7765,1.7536,1.7187,1.6722,1.7183,1.7666,1.8086,1.8727,1.9525,2.0449,2.0813,2.1244,2.1764,2.231,2.3118,2.4185,2.4694,2.6202,2.8456,3.0206,3.1335,3.1996,3.2645,3.2734,3.2575,3.396,3.3948,3.3355,3.4929,3.55,3.5493,0.0,0.0,0.0,0.0,0.0,0.0,0.0,0.0,0.0,0.0,0.0,0.0,0.0,0.0,0.0,0.0,0.0,0.0,0.0,0.0,0.0,0.0,0.0,0.0,0.0,0.0,0.0,0.0,0.0,0.0,0.0,0.0,0.0,-0.5375,0.0,-0.4346,-0.4134,-0.3433,-0.314,-0.3126,-0.2954,-0.294,-0.2946,-0.2395,-0.2033,-0.1746,-0.1329,0.0,0.0,0.0,0.0,0.0,0.0,0.0,-0.1106,-0.0239,0.0753,0.1581,0.1491,0.0,0.0,0.3997,0.0,0.4005,0.4877,0.5697,0.6718,0.822,1.0105,1.161,1.2086,1.3301,1.4361,1.4854,1.5279,1.5612,1.5822,1.6257,1.6541,1.6541,1.7169,1.7629,1.7629,1.7729,1.7689,1.7423,1.7124,1.6835,1.6513,1.7013,1.7544,1.8086,1.8845,1.9692,2.0616,2.1071,2.158,2.2144,2.3072,2.4359,2.593,2.6098,2.7356,2.9411,3.0295,3.1077,3.1759,3.1894,3.2019,3.2178,3.2942,3.2965,3.2667,3.3838,3.425,3.4308,0.0,0.0,0.0,0.0,0.0,0.0,0.0,0.0,0.0,0.0,0.0,0.0,0.0,0.0,0.0,0.0,0.0,0.0,0.0,0.0,0.0,0.0,0.0,0.0,0.0,0.0,0.0,0.0,0.0,0.0,0.0,0.0,0.0,-0.5013,0.0,0.0,-0.4025,-0.3444,-0.3265,-0.3358,-0.3181,-0.3118,-0.3066,-0.2469,-0.1986,-0.152,-0.0947,-0.0674,-0.061,-0.0824,0.0,0.0,0.0,0.0,-0.0743,-0.0176,0.0767,0.1568,0.1395,0.0,0.3951,0.4437,0.4517,0.0,0.5823,0.6519,0.7443,0.9119,1.0675,1.1757,1.1933,1.3563,1.4867,1.4867,1.547,1.5933,1.5933,1.6546,1.7015,1.7015,1.7526,1.7915,1.7915,1.7501,1.7237,1.7237,1.6785,1.65,1.65,1.6909,1.7442,1.8086,1.891,1.9836,2.0862,2.1291,2.1859,2.2617,2.3931,2.5808,2.8157,2.7769,2.8483,3.0006,3.0061,3.0667,3.1605,3.0892,3.1067,3.1782,3.1878,3.187,3.1926,3.2814,3.3128,3.3256,0.0,0.0,0.0,0.0,0.0,0.0,0.0,0.0,0.0,0.0,0.0,0.0,0.0,0.0,0.0,0.0,0.0,0.0,-0.2613,0.0,0.0,-0.47,-0.4789,0.0,0.0,0.0,0.0,0.0,0.0,0.0,0.0,0.0,0.0,-0.3202,0.0,0.0,0.0,-0.2475,-0.2723,-0.3293,-0.3162,-0.3178,-0.3218,-0.2659,-0.2111,-0.153,-0.1057,-0.0538,-0.0174,-0.071,-0.0862,0.0,0.0,0.0,-0.0626,-0.0144,0.0766,0.1586,0.0,0.0,0.4177,0.0,0.5396,0.5853,0.0,0.0,0.8679,0.0,1.0394,1.1216,1.2088,1.3182,1.3957,1.3957,1.4923,1.5655,1.5655,1.6205,1.657,1.657,1.667,1.6726,1.6726,1.6651,1.6613,1.6613,1.6538,1.65,1.65,1.6573,1.7076,1.8066,1.823,1.8966,2.0382,2.0846,2.1458,2.2207,2.4219,2.632,2.8422,2.7854,2.8482,3.0013,3.0248,3.0488,3.0687,3.0614,3.0715,3.0947,3.1701,3.1948,3.2064,3.3558,3.4079,3.4148,0.0,0.0,0.0,0.0,0.0,0.0,0.0,0.0,0.0,0.0,0.0,0.0,0.0,0.0,0.0,-0.3707,-0.3089,-0.2795,-0.3019,-0.2999,-0.3308,-0.4069,-0.3874,-0.3934,0.0,0.0,0.0,0.0,0.0,0.0,0.0,-0.2143,-0.2166,0.0,0.0,0.0,0.0,0.0,-0.256,-0.3427,-0.3037,-0.3046,-0.3279,0.0,-0.2379,-0.1527,-0.0975,-0.0449,0.002,0.008,-0.008,-0.0256,0.002,0.0,0.0,0.0,0.1591,0.2316,0.2723,0.3354,0.403,0.0,0.5157,0.5824,0.6977,0.794,0.8974,1.0319,1.0996,1.161,1.2417,1.3525,1.4422,1.4744,1.5543,1.6095,1.6095,1.6324,1.6616,1.6909,1.668,1.6616,1.6909,1.668,1.65,1.65,1.65,1.65,1.65,1.65,1.6993,1.8066,1.8357,1.9196,2.0682,2.1118,2.2028,2.3406,2.4499,2.5989,2.7757,2.7256,2.8197,3.0203,2.9836,2.9997,3.0503,3.0533,3.0584,3.0683,3.1074,3.1167,3.1193,3.191,3.2441,3.291,0.0,0.0,0.0,0.0,0.0,0.0,0.0,0.0,0.0,0.0,0.0,0.0,0.0,0.0,0.0,0.0,-0.3232,-0.2836,-0.3014,-0.2603,-0.2582,-0.3137,-0.2878,-0.2827,-0.3055,0.0,0.0,0.0,0.0,0.0,-0.1714,-0.1162,-0.1107,0.0,-0.1498,0.0,0.0,0.0,0.0,0.0,0.0,0.0,0.0,0.0,0.0,0.0,0.0,-0.01,0.0325,0.0932,0.0831,0.0528,0.0992,0.1134,0.0,0.0,0.0,0.0,0.0,0.0,0.3972,0.449,0.5095,0.5841,0.0,0.0,0.9444,0.0,1.1757,1.2536,1.3198,1.4059,1.4903,1.5499,1.6117,1.65,1.65,1.6616,1.6858,1.725,1.7076,1.7013,1.7271,1.693,1.6659,1.6522,1.65,1.65,1.65,1.6362,1.6837,1.8052,1.8318,1.9254,2.0975,2.1683,2.2819,2.4406,2.4892,2.5835,2.7193,2.6783,2.7755,2.9731,2.9083,2.9307,3.0148,3.0161,3.0335,3.0571,3.0607,3.0585,3.0543,3.0769,3.1221,3.1867,0.0,0.0,0.0,0.0,0.0,0.0,0.0,0.0,0.0,0.0,0.0,0.0,0.0,-0.4522,-0.3993,-0.3993,-0.3315,-0.2713,-0.2279,-0.1705,-0.1469,-0.1689,-0.1692,0.0,-0.1893,0.0,0.0,0.0,0.0,0.0,-0.0955,-0.0919,-0.0618,-0.0106,-0.0106,-0.0764,-0.1803,0.0,0.0,0.0,0.0,0.0,0.0,0.0,0.0,0.0,0.0,0.0728,0.0956,0.1552,0.173,0.1707,0.1752,0.1752,0.1752,0.0,0.0,0.0,0.0,0.3984,0.0,0.505,0.5759,0.0,0.0,0.0,1.0609,1.0711,1.236,1.3981,1.4576,1.4708,1.4903,1.5499,1.6117,1.65,1.65,1.693,1.7271,1.7312,1.7727,1.7827,1.7353,1.7271,1.7055,1.6531,1.65,1.65,1.65,1.6019,1.6477,1.8039,1.7635,1.854,2.0975,2.2421,2.3542,2.4406,2.5439,2.6382,2.7193,2.6783,2.7121,2.803,2.7992,2.842,2.9187,2.9239,2.9752,3.0513,3.0642,3.0656,3.0682,3.1522,3.1818,3.2019,0.0,0.0,0.0,0.0,0.0,0.0,0.0,0.0,0.0,0.0,0.0,0.0,0.0,-0.4345,-0.3876,-0.3876,-0.3008,-0.2049,-0.1107,-0.0604,-0.0199,0.0125,0.0042,-0.0192,-0.0645,0.0,0.0,0.0,0.0,-0.0199,0.0383,0.0371,0.0504,0.0694,0.0201,-0.0446,-0.1181,-0.0586,0.0,0.0,0.0,0.0,0.0,0.0,0.0,-0.0623,0.0434,0.086,0.1051,0.2051,0.2381,0.2377,0.2381,0.2625,0.2909,0.0,0.0,0.0,0.0,0.0,0.0,0.4811,0.5773,0.6828,0.7344,0.8776,1.0155,1.076,1.1903,1.3107,1.4096,1.4836,1.5488,1.6073,1.606,1.612,1.645,1.6661,1.705,1.7726,1.7987,1.7895,1.7355,1.731,1.6941,1.6048,1.5994,1.5994,1.5994,1.5487,1.5912,1.7536,1.764,1.898,2.168,2.2712,2.3522,2.4156,2.4889,2.5428,2.5792,2.5776,2.5942,2.6231,2.6231,2.7024,2.8382,2.8911,2.9317,2.9675,3.0354,3.0581,3.0581,3.0938,3.1705,3.2658,0.0,0.0,0.0,0.0,0.0,0.0,0.0,0.0,0.0,0.0,0.0,0.0,0.0,0.0,-0.3691,-0.3389,-0.2156,-0.1064,-0.0306,0.0367,0.0912,0.1321,0.1241,0.1019,0.0623,0.0,0.0,0.0,0.0,0.0,0.0,0.1451,0.1341,0.1075,0.0585,-0.0216,0.0,0.0,0.0,-0.2912,0.0,0.0,-0.2206,0.0,-0.0875,0.0021,0.0982,0.1419,0.1644,0.2542,0.2778,0.2751,0.286,0.3318,0.0,0.0,0.0,0.0,0.3999,0.0,0.0,0.0,0.6117,0.7146,0.7706,0.8874,1.0057,1.0828,1.1811,1.283,1.3845,1.4772,1.5492,1.5894,1.5655,1.5686,1.6395,1.6652,1.7079,1.792,1.8389,1.8248,1.7249,1.741,1.7022,1.5734,1.5661,1.5618,1.5449,1.5085,1.5696,1.7454,1.8452,1.9955,2.2079,2.2825,2.3435,2.3908,2.4519,2.4849,2.493,2.5187,2.5308,2.5308,2.5308,2.6115,2.7525,2.8357,2.8857,2.9193,3.0206,3.0577,3.0534,3.0583,3.128,3.2225,0.0,0.0,0.0,0.0,0.0,0.0,0.0,0.0,0.0,0.0,0.0,0.0,0.0,0.0,0.0,-0.2555,-0.084,0.015,0.0067,0.1183,0.1856,0.1902,0.1856,0.1832,0.1854,0.0,0.0,0.0,0.0,0.0,0.0,0.0,0.1856,0.1164,0.1111,0.0047,-0.1703,0.0,-0.1902,-0.3372,0.0,-0.1247,-0.1598,0.0064,0.0861,0.1197,0.1943,0.2428,0.2745,0.3022,0.2992,0.2932,0.3258,0.0,0.0,0.0,0.0,0.0,0.0,0.0,0.0,0.0,0.0,0.0,0.8169,0.0,1.0439,1.0923,1.2156,1.3345,1.3952,1.4494,1.484,1.4846,1.4859,1.5241,1.6329,1.6921,1.7394,1.7824,1.8927,1.8912,1.7056,1.7586,1.7349,1.5612,1.5612,1.5475,1.4921,1.4948,1.5877,1.789,1.9929,2.1366,2.2138,2.2838,2.338,2.3746,2.4454,2.4804,2.4832,2.5149,2.5308,2.5308,2.5293,2.5774,2.664,2.7505,2.8338,2.9159,3.0171,3.0586,3.0604,3.0594,3.0622,3.0772,0.0,0.0,0.0,0.0,0.0,0.0,0.0,0.0,0.0,0.0,0.0,0.0,0.0,0.0,0.0,-0.2178,-0.0802,0.0461,0.1374,0.2168,0.3064,0.4133,0.3166,0.2838,0.3382,0.0,0.0,0.0,0.0,0.0,0.0,0.0,0.0,0.0,0.161,0.0571,-0.0349,-0.0276,0.0,-0.1604,-0.0994,-0.0903,-0.1042,-0.0041,0.06,0.1106,0.2177,0.2555,0.2634,0.3085,0.3779,0.4505,0.4689,0.0,0.0,0.0,0.0,0.0,0.5303,0.0,0.0,0.0,0.0,0.0,0.9023,0.0,1.0491,1.121,1.1885,1.2525,1.3123,1.3352,1.3497,1.3657,1.4042,1.4668,1.5642,1.5905,1.6288,1.707,1.7814,1.7742,1.6449,1.6956,1.6685,1.5056,1.5395,1.5475,1.4921,1.5998,1.7362,1.894,2.0304,2.1606,2.2875,2.3105,2.3645,2.4505,2.4704,2.4935,2.516,2.5253,2.5308,2.5293,2.535,2.5473,2.5731,2.6601,2.7489,2.8401,2.9366,3.0115,3.0674,3.0622,3.1397,3.2418,0.0,0.0,0.0,0.0,0.0,0.0,0.0,0.0,0.0,0.0,0.0,0.0,0.0,0.0,0.0,-0.1165,0.0097,0.1429,0.2834,0.3486,0.4345,0.5498,0.4734,0.4344,0.0,0.0,0.0,0.0,0.0,0.0,0.0,0.0,0.0,0.0,0.0,0.0,0.0,0.0,0.0,0.0,-0.0912,-0.0836,-0.0816,0.0084,0.0805,0.1465,0.2222,0.2724,0.306,0.3105,0.3806,0.4665,0.483,0.0,0.0,0.0,0.0,0.0,0.0,0.0,0.0,0.0,0.0,0.0,0.8691,0.9166,0.96,0.98,1.034,1.1052,1.1908,1.2406,1.2794,1.3144,1.3509,1.4136,1.5327,1.55,1.5839,1.6706,1.7341,1.726,1.6079,1.6616,1.6342,1.4739,1.5248,1.5607,1.5563,1.6677,1.8054,1.9682,2.0559,2.1707,2.3177,2.32,2.3697,2.4678,2.476,2.4929,2.5173,2.5264,2.5308,2.5293,2.5364,2.5367,2.5332,2.5899,2.6668,2.7613,2.9294,3.0001,3.0153,3.0472,3.1386,3.2358,0.0,0.0,0.0,0.0,0.0,0.0,0.0,0.0,0.0,0.0,0.0,0.0,0.0,0.0,0.0,0.0,0.149,0.2798,0.414,0.487,0.0,0.0,0.6284,0.5956,0.0,0.0,0.0,0.0,0.0,0.0,0.0,0.0,0.0,0.0,0.0,0.0,0.0,0.0,0.0,-0.1423,-0.0918,-0.0705,-0.0573,0.0509,0.1404,0.2108,0.2286,0.2999,0.3773,0.3366,0.3638,0.4163,0.4355,0.5231,0.6179,0.6114,0.6535,0.0,0.0,0.0,0.0,0.0,0.8359,0.0,0.809,0.8472,0.8781,0.8212,0.8854,0.9856,1.0916,1.1847,1.2625,1.3127,1.3198,1.3711,1.5169,1.5352,1.5632,1.65,1.7083,1.6979,1.5889,1.6422,1.617,1.4679,1.5206,1.5936,1.6709,1.7229,1.8354,2.0224,2.0749,2.1707,2.3177,2.32,2.3652,2.4545,2.4716,2.4889,2.5034,2.5219,2.5308,2.5293,2.5376,2.5368,2.5331,2.5568,2.6146,2.7085,2.9494,3.0049,2.9569,3.0323,3.1028,3.1571,0.0,0.0,0.0,0.0,0.0,0.0,0.0,0.0,0.0,0.0,0.0,0.0,0.0,0.0,0.0,0.0,0.0,0.3939,0.0,0.0,0.0,0.7375,0.6746,0.6567,0.0,0.0,0.0,0.0,0.0,0.0,0.0,0.0,0.0,0.0,0.0,0.0,0.0,0.0,0.0,0.0545,0.0548,0.056,0.0674,0.187,0.2413,0.264,0.3139,0.3662,0.4253,0.5043,0.513,0.4904,0.5055,0.5612,0.6114,0.561,0.6209,0.0,0.0,0.0,0.0,0.7812,0.8706,0.0,1.0146,1.0973,1.1674,1.1816,1.2006,1.2225,1.2477,1.2667,1.2891,1.3162,1.3198,1.3552,1.4541,1.4422,1.4649,1.5832,1.5771,1.5667,1.58,1.603,1.5845,1.504,1.5705,1.6817,1.8352,1.8536,1.9289,2.0797,2.0959,2.1707,2.3177,2.32,2.371,2.4746,2.4782,2.4968,2.5234,2.5274,2.5308,2.5317,2.5428,2.5447,2.5441,2.6335,2.7159,2.7887,2.8457,2.9465,3.0585,3.0596,3.1547,3.2725,0.0,0.0,0.0,0.0,0.0,0.0,0.0,0.0,0.0,0.0,0.0,0.0,0.0,0.0,0.0,0.0,0.0,0.0,0.0,0.0,0.7398,0.8203,0.7836,0.7607,0.7607,0.7114,0.0,0.0,0.0,0.0,0.0,0.0,0.0,0.0,0.0,0.0,0.0,0.0,0.202,0.1589,0.077,0.0628,0.0994,0.1834,0.2385,0.2799,0.3612,0.4228,0.4786,0.5659,0.5615,0.5199,0.512,0.5658,0.6161,0.549,0.6097,0.7,0.7,0.7128,0.7393,0.8045,0.8696,0.0,0.0,1.0049,1.0491,1.0638,1.088,1.1301,1.2142,1.2704,1.316,1.3492,1.3762,1.4079,1.4447,1.4326,1.4596,1.5668,1.5389,1.527,1.5755,1.5651,1.5676,1.5977,1.619,1.6914,1.8338,1.8947,1.963,2.0463,2.1019,2.1912,2.3189,2.32,2.3741,2.4804,2.4804,2.4987,2.5308,2.5308,2.5308,2.5303,2.5444,2.5451,2.5453,2.6097,2.6809,2.7592,2.8523,2.9433,3.0223,3.0507,3.1317,3.2285,0.0199,0.0,0.0,0.0,0.0,0.0,0.0,0.0,0.0,0.0,0.0,0.0,0.0,0.0,0.0,0.0,0.0,0.0,0.0,0.0,0.0,0.0,0.8804,0.8507,0.791,0.7803,0.0,0.0,0.0,0.0,0.0,0.0,0.0,0.0,0.0,0.0,0.0,0.0,0.0,0.2465,0.0945,0.0747,0.1369,0.1837,0.2465,0.3223,0.4219,0.4896,0.542,0.6064,0.5934,0.5495,0.536,0.5821,0.631,0.5786,0.6344,0.71,0.716,0.7321,0.7643,0.8394,0.8875,0.9118,0.0,0.0,0.0,0.9065,0.9463,1.0242,1.16,1.2588,1.3302,1.3657,1.4185,1.4526,1.4436,1.4465,1.4752,1.5463,1.5149,1.5058,1.5507,1.531,1.564,1.6818,1.6708,1.7046,1.8046,1.8986,1.9728,2.0174,2.1034,2.2044,2.3189,2.3299,2.3842,2.4804,2.484,2.5,2.5308,2.5308,2.5303,2.534,2.545,2.5488,2.544,2.5633,2.6189,2.7058,2.8534,2.9274,2.9586,3.0163,3.096,3.1825,0.0901,0.0332,0.0,0.0,0.0,0.0,0.0,0.0,0.0,0.0,0.0,0.0,0.0,0.0,0.0,0.0,0.0,0.0,0.6642,0.791,0.0,0.0,0.8804,0.8752,0.8672,0.8666,0.8297,0.0,0.0,0.0,0.0,0.0,0.0,0.0,0.4294,0.0,0.0,0.0,0.3453,0.3825,0.2229,0.2094,0.2913,0.3381,0.3938,0.4617,0.5614,0.6025,0.6194,0.7051,0.6867,0.6333,0.6731,0.6643,0.6476,0.6795,0.7157,0.7497,0.7732,0.8457,0.908,0.8889,0.9889,1.0868,1.0644,0.0,1.1356,1.1407,0.0,1.2187,1.2376,0.0,0.0,1.3037,1.3559,1.4025,1.414,1.4341,1.4549,1.4643,1.4294,1.4198,1.4611,1.5034,1.5731,1.6813,1.7419,1.8024,1.8749,1.9084,1.9745,2.0847,2.1,2.1747,2.3189,2.3668,2.4209,2.4804,2.493,2.5088,2.5308,2.5308,2.5335,2.5398,2.5477,2.5537,2.5573,2.5661,2.6211,2.7011,2.7226,2.8223,2.9589,2.9627,3.1069,3.2994,0.1721,0.0992,0.0,0.0,0.0,0.0,0.0,0.0,0.0,0.0,0.0,0.0,0.0,0.3795,0.4433,0.4487,0.6475,0.7402,0.6642,0.799,0.0,0.0,0.8804,0.8804,0.8804,0.8804,0.8646,0.0,0.8348,0.0,0.0,0.0,0.0,0.0,0.4432,0.0,0.5079,0.0,0.4117,0.4655,0.3981,0.3932,0.4178,0.3362,0.3888,0.5146,0.5912,0.6392,0.6723,0.7082,0.6953,0.6643,0.6777,0.7126,0.7524,0.7652,0.8254,0.8913,0.9021,0.9369,0.98,1.0248,1.0663,1.1081,1.1547,1.1439,1.1409,1.2067,0.0,0.0,0.0,0.0,0.0,0.0,1.4533,1.4692,1.4684,1.4767,1.4845,1.4845,1.4485,1.4406,1.4814,1.5054,1.5653,1.6815,1.6941,1.7477,1.8652,1.94,1.9957,2.0355,2.1417,2.2253,2.2786,2.3611,2.4262,2.4804,2.4949,2.513,2.535,2.535,2.5395,2.5451,2.5537,2.5567,2.5604,2.5662,2.5918,2.6309,2.6797,2.8066,2.9707,3.0629,3.1597,3.2564,0.281,0.0,0.0,0.0,0.0,0.0,0.0,0.0,0.0,0.0,0.0,0.3337,0.3923,0.4761,0.5257,0.5089,0.688,0.7696,0.6939,0.8103,0.8804,0.8804,0.8804,0.8804,0.8804,0.8804,0.8804,0.0,0.0,0.0,0.0,0.0,0.0,0.0,0.0,0.4797,0.5281,0.0,0.4741,0.5257,0.5185,0.5034,0.4747,0.3899,0.4397,0.5631,0.6215,0.6662,0.7026,0.7193,0.6993,0.6777,0.7309,0.7715,0.8111,0.8669,0.9315,0.9896,1.0096,1.0286,1.0612,1.1318,1.1343,1.1412,1.2253,1.1862,1.1602,1.2562,1.246,0.0,0.0,0.0,0.0,0.0,0.0,1.5235,1.5035,1.5079,1.5058,1.4937,1.4674,1.4611,1.4907,1.5063,1.5577,1.6589,1.6719,1.7228,1.836,1.9495,2.0192,2.0334,2.1768,2.2629,2.2824,2.375,2.4408,2.4804,2.5016,2.5207,2.5402,2.5431,2.5468,2.5537,2.557,2.5606,2.5633,2.5683,2.5703,2.5801,2.6914,2.8125,2.9433,3.1086,3.1941,3.2454,0.4254,0.3524,0.0,0.0,0.0,0.0,0.0,0.0,0.0,0.3456,0.4553,0.5406,0.5429,0.674,0.7316,0.6588,0.791,0.8454,0.7723,0.8374,0.8804,0.8804,0.8804,0.8804,0.8804,0.8804,0.8804,0.8804,0.0,0.0,0.0,0.0,0.0,0.0,0.5646,0.566,0.6278,0.5306,0.5193,0.5659,0.5402,0.4872,0.4386,0.5748,0.6224,0.6243,0.6789,0.6979,0.7093,0.7679,0.7215,0.6799,0.9012,0.8556,0.769,1.0024,1.0237,0.9865,1.059,1.1232,1.1753,1.1771,1.1958,1.2312,1.2919,1.2752,1.2615,1.323,1.3314,1.3431,1.4002,0.0,0.0,0.0,0.0,0.0,0.0,1.4979,1.4953,1.4564,1.4517,1.4517,1.4517,1.4993,1.5502,1.6002,1.7153,1.7874,1.7924,1.9192,2.0393,2.1414,2.1886,2.2613,2.3656,2.4393,2.479,2.4804,2.5192,2.5398,2.5394,2.5477,2.5539,2.5599,2.5601,2.5635,2.5703,2.5703,2.5703,2.5879,2.7598,2.8281,2.8555,3.0293,3.1887,3.3294,0.0,0.0,0.0,0.0,0.293,0.3107,0.3644,0.4532,0.5081,0.4827,0.5397,0.5928,0.6191,0.7318,0.7631,0.6685,0.7937,0.848,0.775,0.8401,0.8804,0.8804,0.8804,0.8804,0.8804,0.8804,0.9008,0.9465,0.0,0.0,0.0,0.0,0.0,0.0,0.0,0.5812,0.0,0.0,0.0,0.6151,0.6068,0.6168,0.6377,0.6302,0.5989,0.5825,0.7408,0.7816,0.7757,0.8859,0.8944,0.8783,0.9858,1.0213,1.0414,1.122,1.1643,1.1877,1.2132,1.2353,1.2535,1.2535,1.2902,1.3315,1.3514,1.3562,1.3506,1.3298,1.3581,1.3875,1.4062,0.0,0.0,0.0,0.0,0.0,0.0,1.552,1.5404,1.4937,1.4891,1.5028,1.5329,1.407,1.4011,1.5861,1.4921,1.5455,1.8219,1.905,2.0055,2.1392,2.2338,2.2958,2.3222,2.4279,2.4804,2.481,2.521,2.545,2.5539,2.5556,2.5603,2.57,2.6286,2.621,2.5742,2.6328,2.6562,2.668,2.7832,2.8652,2.9433,3.167,3.2795,3.3393,0.6639,0.0,0.0,0.4718,0.447,0.4635,0.5171,0.5601,0.59,0.59,0.6313,0.6711,0.6955,0.7849,0.813,0.744,0.8262,0.8593,0.8129,0.8533,0.8804,0.8804,0.8804,0.8804,0.8804,0.8804,0.9008,0.9439,0.9008,0.9008,0.0,0.0,0.0,0.0,0.0,0.6431,0.684,0.5946,0.5864,0.6347,0.6546,0.6852,0.7173,0.7052,0.6843,0.6736,0.7874,0.833,0.8543,0.9497,0.9717,0.9725,1.0612,1.1153,1.1535,1.2046,1.2396,1.2686,1.2842,1.2905,1.2954,1.3176,1.3505,1.3909,1.4342,1.4541,1.4575,1.4409,1.4528,1.4707,1.4866,0.0,0.0,0.0,0.0,0.0,0.0,1.5983,1.5911,1.5724,1.5492,1.5448,1.5695,1.4464,1.4393,1.6144,1.495,1.5492,1.8543,1.9311,2.0332,2.1784,2.2829,2.3422,2.3528,2.4376,2.4819,2.4871,2.5251,2.5473,2.5563,2.5607,2.566,2.5742,2.6621,2.668,2.6211,2.6777,2.7187,2.7519,2.8086,2.8827,2.9878,3.2376,3.3621,3.4188,0.6858,0.6696,0.6696,0.6696,0.6669,0.6642,0.6615,0.6642,0.6642,0.6642,0.7273,0.7735,0.775,0.8387,0.8824,0.8804,0.8804,0.8804,0.8804,0.8804,0.8804,0.8804,0.8804,0.8804,0.8804,0.8804,0.8831,0.891,0.8831,0.0,0.0,0.0,0.0,0.0,0.8023,0.0,0.7062,0.6871,0.6597,0.6309,0.6828,0.6915,0.6869,0.8062,0.8746,0.8959,0.8298,0.8635,0.9425,0.9756,0.967,0.9729,1.1333,1.1428,1.1171,1.2507,1.2588,1.233,1.2773,1.2929,1.3079,1.3661,1.3839,1.4179,1.5343,1.5632,1.5808,1.6343,1.6103,1.5901,1.6251,1.6448,0.0,0.0,0.0,0.0,0.0,0.0,1.6436,1.6811,1.6262,1.5797,1.5677,1.5969,1.6351,1.6776,1.6992,1.7621,1.8847,1.9876,2.1099,2.2531,2.3281,2.3923,2.4461,2.4693,2.4857,2.4991,2.5339,2.5493,2.552,2.5636,2.5723,2.5801,2.6699,2.7051,2.707,2.7109,2.7617,2.8359,2.8359,2.8901,2.9986,3.2399,3.426,3.5599,0.8262,0.8235,0.8235,0.8235,0.7777,0.7235,0.6696,0.7074,0.7429,0.7429,0.7806,0.8187,0.848,0.8863,0.9011,0.8824,0.8804,0.8804,0.8804,0.8804,0.8804,0.8804,0.8804,0.8804,0.8804,0.8804,0.929,1.0295,0.929,0.0,1.0261,0.0,0.0,0.0,0.0,0.7333,0.6737,0.6782,0.6929,0.7198,0.7534,0.8074,0.8693,0.8758,0.9738,1.1011,1.0635,1.0458,1.0593,1.1696,1.1794,1.1582,1.2359,1.2488,1.2435,1.2788,1.2803,1.2744,1.2876,1.3224,1.3624,1.3755,1.4469,1.5231,1.5543,1.5964,1.6191,1.5974,1.6427,1.6807,1.6501,1.7121,0.0,0.0,0.0,0.0,0.0,1.6301,1.6622,1.7519,1.6974,1.6525,1.6496,1.5253,1.5092,1.669,1.525,1.5663,1.8735,1.921,2.0256,2.2167,2.2949,2.3515,2.3893,2.4505,2.4819,2.4852,2.53,2.5533,2.559,2.5661,2.6055,2.6719,2.7598,2.7969,2.8027,2.8672,2.9062,2.9277,2.9277,3.0489,3.2327,3.2862,3.4119,3.5522,0.8804,0.8884,0.8931,0.8831,0.8687,0.8389,0.7823,0.7988,0.8226,0.8344,0.8421,0.8553,0.8771,0.8924,0.8958,0.8824,0.8804,0.8804,0.8804,0.8804,0.8804,0.8804,0.8804,0.8804,0.8804,0.8804,0.9159,0.9917,0.9465,0.0,0.9917,0.0,0.0,0.0,0.0,0.7891,0.7395,0.7613,0.7702,0.7728,0.849,0.9036,0.0,0.985,1.075,1.1812,1.2,1.179,1.1529,1.2338,1.2408,1.2281,1.2744,1.2905,1.2905,1.2905,1.2905,1.2954,1.3214,1.3552,1.3933,1.4457,1.5107,1.5676,1.593,1.6259,1.64,1.612,1.671,1.7188,1.684,1.7691,1.8295,0.0,0.0,0.0,0.0,1.6421,1.6802,1.7549,1.7395,1.724,1.724,1.6079,1.5866,1.7142,1.6188,1.6666,1.9241,1.9728,2.0747,2.2518,2.3572,2.4133,2.4183,2.5024,2.5311,2.5026,2.5329,2.5481,2.5558,2.5632,2.615,2.7051,2.793,2.8516,2.8906,2.9394,2.9824,3.0195,3.0494,3.1675,3.3238,3.3446,3.4365,3.5486,0.8911,0.9098,0.9191,0.8965,0.9345,0.9593,0.9311,0.9024,0.8931,0.9178,0.8958,0.8804,0.8804,0.8804,0.8804,0.8804,0.8804,0.8804,0.8804,0.8804,0.8804,0.8804,0.8804,0.8804,0.8804,0.8804,0.8883,0.9061,0.9562,0.0,0.0,0.0,0.0,0.0,0.0,0.0,0.0,0.884,0.8651,0.8333,0.954,0.9905,0.9855,1.1,1.167,1.203,1.2666,1.2637,1.2291,1.2291,1.2291,1.2359,1.2764,1.2905,1.2905,1.2905,1.2954,1.3128,1.3661,1.3909,1.4295,1.5343,1.5654,1.5864,1.638,1.65,1.6522,1.6595,1.7034,1.7397,1.7339,1.8243,1.8757,0.0,0.0,1.7558,1.6749,1.6889,1.7229,1.7613,1.7938,0.0,1.7963,1.7587,1.7491,1.7789,1.809,1.8793,1.9997,2.0624,2.1668,2.3182,2.4473,2.5105,2.5069,2.5773,2.5948,2.559,2.5459,2.5425,2.5498,2.5563,2.6161,2.7207,2.7969,2.8867,2.9766,2.9766,3.0215,3.0956,3.151,3.2325,3.3269,3.3809,3.4628,3.5405,0.9479,0.9573,0.9593,0.9539,0.9641,0.9695,0.9613,0.9324,0.9158,0.9204,0.8958,0.8804,0.8804,0.8804,0.8804,0.8804,0.8804,0.8804,0.8804,0.8804,0.8804,0.8804,0.8804,0.8804,0.8804,0.8804,0.9335,1.044,1.0012,0.0,0.0,0.0,0.0,0.0,0.0,0.0,1.0011,0.9356,0.9421,1.0003,1.0458,1.0938,1.1419,1.1632,1.2147,1.2715,1.2856,1.2856,1.2773,1.2773,1.2773,1.2783,1.2876,1.2905,1.2905,1.2905,1.3238,1.3661,1.3768,1.4526,1.5343,1.5543,1.5974,1.638,1.6479,1.65,1.6637,1.7076,1.7585,1.8084,1.8508,1.9115,1.9331,1.864,1.8506,1.8503,1.8452,1.8499,1.8792,1.9458,1.9822,1.9688,1.8794,1.8092,1.7743,1.78,1.7607,1.8349,2.0315,2.0267,2.1189,2.3372,2.3951,2.4931,2.6442,2.5643,2.5881,2.7179,2.5989,2.5417,2.5411,2.5547,2.6464,2.7994,2.8202,2.9199,3.0664,3.0664,3.0762,3.0898,3.0852,3.1803,3.3195,3.3153,3.3981,3.5155,0.9686,0.9806,0.986,0.9735,1.0305,1.0671,1.0286,1.0137,0.9876,0.9286,0.8958,0.8804,0.8804,0.8804,0.8804,0.8804,0.8804,0.8962,0.9283,0.9309,0.9484,0.9814,0.984,0.984,0.984,0.984,1.0141,1.0788,1.0838,0.0,0.0,0.0,0.0,0.0,0.0,1.0722,0.0,1.0539,1.0548,1.0673,1.1538,1.1857,1.1839,1.2212,1.2584,1.2905,1.2905,1.2905,1.2905,1.2905,1.2905,1.2905,1.2905,1.3104,1.3372,1.3372,1.3779,1.4329,1.4664,1.5152,1.5676,1.5986,1.6281,1.65,1.65,1.671,1.6993,1.725,1.7947,1.8669,1.9225,1.953,1.9483,1.8807,1.8906,1.8961,1.8682,1.8981,1.9249,1.9361,1.9676,1.9744,1.9395,1.8662,1.8156,1.8025,1.8597,1.947,2.0646,2.1307,2.2253,2.3555,2.4302,2.5023,2.5756,2.5708,2.5925,2.6403,2.5693,2.5371,2.5409,2.5963,2.6952,2.8223,2.8748,2.9707,3.0898,3.0898,3.0858,3.0868,3.1653,3.2411,3.3197,3.3953,3.4611,3.5088,1.0087,1.0187,1.0288,1.0233,1.1086,1.1609,1.1033,1.104,1.0701,0.9577,0.9065,0.8804,0.8804,0.8936,0.9008,0.9008,0.9133,0.9439,0.9987,1.0012,1.0244,1.0788,1.0788,1.0788,1.0788,1.0788,1.0864,1.1015,1.1541,1.1616,0.0,0.0,0.0,0.0,0.0,1.125,1.1275,1.1798,1.1724,1.1334,1.2437,1.2623,1.2282,1.2866,1.3176,1.3272,1.3128,1.3079,1.3079,1.3079,1.3017,1.2929,1.3065,1.342,1.3815,1.3956,1.4422,1.4983,1.5477,1.5698,1.5908,1.638,1.65,1.6543,1.6637,1.6993,1.7374,1.7585,1.84,1.9207,1.9621,1.9764,1.9655,1.9142,1.9423,1.9593,1.9137,1.9574,1.9744,1.9188,1.9734,2.0057,1.9874,1.9606,1.9308,1.8976,1.9825,2.0545,2.0993,2.2327,2.3336,2.3915,2.4745,2.5281,2.5453,2.5888,2.6008,2.5846,2.5481,2.5321,2.5399,2.6353,2.7286,2.8232,2.9174,3.0078,3.0898,3.0878,3.089,3.1097,3.2185,3.2884,3.3402,3.4539,3.499,3.4981,1.1216,1.1069,1.1156,1.1843,1.1859,1.1783,1.1785,1.1811,1.1411,1.0352,0.938,0.8804,0.8804,0.9335,0.9718,0.9718,1.0261,1.0644,1.0686,1.072,1.0737,1.0788,1.0788,1.0788,1.0788,1.0788,1.1091,1.1715,1.1765,1.2104,1.2691,0.0,0.0,1.2691,1.2691,1.2691,1.27,1.2774,1.2749,1.27,1.2856,1.319,1.3627,1.3684,1.4061,1.4456,1.3909,1.3708,1.3708,1.3708,1.3348,1.3002,1.3552,1.3755,1.3909,1.4468,1.5028,1.5521,1.5588,1.6008,1.6423,1.65,1.65,1.6637,1.7118,1.725,1.7585,1.8554,1.9225,1.9639,1.969,2.0,2.023,2.0169,2.0538,2.0958,2.1265,2.1354,2.1116,2.034,2.1779,2.2102,2.0246,2.1385,2.1987,2.142,2.0442,2.0293,2.1292,2.2169,2.329,2.4644,2.4795,2.5732,2.7583,2.6133,2.6163,2.764,2.6058,2.5293,2.5351,2.6276,2.722,2.8167,2.9104,3.005,3.0898,3.077,3.1183,3.1808,3.1056,3.2164,3.4079,3.3409,3.3818,3.4724,1.1765,1.1553,1.1505,1.152,1.1867,1.2147,1.2141,1.2217,1.2017,1.1284,1.0502,0.9987,0.9987,1.0244,1.0389,1.0389,1.0644,1.0965,1.1366,1.1391,1.16,1.2049,1.2049,1.2049,1.2049,1.2049,1.2197,1.2452,1.2452,1.2618,1.2905,1.2905,1.2905,1.2905,1.2905,1.2905,1.2905,1.2905,1.2905,1.2929,1.3286,1.3576,1.3839,1.419,1.4491,1.4675,1.4422,1.4329,1.4329,1.4329,1.3944,1.3552,1.4154,1.4595,1.4926,1.5163,1.5666,1.6139,1.6139,1.6315,1.6573,1.6888,1.6972,1.7105,1.7666,1.8027,1.838,1.8817,1.9332,1.9764,2.0017,2.0177,2.0399,2.0666,2.107,2.1414,2.1582,2.1974,2.2038,2.1435,2.22,2.253,2.1899,2.2009,2.2219,2.2454,2.1868,2.1735,2.2328,2.3131,2.3888,2.4607,2.4615,2.512,2.6156,2.5461,2.5518,2.6327,2.5635,2.5308,2.5351,2.6868,2.8362,2.9792,3.0189,3.0508,3.0771,3.0721,3.1164,3.1847,3.1443,3.2497,3.4185,3.3821,3.4116,3.4694,1.2577,1.2139,1.1964,1.2117,1.2279,1.2495,1.2778,1.2815,1.2644,1.2194,1.1708,1.125,1.0838,1.099,1.1091,1.1091,1.13,1.1633,1.208,1.2129,1.2369,1.2881,1.2905,1.2905,1.2905,1.2905,1.2905,1.2905,1.2905,1.2905,1.2905,1.2905,1.2905,1.2905,1.2905,1.2905,1.2905,1.3079,1.3176,1.3214,1.3826,1.4167,1.4388,1.4801,1.5062,1.5197,1.5039,1.496,1.496,1.496,1.4687,1.4411,1.4824,1.5253,1.5632,1.582,1.6173,1.65,1.65,1.65,1.6637,1.7167,1.7312,1.7483,1.8185,1.8631,1.8949,1.9114,1.9442,1.9836,2.0229,2.0416,2.0649,2.1102,2.1538,2.1809,2.1809,2.2248,2.2435,2.2042,2.2424,2.2803,2.306,2.2729,2.2776,2.339,2.3215,2.3056,2.2997,2.3824,2.4384,2.4575,2.462,2.4795,2.5088,2.5088,2.5157,2.5308,2.5582,2.5716,2.5787,2.7654,2.9365,3.0838,3.0879,3.0994,3.1138,3.1076,3.1652,3.2557,3.2251,3.3122,3.4538,3.4222,3.4334,3.4684,1.3876,1.2966,1.2725,1.4377,1.3404,1.278,1.392,1.3743,1.3334,1.293,1.2881,1.2338,1.0939,1.1391,1.1789,1.1789,1.2452,1.2881,1.2881,1.2881,1.2881,1.2905,1.2905,1.2905,1.2905,1.2905,1.2905,1.2905,1.2905,1.2905,1.2905,1.2905,1.2905,1.2905,1.2905,1.2905,1.2954,1.3529,1.3802,1.3839,1.4445,1.5062,1.5588,1.5588,1.5952,1.6402,1.5798,1.5588,1.5588,1.5588,1.5588,1.5588,1.5588,1.5576,1.572,1.6303,1.6488,1.65,1.65,1.65,1.6637,1.7167,1.7312,1.7585,1.865,1.8893,1.9043,1.9584,1.9708,1.9836,2.0229,2.0682,2.1118,2.1521,2.1988,2.2296,2.2296,2.2296,2.2234,2.2019,2.2717,2.3228,2.3283,2.3823,2.4257,2.4459,2.4294,2.3841,2.3043,2.3948,2.4583,2.479,2.4917,2.5094,2.5284,2.5303,2.5303,2.5308,2.6234,2.6676,2.6741,2.8634,2.9938,3.0717,3.0838,3.1387,3.2167,3.1963,3.2911,3.4353,3.3305,3.3949,3.5345,3.4213,3.4176,3.4653,1.4215,1.3795,1.3554,1.3489,1.3074,1.2859,1.3237,1.3164,1.3062,1.2925,1.2905,1.2725,1.2289,1.2427,1.2559,1.2559,1.2774,1.2905,1.2905,1.2905,1.2905,1.2905,1.2905,1.2905,1.2905,1.2905,1.2905,1.2905,1.2905,1.2905,1.2905,1.2905,1.3128,1.3515,1.3079,1.3368,1.4107,1.3897,1.405,1.4468,1.5073,1.5432,1.5632,1.6051,1.6324,1.6466,1.6281,1.6216,1.6216,1.6216,1.6216,1.6216,1.6216,1.6216,1.6238,1.6445,1.65,1.65,1.65,1.6774,1.7167,1.7706,1.8125,1.8574,1.9281,1.9442,1.957,2.0019,2.0106,2.0331,2.1038,2.1322,2.1553,2.2003,2.2194,2.2296,2.2296,2.245,2.2626,2.2794,2.3249,2.3637,2.3888,2.409,2.4228,2.4284,2.4357,2.4228,2.3832,2.4244,2.4583,2.4797,2.4917,2.5386,2.6173,2.6192,2.6516,2.7147,2.7435,2.7951,2.8634,2.9228,2.9988,3.0876,3.1504,3.1866,3.2045,3.2569,3.3382,3.421,3.3262,3.3968,3.5364,3.4213,3.4176,3.4653,1.4756,1.4302,1.3892,1.3654,1.3095,1.2785,1.3163,1.3037,1.2905,1.2905,1.2905,1.2905,1.2905,1.2905,1.2905,1.2905,1.2905,1.2905,1.2905,1.2905,1.2905,1.2905,1.2905,1.2905,1.2905,1.2905,1.2905,1.2905,1.2905,1.2905,1.2905,1.3128,1.3443,1.3802,1.3624,1.4001,1.4698,1.4549,1.4687,1.5085,1.571,1.593,1.5986,1.6358,1.65,1.65,1.65,1.65,1.65,1.65,1.65,1.65,1.65,1.65,1.65,1.65,1.65,1.65,1.65,1.69,1.7422,1.7967,1.8496,1.908,1.977,1.9927,2.0052,2.0466,2.0566,2.0781,2.1476,2.1597,2.1748,2.2223,2.2296,2.2296,2.2296,2.2436,2.2717,2.3141,2.338,2.3692,2.4161,2.419,2.419,2.419,2.4384,2.4454,2.4321,2.4847,2.5242,2.5356,2.5837,2.6406,2.7082,2.7118,2.7415,2.7993,2.8382,2.9249,3.0519,3.0519,3.0993,3.1875,3.2402,3.2741,3.2956,3.3475,3.4107,3.4679,3.4109,3.4538,3.5402,3.4595,3.4533,3.4803,1.541,1.4505,1.3949,1.4673,1.3493,1.27,1.351,1.3208,1.291,1.2905,1.29,1.291,1.2905,1.2905,1.2929,1.2968,1.2929,1.2905,1.2905,1.2905,1.2905,1.2905,1.2905,1.2905,1.2905,1.2905,1.2929,1.2968,1.2992,1.3017,1.3041,1.36,1.3886,1.3956,1.4468,1.4755,1.4858,1.5387,1.5632,1.5698,1.6259,1.65,1.65,1.65,1.65,1.65,1.65,1.65,1.65,1.65,1.6522,1.6552,1.6552,1.6573,1.6595,1.6522,1.6543,1.6552,1.6552,1.6972,1.7524,1.8027,1.8593,1.9233,2.0093,2.0331,2.0483,2.0943,2.1039,2.1166,2.1567,2.1658,2.1794,2.2223,2.2324,2.2307,2.231,2.2338,2.2571,2.3117,2.3212,2.35,2.4141,2.419,2.419,2.419,2.4438,2.4603,2.4603,2.5811,2.6429,2.6301,2.7338,2.7934,2.7992,2.8051,2.8117,2.819,2.9145,3.0481,3.2109,3.2109,3.2519,3.3223,3.334,3.3821,3.4505,3.4555,3.4986,3.5579,3.5528,3.55,3.5479,3.5198,3.5105,3.507,1.541,1.5187,1.4955,1.4806,1.4173,1.3532,1.316,1.2982,1.2905,1.291,1.2897,1.2905,1.291,1.2905,1.3089,1.3552,1.3176,1.2905,1.2905,1.2905,1.2905,1.2905,1.2905,1.2905,1.2905,1.2905,1.3128,1.36,1.4037,1.4271,1.4271,1.4422,1.4732,1.5152,1.4835,1.5197,1.6064,1.5732,1.5864,1.6303,1.6445,1.65,1.65,1.65,1.65,1.65,1.65,1.65,1.65,1.65,1.6774,1.7118,1.7118,1.7394,1.7565,1.6731,1.6795,1.7118,1.7118,1.7807,1.8554,1.8669,1.9346,2.0024,2.0263,2.0583,2.0959,2.1368,2.146,2.1598,2.2046,2.2135,2.218,2.2282,2.2477,2.2523,2.2321,2.2699,2.3038,2.3177,2.3426,2.3735,2.4161,2.419,2.419,2.419,2.5105,2.5642,2.5642,2.7415,2.7775,2.6346,2.7338,2.8184,2.8819,2.8878,2.9308,3.0061,3.0401,3.0781,3.1211,3.1211,3.1309,3.1562,3.2782,3.3409,3.3631,3.4842,3.5419,3.5522,3.552,3.55,3.5479,3.5198,3.5105,3.507,1.5449,1.5254,1.5049,1.4852,1.4313,1.3683,1.301,1.2911,1.3185,1.3937,1.3386,1.3124,1.3658,1.3546,1.3656,1.4167,1.3406,1.3128,1.3681,1.3467,1.342,1.3705,1.3729,1.3729,1.3729,1.3729,1.3884,1.4213,1.4537,1.4698,1.4709,1.4994,1.5298,1.561,1.5555,1.5876,1.6466,1.6139,1.6194,1.65,1.65,1.65,1.65,1.65,1.65,1.65,1.65,1.6659,1.6879,1.6879,1.7209,1.7666,1.7666,1.7867,1.7987,1.7415,1.7442,1.7666,1.7666,1.8283,1.8968,1.9207,1.9776,2.0365,2.0566,2.0959,2.14,2.1823,2.1913,2.2003,2.2237,2.2296,2.2296,2.2296,2.2541,2.2647,2.25,2.2908,2.3265,2.3403,2.3588,2.3827,2.417,2.419,2.4394,2.4848,2.5576,2.6208,2.6719,2.8236,2.8631,2.761,2.8524,2.9468,3.0337,3.0427,3.0579,3.0793,3.1269,3.1699,3.2051,3.2461,3.2851,3.3281,3.4122,3.4423,3.4402,3.5252,3.5562,3.55,3.55,3.55,3.5486,3.5346,3.5289,3.5254,1.5731,1.5422,1.5193,1.4944,1.4358,1.3803,1.3354,1.3057,1.3493,1.5179,1.4552,1.4206,1.4903,1.4502,1.4344,1.4766,1.3855,1.3678,1.464,1.4213,1.4167,1.4675,1.4698,1.4698,1.4698,1.4789,1.4869,1.4948,1.496,1.4971,1.4971,1.5511,1.5754,1.5764,1.6259,1.65,1.65,1.65,1.65,1.65,1.65,1.65,1.65,1.65,1.6552,1.6616,1.6616,1.6972,1.7435,1.7435,1.7787,1.8224,1.8224,1.8283,1.8341,1.8341,1.8341,1.8322,1.8243,1.8612,1.9136,1.966,2.0089,2.0533,2.0991,2.1415,2.1809,2.2209,2.2296,2.231,2.2346,2.236,2.2374,2.2429,2.2682,2.2835,2.2784,2.3105,2.3437,2.3671,2.3843,2.4078,2.4354,2.4532,2.4949,2.5815,2.6225,2.6826,2.7726,2.8744,2.93,2.93,3.0,3.0788,3.1607,3.1863,3.1629,3.0918,3.1777,3.2559,3.3242,3.3984,3.4785,3.5605,3.568,3.5629,3.5521,3.5563,3.5558,3.5519,3.5635,3.5615,3.5519,3.5635,3.5596,3.5519,1.6782,1.7114,1.7045,1.557,1.5215,1.511,1.5023,1.382,1.3506,1.519,1.7341,1.8087,1.6414,1.5253,1.4774,1.5175,1.5038,1.4867,1.4709,1.4606,1.4606,1.4698,1.4698,1.4698,1.4698,1.5208,1.5689,1.6126,1.6183,1.6216,1.6216,1.6315,1.6358,1.6358,1.6457,1.65,1.65,1.65,1.65,1.65,1.65,1.65,1.65,1.65,1.6774,1.7167,1.7167,1.7524,1.7987,1.7987,1.8341,1.8779,1.8779,1.9095,1.9442,1.9442,1.9442,1.935,1.8893,1.9169,1.9678,2.0106,2.055,2.1007,2.1414,2.1869,2.2209,2.2282,2.2296,2.236,2.2599,2.2634,2.2725,2.3014,2.3335,2.3455,2.3153,2.3642,2.3966,2.3724,2.4559,2.5169,2.5209,2.5977,2.6544,2.6702,2.7744,2.8438,2.8598,2.9621,3.0192,3.0192,3.0327,3.0515,3.0779,3.1588,3.1629,3.0918,3.1777,3.2266,3.2383,3.2539,3.3027,3.3847,3.4452,3.4718,3.4729,3.5297,3.5508,3.5577,3.625,3.6096,3.5577,3.625,3.6077,3.5596,1.7713,1.7776,1.7698,1.6752,1.5915,1.5399,1.5382,1.474,1.4528,1.5311,1.7973,1.9401,1.8399,1.7776,1.7037,1.603,1.5951,1.588,1.568,1.5377,1.5332,1.5656,1.5987,1.6142,1.6142,1.6436,1.6524,1.6441,1.647,1.65,1.65,1.65,1.65,1.65,1.65,1.65,1.65,1.65,1.668,1.693,1.693,1.693,1.6951,1.725,1.7353,1.7353,1.7626,1.8086,1.8535,1.8535,1.8893,1.9332,1.9332,1.9497,1.9708,1.9708,1.9708,1.9639,1.9406,1.9681,2.007,2.0246,2.083,2.1368,2.1552,2.1957,2.2296,2.2296,2.2296,2.2388,2.2647,2.2708,2.281,2.3141,2.3488,2.3649,2.35,2.426,2.4802,2.4634,2.5458,2.6043,2.6043,2.6561,2.7148,2.7711,2.8404,2.9059,2.9634,3.0585,3.1096,3.1096,3.1135,3.0972,3.0603,3.15,3.1827,3.1601,3.2419,3.2809,3.2871,3.3828,3.4199,3.414,3.4832,3.5155,3.5161,3.5409,3.55,3.5538,3.5904,3.5827,3.5538,3.5923,3.5827,3.5558,1.9017,1.9023,1.8954,1.8241,1.7175,1.6421,1.642,1.6421,1.6423,1.6417,1.8382,1.98,1.9787,1.9799,1.9023,1.7065,1.6905,1.6864,1.6751,1.6154,1.6027,1.6479,1.7074,1.7461,1.7564,1.7473,1.7162,1.6722,1.6563,1.65,1.65,1.65,1.65,1.65,1.65,1.65,1.6522,1.6637,1.6909,1.7312,1.7442,1.7483,1.7524,1.7947,1.7927,1.7727,1.8145,1.8631,1.9095,1.9095,1.9369,1.9708,1.9708,1.9708,1.9708,1.9708,1.9764,1.9836,1.9744,2.0,2.0331,2.0433,2.1039,2.1643,2.1733,2.2032,2.2296,2.2296,2.2349,2.2477,2.2759,2.2885,2.3045,2.338,2.3804,2.4088,2.4088,2.5004,2.5686,2.5686,2.6436,2.6956,2.6956,2.7354,2.8053,2.9077,2.9358,2.9915,3.0936,3.1621,3.1987,3.1987,3.2048,3.1786,3.1151,3.2077,3.2493,3.2478,3.3252,3.3646,3.375,3.5098,3.5449,3.5039,3.5498,3.5707,3.5689,3.5564,3.55,3.5519,3.5712,3.5654,3.5558,3.5942,3.5942,3.5846,2.1161,2.204,2.2067,1.9989,1.9537,1.9474,1.9468,1.9471,1.948,1.9468,1.9677,1.98,1.9798,1.9799,1.9318,1.8179,1.8078,1.7917,1.7539,1.6833,1.6461,1.6491,1.7074,1.7614,1.8129,1.7639,1.7385,1.7335,1.6773,1.65,1.65,1.65,1.65,1.65,1.65,1.65,1.6543,1.7034,1.725,1.7353,1.7847,1.8046,1.8046,1.8086,1.838,1.8798,1.8836,1.9188,1.9639,1.9639,1.9672,1.9708,1.9708,1.9708,1.9708,1.9708,1.9965,2.0176,1.98,2.0,2.0399,2.0845,2.1275,2.1703,2.2149,2.2282,2.2296,2.2296,2.2487,2.2772,2.3105,2.3414,2.3742,2.4074,2.4766,2.5281,2.5281,2.5996,2.6521,2.6521,2.7384,2.7987,2.7987,2.9076,3.0148,3.1028,3.134,3.184,3.2679,3.2776,3.2814,3.2814,3.2877,3.2885,3.2817,3.3866,3.4005,3.3228,3.4156,3.4609,3.4609,3.4746,3.5195,3.5898,3.5753,3.5707,3.5689,3.5564,3.55,3.5577,3.6327,3.6154,3.5692,3.7238,3.7296,3.6846,2.2441,2.2824,2.284,2.1982,2.1837,2.1382,2.0012,1.9805,1.9791,1.9792,1.9793,1.9808,1.9811,1.98,1.9649,1.9232,1.9183,1.9116,1.897,1.7421,1.6823,1.7518,1.8103,1.8481,1.8682,1.8179,1.789,1.789,1.7325,1.7225,1.7541,1.7541,1.7541,1.7541,1.7541,1.7552,1.7571,1.7773,1.8016,1.8322,1.8516,1.8593,1.8674,1.9431,1.9368,1.9007,1.9746,2.0135,2.0318,2.0318,2.0318,2.0393,2.0797,2.0647,2.0374,2.0624,2.0707,2.0715,2.0549,2.0797,2.1149,2.1337,2.1705,2.2092,2.2268,2.2296,2.2349,2.2514,2.3062,2.3662,2.4164,2.4773,2.5313,2.5635,2.5933,2.6135,2.6135,2.6833,2.7346,2.7346,2.8264,2.9106,2.9592,3.0347,3.1165,3.2031,3.2319,3.2583,3.2872,3.341,3.3949,3.45,3.4539,3.4052,3.3016,3.3456,3.3821,3.4103,3.4476,3.4664,3.4726,3.5254,3.5391,3.5215,3.563,3.5814,3.5802,3.5621,3.5871,3.6381,3.6606,3.6846,3.7123,3.7777,3.7796,3.7603,2.3103,2.3094,2.3105,2.3119,2.3104,2.259,2.1083,2.0256,1.9805,1.9797,1.9798,1.9798,1.9798,1.9798,1.98,1.98,1.9813,1.9813,1.9791,1.8216,1.7605,1.8321,1.8758,1.9008,1.9008,1.8632,1.838,1.8204,1.7827,1.784,1.8204,1.8204,1.8309,1.8471,1.8471,1.8585,1.8814,1.8973,1.9231,1.9536,1.9706,1.9783,1.9879,2.0693,2.0497,1.9879,2.0727,2.1002,2.1002,2.1002,2.1002,2.1077,2.1545,2.1482,2.1318,2.1735,2.1703,2.152,2.152,2.1672,2.1794,2.1643,2.1943,2.2296,2.2296,2.2296,2.2442,2.2989,2.3641,2.4355,2.5128,2.5817,2.6322,2.6562,2.6814,2.6979,2.6979,2.7677,2.8206,2.8286,2.9252,3.0141,3.0763,3.1426,3.2158,3.3046,3.3236,3.343,3.3699,3.4276,3.4872,3.5481,3.5515,3.4979,3.3834,3.3876,3.4259,3.4959,3.5016,3.5054,3.5137,3.5723,3.5664,3.5137,3.5666,3.5901,3.5875,3.5674,3.5954,3.6505,3.6652,3.7065,3.7661,3.82,3.8411,3.843,2.3108,2.3108,2.3108,2.3108,2.3098,2.3087,2.3104,2.1201,1.9791,1.9809,1.9798,1.9798,1.9811,1.9811,1.9811,1.9811,1.9811,1.98,1.9809,1.9307,1.8921,1.8734,1.8883,1.9008,1.9008,1.9008,1.8756,1.8216,1.8216,1.8216,1.824,1.8216,1.8554,1.9108,1.9108,1.9489,2.0151,2.0676,2.092,2.0947,2.15,2.1695,2.1695,2.1695,2.1695,2.1695,2.1695,2.171,2.171,2.171,2.1695,2.1695,2.1729,2.2041,2.2508,2.2994,2.2914,2.2698,2.2636,2.2465,2.2194,2.1718,2.1959,2.2296,2.2296,2.2327,2.264,2.3786,2.4233,2.4771,2.59,2.6392,2.662,2.662,2.7291,2.7816,2.7824,2.8521,2.9119,2.939,3.0349,3.1092,3.1302,3.2274,3.3276,3.4148,3.4205,3.4584,3.5442,3.55,3.55,3.55,3.5568,3.5611,3.5611,3.5675,3.5707,3.571,3.5905,3.5996,3.6016,3.6016,3.6016,3.6015,3.5939,3.5903,3.5894,3.5693,3.5611,3.5692,3.644,3.6712,3.6942,3.8661,3.9304,3.9419,2.3108,2.3108,2.3108,2.3108,2.311,2.3082,2.31,2.1219,1.9979,2.0503,2.0127,1.9962,2.039,2.0039,1.9787,1.9803,1.9812,2.0181,2.1083,2.0138,1.9771,2.0227,1.9807,1.9572,1.9572,1.9653,1.9805,2.0027,1.966,1.9872,2.0647,2.0233,2.034,2.0926,2.0926,2.1042,2.1233,2.1384,2.1472,2.148,2.1635,2.1695,2.1739,2.2224,2.2119,2.1754,2.2239,2.2403,2.2403,2.2403,2.2617,2.2967,2.3337,2.3734,2.4112,2.4251,2.415,2.3967,2.3936,2.3894,2.3564,2.2387,2.2596,2.3071,2.3071,2.369,2.4414,2.4941,2.5793,2.661,2.718,2.7841,2.829,2.829,2.8491,2.884,2.9402,2.9696,3.0143,3.0985,3.1532,3.2152,3.2977,3.3508,3.416,3.5045,3.5115,3.5231,3.5481,3.55,3.55,3.55,3.5568,3.5611,3.5611,3.5759,3.5841,3.5841,3.5951,3.6328,3.6914,3.6914,3.7246,3.7793,3.7166,3.6872,3.6869,3.6664,3.6949,3.7568,3.826,3.8873,3.9431,3.9958,4.015,4.0189,2.3108,2.3108,2.3108,2.3108,2.3108,2.3114,2.3109,2.1736,2.0846,2.1279,2.0821,2.0602,2.0981,2.0542,2.0296,2.0446,2.1955,2.2766,2.2505,2.1519,2.1166,2.1596,2.0935,2.0533,2.0533,2.0644,2.0822,2.1161,2.0822,2.1013,2.1697,2.1342,2.1486,2.21,2.21,2.2224,2.2462,2.2462,2.245,2.2443,2.2443,2.2443,2.2503,2.2912,2.2802,2.2503,2.2912,2.3062,2.3083,2.3298,2.3701,2.422,2.4729,2.5072,2.5253,2.5145,2.5028,2.488,2.4575,2.4491,2.4288,2.3393,2.3511,2.3875,2.4052,2.4609,2.5401,2.648,2.7281,2.8076,2.9044,2.9622,2.9941,2.9941,2.9941,3.0118,3.0613,3.0668,3.0995,3.1871,3.2372,3.3003,3.3876,3.4414,3.493,3.5462,3.55,3.55,3.55,3.5528,3.5547,3.5547,3.5664,3.5889,3.6219,3.6048,3.5938,3.5903,3.6324,3.6797,3.7305,3.7656,3.8105,3.8574,3.8047,3.7772,3.7724,3.7584,3.779,3.8287,3.9025,3.9611,4.0054,4.0381,4.0496,4.0496,2.3108,2.3108,2.3095,2.3088,2.3326,2.3454,2.3335,2.2728,2.2255,2.2232,2.1916,2.1716,2.1767,2.1272,2.1217,2.1795,2.5367,2.6601,2.4191,2.3211,2.2748,2.2846,2.2186,2.1815,2.1862,2.1828,2.1805,2.1805,2.1805,2.1828,2.1862,2.1815,2.2146,2.2785,2.2785,2.3076,2.3595,2.3595,2.3595,2.3595,2.3595,2.3595,2.3595,2.3595,2.3595,2.3595,2.3595,2.3638,2.3752,2.4348,2.4871,2.5354,2.5906,2.605,2.6006,2.5781,2.571,2.5558,2.488,2.4776,2.4873,2.4873,2.4938,2.506,2.5259,2.5446,2.6156,2.8283,2.8744,2.9294,3.1072,3.1397,3.1397,3.1397,3.1397,3.1433,3.1507,3.1532,3.1753,3.2363,3.3101,3.3755,3.4268,3.5026,3.55,3.55,3.55,3.55,3.55,3.5568,3.5611,3.5611,3.5797,3.6313,3.7193,3.6481,3.613,3.6142,3.693,3.7383,3.7559,3.8359,3.8769,3.8828,3.873,3.8624,3.8508,3.8436,3.833,3.8293,3.91,3.9419,3.9496,4.0227,4.0496,4.0489,2.3108,2.3108,2.311,2.3085,2.5047,2.622,2.509,2.46,2.4272,2.3987,2.3524,2.3362,2.3811,2.2365,2.2231,2.4354,2.6424,2.7355,2.6782,2.4212,2.3138,2.4141,2.3094,2.2703,2.3172,2.2725,2.2475,2.2475,2.2475,2.2725,2.3172,2.2703,2.2815,2.3399,2.3399,2.3486,2.3595,2.3595,2.3595,2.3595,2.3595,2.3595,2.3595,2.3595,2.3595,2.3595,2.3595,2.3879,2.4369,2.5335,2.5726,2.5906,2.6401,2.6556,2.6539,2.6488,2.6454,2.642,2.6268,2.692,2.7623,2.7623,2.834,2.8679,2.723,2.8042,2.934,3.0188,3.0587,3.09,3.1329,3.1397,3.1397,3.1397,3.1397,3.1623,3.2247,3.2526,3.3034,3.4031,3.45,3.486,3.5191,3.5385,3.55,3.55,3.55,3.55,3.55,3.5568,3.5611,3.5611,3.5797,3.6313,3.7193,3.7086,3.7343,3.8006,3.7539,3.8027,3.9336,3.9531,3.998,4.0586,3.9792,3.9442,3.9403,3.9222,3.914,3.9191,3.9947,4.0246,4.0265,4.0439,4.0496,4.043,2.3108,2.3089,2.3107,2.3103,2.5596,2.7343,2.6581,2.5715,2.5147,2.4942,2.4678,2.4609,2.49,2.3313,2.3392,2.6193,2.7161,2.7601,2.7595,2.5698,2.4868,2.5546,2.4612,2.4235,2.4567,2.3925,2.3443,2.312,2.312,2.3275,2.3595,2.329,2.3312,2.3595,2.3595,2.3595,2.3595,2.3595,2.3595,2.3616,2.3879,2.397,2.4012,2.4266,2.4369,2.4369,2.4369,2.4712,2.5259,2.5815,2.6156,2.6367,2.6624,2.6691,2.6759,2.7131,2.7232,2.7317,2.7689,2.8408,2.9016,2.9016,2.993,3.0523,2.9352,2.9843,3.0758,3.1551,3.1856,3.2082,3.2467,3.254,3.254,3.254,3.2643,3.2884,3.3297,3.3608,3.4072,3.4794,3.5008,3.5207,3.546,3.55,3.5654,3.6038,3.6077,3.6279,3.6755,3.6856,3.6735,3.6381,3.6897,3.7413,3.7862,3.7909,3.8574,3.9824,3.8965,3.9023,3.9902,4.0332,4.0721,4.1084,4.0558,4.0276,4.0171,4.0056,3.9985,3.9958,4.0354,4.0496,4.0496,4.0496,4.0414,4.0241,2.31,2.3107,2.3264,2.3778,2.5952,2.7602,2.7612,2.6574,2.5783,2.5783,2.577,2.5771,2.5771,2.4639,2.4871,2.7391,2.7603,2.7599,2.7599,2.6966,2.6587,2.6587,2.5959,2.5615,2.5615,2.5053,2.45,2.3939,2.3714,2.3655,2.3774,2.3655,2.3595,2.3595,2.3595,2.3659,2.3745,2.3745,2.3794,2.3921,2.4348,2.4552,2.4592,2.5031,2.5202,2.5218,2.533,2.5737,2.6211,2.6434,2.6685,2.6911,2.7046,2.7097,2.7199,2.7824,2.801,2.8145,2.8824,2.9437,2.9913,2.9913,3.0864,3.1742,3.1454,3.1355,3.1578,3.259,3.2803,3.3005,3.3678,3.3842,3.3918,3.4079,3.4321,3.4542,3.4685,3.4996,3.5287,3.5507,3.5577,3.5667,3.5909,3.5923,3.6192,3.6865,3.6923,3.7301,3.8158,3.8255,3.8036,3.7425,3.818,3.8672,3.8828,3.8828,3.9629,4.1191,4.0469,4.0117,4.0156,4.0859,4.1104,4.0994,4.0955,4.0844,4.0697,4.0687,4.0596,4.0496,4.0496,4.0496,4.0496,4.0496,4.0294,3.9963,2.3098,2.31,2.3912,2.6538,2.7324,2.7607,2.7605,2.7416,2.7291,2.7291,2.7295,2.7299,2.7299,2.7118,2.7165,2.7555,2.7604,2.7602,2.7602,2.6971,2.6587,2.6587,2.5959,2.5615,2.5615,2.5501,2.5435,2.533,2.4163,2.3909,2.4455,2.3879,2.3595,2.3595,2.3595,2.3858,2.4287,2.4287,2.4572,2.4989,2.5067,2.5105,2.5105,2.5182,2.5202,2.5282,2.591,2.6484,2.7108,2.8216,2.816,2.7773,2.8468,2.8688,2.8705,2.8807,2.884,2.8857,2.8976,3.0058,3.1158,3.1158,3.2334,3.3465,3.3428,3.3138,3.3027,3.3538,3.3642,3.3678,3.377,3.3999,3.4382,3.5144,3.5496,3.5937,3.6694,3.7033,3.7212,3.7258,3.7466,3.7613,3.7661,3.7661,3.7719,3.7815,3.7815,3.7925,3.8197,3.8255,3.8273,3.8247,3.8473,3.8965,3.9726,3.9726,4.0215,4.1191,4.1074,4.1016,4.1016,4.1021,4.1021,4.099,4.0818,4.0738,4.0686,4.0561,4.0519,4.0496,4.0496,4.0496,4.0496,4.0496,4.0148,3.9656,2.7799,2.7781,2.7754,2.7631,2.7596,2.7609,2.7587,2.7583,2.7591,2.7609,2.7609,2.8166,2.9602,2.9786,2.9766,2.9766,2.9768,2.9474,2.8762,2.845,2.8124,2.7724,2.7425,2.7096,2.6746,2.6348,2.6333,2.6731,2.5375,2.5033,2.5649,2.5343,2.5185,2.5108,2.5108,2.5013,2.4851,2.4851,2.4973,2.524,2.554,2.5652,2.567,2.5944,2.6282,2.6745,2.7526,2.7956,2.8246,2.8801,2.8773,2.8535,2.8891,2.8993,2.9077,2.9482,2.96,2.9776,3.0427,3.1307,3.2085,3.2337,3.3103,3.3807,3.3807,3.3666,3.3706,3.4335,3.4472,3.4619,3.511,3.5406,3.5721,3.6118,3.654,3.6977,3.7367,3.7655,3.7827,3.7827,3.7936,3.8007,3.8007,3.8007,3.82,3.8681,3.8768,3.9035,3.9616,3.974,3.964,3.9251,3.9765,4.0,3.9902,4.0371,4.1035,4.1875,4.1829,4.1568,4.1081,4.1025,4.0936,4.0831,4.0735,4.0668,4.0575,4.0515,4.0496,4.0496,4.0496,4.0496,4.0481,4.0339,3.9993,3.9576]}]]